Darstellungsparameter: Aktuell verwendete Einstellungen:
Skalierung der Graphiken ... ?
xyx+y,   Skalierungsfaktor:      Skalierung: Modus: x, Faktor: 1
Darstellungszeitraum ... ?
Vom - - bis: - -   Zeitraum: 23.02.2003 - 31.12.2003
Min/Max/Avg-Anzeige ... ?
Zeige MMA aktuell
Zeige MMA Monat
Zeige MMA alles
Zeige --A aktuell
Zeige --A Monat
Zeige --A alles
Keine MMA-Anzeige
MMA:
Keine MMA-Graphiken
MMA-Basis: 23.02.2003 - 31.12.2003
Quicknavigation für Darstellung... ?
Tage:      1T, 2T, 3T, 5T -1T -2T -3T -5T +1T +2T +3T +5T
Wochen: 1W, 2W, 3W -1W -2W -3W +1W +2W +3W
Monate: 1M, 3M, 6M -1M -3M -6M +1M +3M +6M
Jahre:    1J, 3J, 5J, 10J -1J -3J -5J -10J +1J +3J +5J +10J
Nutze für die Darstellung ... ?
Originaldaten oder ...
Mittelwerte Minima Maxima auf...
Stundenbasis Tagesbasis Wochenbasis
Monatsbasis Jahresbasis      Datenbasis: Mittelwerte auf Stundenbasis
Darstellen als:
Statistik (Auto) Statistik J:M      Darstellung:
Zur Graphik,    zurück zur Übersicht aller Sensoren.
 
Tabellarische Datenbersicht: ?
 
Sensor: Nr:Datum:Temp:Abs-Feuchte:Windchill:Wind:
Aussen-T/F 1 23-02-2003 20:00:00 3.63333 C 3.59 g/m*3 3.63 C 0 km/h
2 23-02-2003 21:00:00 2 C 3.62 g/m*3 2 C 0 km/h
3 23-02-2003 22:00:00 0.78 C 3.64 g/m*3 0.78 C 0 km/h
4 23-02-2003 23:00:00 -0.25 C 3.51 g/m*3 -0.25 C 0 km/h
5 24-02-2003 00:00:00 -0.95 C 3.44 g/m*3 -0.95 C 0 km/h
6 24-02-2003 01:00:00 -1.71667 C 3.31 g/m*3 -1.72 C 0 km/h
7 24-02-2003 02:00:00 -1.98333 C 3.32 g/m*3 -1.98 C 0 km/h
8 24-02-2003 03:00:00 -2.71667 C 3.14 g/m*3 -2.72 C 0 km/h
9 24-02-2003 04:00:00 -2.93333 C 3.13 g/m*3 -2.93 C 0 km/h
10 24-02-2003 05:00:00 -3.33333 C 3.05 g/m*3 -3.33 C 0 km/h
11 24-02-2003 06:00:00 -3.65 C 2.99 g/m*3 -3.65 C 0 km/h
12 24-02-2003 07:00:00 -3.85 C 2.96 g/m*3 -3.85 C 0 km/h
13 24-02-2003 08:00:00 -3.7 C 2.99 g/m*3 -3.7 C 0 km/h
14 24-02-2003 09:00:00 -2.86667 C 3.17 g/m*3 -2.87 C 0 km/h
15 24-02-2003 10:00:00 -0.91667 C 3.71 g/m*3 -0.92 C 0 km/h
16 24-02-2003 11:00:00 2.46 C 4.21 g/m*3 2.46 C 0 km/h
17 24-02-2003 12:00:00 5.76667 C 4.12 g/m*3 5.77 C 0 km/h
18 24-02-2003 13:00:00 8.55 C 4.08 g/m*3 8.55 C 0 km/h
19 24-02-2003 14:00:00 12.3 C 3.77 g/m*3 12.3 C 0 km/h
20 24-02-2003 15:00:00 14.13 C 3.59 g/m*3 14.13 C 0 km/h
21 24-02-2003 16:00:00 13.41 C 3.78 g/m*3 13.41 C 0 km/h
22 24-02-2003 17:00:00 10.4 C 3.77 g/m*3 10.4 C 0 km/h
23 24-02-2003 18:00:00 6.19 C 3.62 g/m*3 6.19 C 0 km/h
24 24-02-2003 19:00:00 4.27 C 3.65 g/m*3 4.27 C 0 km/h
25 24-02-2003 20:00:00 2.61 C 3.57 g/m*3 2.61 C 0 km/h
Sensor: Nr:Datum:Temp:Abs-Feuchte:Windchill:Wind:
Aussen-T/F 26 24-02-2003 21:00:00 1.3 C 3.48 g/m*3 1.3 C 0 km/h
27 24-02-2003 22:00:00 0.43 C 3.42 g/m*3 0.43 C 0 km/h
28 24-02-2003 23:00:00 -0.86 C 3.28 g/m*3 -0.86 C 0 km/h
29 25-02-2003 00:00:00 -1.33 C 3.24 g/m*3 -1.33 C 0 km/h
30 25-02-2003 01:00:00 -2.07 C 3.11 g/m*3 -2.07 C 0 km/h
31 25-02-2003 02:00:00 -2.54 C 3.06 g/m*3 -2.54 C 0 km/h
32 25-02-2003 03:00:00 -3.02 C 2.97 g/m*3 -3.02 C 0 km/h
33 25-02-2003 04:00:00 -3.53 C 2.88 g/m*3 -3.53 C 0 km/h
34 25-02-2003 05:00:00 -4.48 C 2.7 g/m*3 -4.48 C 0 km/h
35 25-02-2003 06:00:00 -4.94 C 2.63 g/m*3 -4.94 C 0 km/h
36 25-02-2003 07:00:00 -5.41 C 2.55 g/m*3 -5.41 C 0 km/h
37 25-02-2003 08:00:00 -5.04 C 2.62 g/m*3 -5.04 C 0 km/h
38 25-02-2003 09:00:00 -4.31 C 2.78 g/m*3 -4.31 C 0 km/h
39 25-02-2003 10:00:00 -1.59 C 3.46 g/m*3 -1.59 C 0 km/h
40 25-02-2003 11:00:00 1.8 C 3.79 g/m*3 1.8 C 0 km/h
41 25-02-2003 12:00:00 5.64 C 3.12 g/m*3 5.64 C 0 km/h
42 25-02-2003 13:00:00 8.66 C 2.97 g/m*3 8.66 C 0 km/h
43 25-02-2003 14:00:00 11.02222 C 3.01 g/m*3 11.02 C 0 km/h
44 25-02-2003 15:00:00 12.49 C 3.16 g/m*3 12.49 C 0 km/h
45 25-02-2003 16:00:00 12.08 C 3.19 g/m*3 12.08 C 0 km/h
46 25-02-2003 17:00:00 8.96 C 3.23 g/m*3 8.96 C 0 km/h
47 25-02-2003 18:00:00 5.04 C 3.2 g/m*3 5.04 C 0 km/h
48 25-02-2003 19:00:00 3.04 C 3.24 g/m*3 3.04 C 0 km/h
49 25-02-2003 20:00:00 1.69 C 3.15 g/m*3 1.69 C 0 km/h
50 25-02-2003 21:00:00 0.28 C 3.13 g/m*3 0.28 C 0 km/h
Sensor: Nr:Datum:Temp:Abs-Feuchte:Windchill:Wind:
Aussen-T/F 51 25-02-2003 22:00:00 -0.59 C 3.06 g/m*3 -0.59 C 0 km/h
52 25-02-2003 23:00:00 -1.39 C 2.92 g/m*3 -1.39 C 0 km/h
53 26-02-2003 00:00:00 -2.24 C 2.82 g/m*3 -2.24 C 0 km/h
54 26-02-2003 01:00:00 -2.81 C 2.81 g/m*3 -2.81 C 0 km/h
55 26-02-2003 02:00:00 -3.2 C 2.74 g/m*3 -3.2 C 0 km/h
56 26-02-2003 03:00:00 -3.72 C 2.7 g/m*3 -3.72 C 0 km/h
57 26-02-2003 04:00:00 -3.8 C 2.68 g/m*3 -3.8 C 0 km/h
58 26-02-2003 05:00:00 -4.13 C 2.65 g/m*3 -4.13 C 0 km/h
59 26-02-2003 06:00:00 -4.26 C 2.64 g/m*3 -4.26 C 0 km/h
60 26-02-2003 07:00:00 -4.68 C 2.6 g/m*3 -4.68 C 0 km/h
61 26-02-2003 08:00:00 -4.08 C 2.74 g/m*3 -4.08 C 0 km/h
62 26-02-2003 09:00:00 -1.83 C 2.95 g/m*3 -1.83 C 0 km/h
63 26-02-2003 10:00:00 -0.06 C 3.15 g/m*3 -0.06 C 0 km/h
64 26-02-2003 11:00:00 0.96 C 3.24 g/m*3 0.96 C 0 km/h
65 26-02-2003 12:00:00 2.51 C 3.43 g/m*3 2.51 C 0 km/h
66 26-02-2003 13:00:00 4.67 C 3.48 g/m*3 4.67 C 0 km/h
67 26-02-2003 14:00:00 6.39474 C 3.63 g/m*3 6.39 C 0 km/h
68 26-02-2003 15:00:00 7.65 C 3.6 g/m*3 7.65 C 0 km/h
69 26-02-2003 16:00:00 8.00556 C 3.67 g/m*3 8.01 C 0 km/h
70 26-02-2003 17:00:00 7.47 C 3.75 g/m*3 7.47 C 0 km/h
71 26-02-2003 18:00:00 5.38 C 3.7 g/m*3 5.38 C 0 km/h
72 26-02-2003 19:00:00 4.025 C 3.67 g/m*3 4.03 C 0 km/h
73 26-02-2003 20:00:00 2.655 C 3.6 g/m*3 2.66 C 0 km/h
74 26-02-2003 21:00:00 2.3 C 3.63 g/m*3 2.3 C 0 km/h
75 26-02-2003 22:00:00 2.34 C 3.67 g/m*3 2.34 C 0 km/h
Sensor: Nr:Datum:Temp:Abs-Feuchte:Windchill:Wind:
Aussen-T/F 76 26-02-2003 23:00:00 2.045 C 3.67 g/m*3 2.05 C 0 km/h
77 27-02-2003 00:00:00 1.7 C 3.69 g/m*3 1.7 C 0 km/h
78 27-02-2003 01:00:00 1.705 C 3.72 g/m*3 1.71 C 0 km/h
79 27-02-2003 02:00:00 1.255 C 3.67 g/m*3 1.25 C 0 km/h
80 27-02-2003 03:00:00 0.96 C 3.67 g/m*3 0.96 C 0 km/h
81 27-02-2003 04:00:00 0.53 C 3.64 g/m*3 0.53 C 0 km/h
82 27-02-2003 05:00:00 0.145 C 3.63 g/m*3 0.14 C 0 km/h
83 27-02-2003 06:00:00 -0.265 C 3.63 g/m*3 -0.27 C 0 km/h
84 27-02-2003 07:00:00 -0.4 C 3.59 g/m*3 -0.4 C 0 km/h
85 27-02-2003 08:00:00 0.21 C 3.7 g/m*3 0.21 C 0 km/h
86 27-02-2003 09:00:00 1.06 C 3.83 g/m*3 1.06 C 0 km/h
87 27-02-2003 10:00:00 3.77 C 3.97 g/m*3 3.77 C 0 km/h
88 27-02-2003 11:00:00 6.445 C 4.03 g/m*3 6.45 C 0 km/h
89 27-02-2003 12:00:00 9.845 C 4.12 g/m*3 9.85 C 0 km/h
90 27-02-2003 13:00:00 12.875 C 4.29 g/m*3 12.88 C 0 km/h
91 27-02-2003 14:00:00 16.46 C 4.24 g/m*3 16.46 C 0 km/h
92 27-02-2003 15:00:00 17.77 C 4.52 g/m*3 17.77 C 0 km/h
93 27-02-2003 16:00:00 15.775 C 4.62 g/m*3 15.78 C 0 km/h
94 27-02-2003 17:00:00 12.91176 C 4.89 g/m*3 12.91 C 0 km/h
95 27-02-2003 18:00:00 11.09 C 4.92 g/m*3 11.09 C 0 km/h
96 27-02-2003 19:00:00 9.34 C 4.93 g/m*3 9.34 C 0 km/h
97 27-02-2003 20:00:00 7.74 C 4.88 g/m*3 7.74 C 0 km/h
98 27-02-2003 21:00:00 5.71 C 4.84 g/m*3 5.71 C 0 km/h
99 27-02-2003 22:00:00 4.64 C 4.79 g/m*3 4.64 C 0 km/h
100 27-02-2003 23:00:00 4.35 C 4.74 g/m*3 4.35 C 0 km/h
Sensor: Nr:Datum:Temp:Abs-Feuchte:Windchill:Wind:
Aussen-T/F 101 28-02-2003 00:00:00 3.84 C 4.66 g/m*3 3.84 C 0 km/h
102 28-02-2003 01:00:00 3.69 C 4.7 g/m*3 3.69 C 0 km/h
103 28-02-2003 02:00:00 3.74 C 4.67 g/m*3 3.74 C 0 km/h
104 28-02-2003 03:00:00 3.37 C 4.66 g/m*3 3.37 C 0 km/h
105 28-02-2003 04:00:00 3.18 C 4.63 g/m*3 3.18 C 0 km/h
106 28-02-2003 05:00:00 3.47 C 4.67 g/m*3 3.47 C 0 km/h
107 28-02-2003 06:00:00 3.48 C 4.67 g/m*3 3.48 C 0 km/h
108 28-02-2003 07:00:00 3.45 C 4.71 g/m*3 3.45 C 0 km/h
109 28-02-2003 08:00:00 3.89 C 4.76 g/m*3 3.89 C 0 km/h
110 28-02-2003 09:00:00 4.56 C 4.84 g/m*3 4.56 C 0 km/h
111 28-02-2003 10:00:00 5.95 C 4.96 g/m*3 5.95 C 0 km/h
112 28-02-2003 11:00:00 7.86 C 5.01 g/m*3 7.86 C 0 km/h
113 28-02-2003 12:00:00 10.37 C 5.41 g/m*3 10.37 C 0 km/h
114 28-02-2003 13:00:00 12.19 C 5.94 g/m*3 12.19 C 0 km/h
115 28-02-2003 14:00:00 12.99 C 6.19 g/m*3 12.99 C 0 km/h
116 28-02-2003 15:00:00 13.46 C 6.32 g/m*3 13.46 C 0 km/h
117 28-02-2003 16:00:00 13.42 C 6.38 g/m*3 13.42 C 0 km/h
118 28-02-2003 17:00:00 12.04 C 6.3 g/m*3 12.04 C 0 km/h
119 28-02-2003 18:00:00 10.18 C 6.08 g/m*3 10.18 C 0 km/h
120 28-02-2003 19:00:00 8.95556 C 5.95 g/m*3 8.96 C 0 km/h
121 28-02-2003 20:00:00 7.44 C 5.81 g/m*3 7.44 C 0 km/h
122 28-02-2003 21:00:00 6.23 C 5.67 g/m*3 6.23 C 0 km/h
123 28-02-2003 22:00:00 5.43 C 5.68 g/m*3 5.43 C 0 km/h
124 28-02-2003 23:00:00 5.33 C 5.66 g/m*3 5.33 C 0 km/h
125 01-03-2003 00:00:00 4.71 C 5.53 g/m*3 4.71 C 0 km/h
Sensor: Nr:Datum:Temp:Abs-Feuchte:Windchill:Wind:
Aussen-T/F 126 01-03-2003 01:00:00 4.27 C 5.37 g/m*3 4.27 C 0 km/h
127 01-03-2003 02:00:00 4.54286 C 5.45 g/m*3 4.54 C 0 km/h
128 01-03-2003 03:00:00 4.41 C 5.69 g/m*3 4.41 C 0 km/h
129 01-03-2003 04:00:00 4.48 C 5.97 g/m*3 4.48 C 0 km/h
130 01-03-2003 05:00:00 4.48 C 6.04 g/m*3 4.48 C 0 km/h
131 01-03-2003 06:00:00 5.11 C 6.32 g/m*3 5.11 C 0 km/h
132 01-03-2003 07:00:00 7.16 C 6.98 g/m*3 7.16 C 0 km/h
133 01-03-2003 08:00:00 8.03 C 6.91 g/m*3 8.03 C 0 km/h
134 01-03-2003 09:00:00 8.13 C 7.03 g/m*3 8.13 C 0 km/h
135 01-03-2003 10:00:00 8.89 C 7.07 g/m*3 8.89 C 0 km/h
136 01-03-2003 11:00:00 9.42 C 7.04 g/m*3 9.42 C 0 km/h
137 01-03-2003 12:00:00 9.86 C 6.98 g/m*3 9.86 C 0 km/h
138 01-03-2003 13:00:00 10.07 C 6.9 g/m*3 10.07 C 0 km/h
139 01-03-2003 14:00:00 10.91 C 7.02 g/m*3 10.91 C 0 km/h
140 01-03-2003 15:00:00 11.74 C 7.09 g/m*3 11.74 C 0 km/h
141 01-03-2003 16:00:00 11.38 C 6.92 g/m*3 11.38 C 0 km/h
142 01-03-2003 17:00:00 10.66 C 6.92 g/m*3 10.66 C 0 km/h
143 01-03-2003 18:00:00 9.83 C 6.85 g/m*3 9.83 C 0 km/h
144 01-03-2003 19:00:00 9.45 C 6.88 g/m*3 9.45 C 0 km/h
145 01-03-2003 20:00:00 9.25556 C 6.86 g/m*3 9.26 C 0 km/h
146 01-03-2003 21:00:00 8.78 C 7 g/m*3 8.78 C 0 km/h
147 01-03-2003 22:00:00 8.35 C 7.18 g/m*3 8.35 C 0 km/h
148 01-03-2003 23:00:00 8.17 C 7.32 g/m*3 8.17 C 0 km/h
149 02-03-2003 00:00:00 7.91 C 7.36 g/m*3 7.91 C 0 km/h
150 02-03-2003 01:00:00 7.79 C 7.4 g/m*3 7.79 C 0 km/h
Sensor: Nr:Datum:Temp:Abs-Feuchte:Windchill:Wind:
Aussen-T/F 151 02-03-2003 02:00:00 7.7 C 7.37 g/m*3 7.7 C 0 km/h
152 02-03-2003 03:00:00 7.71 C 7.27 g/m*3 7.71 C 0 km/h
153 02-03-2003 04:00:00 7.49 C 7.19 g/m*3 7.49 C 0 km/h
154 02-03-2003 05:00:00 7.34 C 7.14 g/m*3 7.34 C 0 km/h
155 02-03-2003 06:00:00 7.27 C 7.2 g/m*3 7.27 C 0 km/h
156 02-03-2003 07:00:00 7.35 C 7.28 g/m*3 7.35 C 0 km/h
157 02-03-2003 08:00:00 7.54 C 7.31 g/m*3 7.54 C 0 km/h
158 02-03-2003 09:00:00 8.65 C 7.77 g/m*3 8.65 C 0 km/h
159 02-03-2003 10:00:00 10.93 C 7.52 g/m*3 10.93 C 0 km/h
160 02-03-2003 11:00:00 11.41 C 6.89 g/m*3 11.41 C 0 km/h
161 02-03-2003 12:00:00 10.32 C 7.35 g/m*3 10.32 C 0 km/h
162 02-03-2003 13:00:00 10.86 C 7.43 g/m*3 10.86 C 0 km/h
163 02-03-2003 14:00:00 9.92 C 7.42 g/m*3 9.92 C 0 km/h
164 02-03-2003 15:00:00 9.66 C 6.81 g/m*3 9.66 C 0 km/h
165 02-03-2003 16:00:00 9.86 C 6.49 g/m*3 9.86 C 0 km/h
166 02-03-2003 17:00:00 9.46316 C 6.28 g/m*3 9.46 C 0 km/h
167 02-03-2003 18:00:00 8.39 C 5.98 g/m*3 8.39 C 0 km/h
168 02-03-2003 19:00:00 7.62 C 5.99 g/m*3 7.62 C 0 km/h
169 02-03-2003 20:00:00 7 C 5.85 g/m*3 7 C 0 km/h
170 02-03-2003 21:00:00 5.94 C 5.83 g/m*3 5.94 C 0 km/h
171 02-03-2003 22:00:00 6.64444 C 5.91 g/m*3 6.64 C 0 km/h
172 02-03-2003 23:00:00 6.71 C 5.88 g/m*3 6.71 C 0 km/h
173 03-03-2003 00:00:00 5.83 C 6.11 g/m*3 5.83 C 0 km/h
174 03-03-2003 01:00:00 5.59 C 6.17 g/m*3 5.59 C 0 km/h
175 03-03-2003 02:00:00 5.71 C 6.12 g/m*3 5.71 C 0 km/h
Sensor: Nr:Datum:Temp:Abs-Feuchte:Windchill:Wind:
Aussen-T/F 176 03-03-2003 03:00:00 5.83 C 5.88 g/m*3 5.83 C 0 km/h
177 03-03-2003 04:00:00 5.72 C 5.59 g/m*3 5.72 C 0 km/h
178 03-03-2003 05:00:00 5.38 C 5.54 g/m*3 5.38 C 0 km/h
179 03-03-2003 06:00:00 4.96 C 5.56 g/m*3 4.96 C 0 km/h
180 03-03-2003 07:00:00 4.61 C 5.64 g/m*3 4.61 C 0 km/h
181 03-03-2003 08:00:00 4.86 C 5.7 g/m*3 4.86 C 0 km/h
182 03-03-2003 09:00:00 4.9 C 5.78 g/m*3 4.9 C 0 km/h
183 03-03-2003 10:00:00 5.03 C 5.79 g/m*3 5.03 C 0 km/h
184 03-03-2003 11:00:00 5.53 C 5.8 g/m*3 5.53 C 0 km/h
185 03-03-2003 12:00:00 5.7 C 5.71 g/m*3 5.7 C 0 km/h
186 03-03-2003 13:00:00 5.6 C 5.71 g/m*3 5.6 C 0 km/h
187 03-03-2003 14:00:00 5.74 C 5.77 g/m*3 5.74 C 0 km/h
188 03-03-2003 15:00:00 5.9 C 5.78 g/m*3 5.9 C 0 km/h
189 03-03-2003 16:00:00 6.45556 C 5.84 g/m*3 6.46 C 0 km/h
190 03-03-2003 17:00:00 6.06667 C 5.69 g/m*3 6.07 C 0 km/h
191 03-03-2003 18:00:00 5.68 C 5.66 g/m*3 5.68 C 0 km/h
192 03-03-2003 19:00:00 5.34 C 5.64 g/m*3 5.34 C 0 km/h
193 03-03-2003 20:00:00 5.17 C 5.63 g/m*3 5.17 C 0 km/h
194 03-03-2003 21:00:00 4.98 C 5.61 g/m*3 4.98 C 0 km/h
195 03-03-2003 22:00:00 4.81 C 5.6 g/m*3 4.81 C 0 km/h
196 03-03-2003 23:00:00 4.65 C 5.58 g/m*3 4.65 C 0 km/h
197 04-03-2003 00:00:00 4.57 C 5.55 g/m*3 4.57 C 0 km/h
198 04-03-2003 01:00:00 4.52 C 5.53 g/m*3 4.52 C 0 km/h
199 04-03-2003 02:00:00 4.45 C 5.5 g/m*3 4.45 C 0 km/h
200 04-03-2003 03:00:00 4.2 C 5.44 g/m*3 4.2 C 0 km/h
Sensor: Nr:Datum:Temp:Abs-Feuchte:Windchill:Wind:
Aussen-T/F 201 04-03-2003 04:00:00 3.12 C 5.09 g/m*3 3.12 C 0 km/h
202 04-03-2003 05:00:00 1.85 C 4.71 g/m*3 1.85 C 0 km/h
203 04-03-2003 06:00:00 1.45 C 4.68 g/m*3 1.45 C 0 km/h
204 04-03-2003 07:00:00 1.26 C 4.69 g/m*3 1.26 C 0 km/h
205 04-03-2003 08:00:00 1.16 C 4.76 g/m*3 1.16 C 0 km/h
206 04-03-2003 09:00:00 2.18 C 4.91 g/m*3 2.18 C 0 km/h
207 04-03-2003 10:00:00 3.63 C 5.09 g/m*3 3.63 C 0 km/h
208 04-03-2003 11:00:00 5.36 C 5.53 g/m*3 5.36 C 0 km/h
209 04-03-2003 12:00:00 9.35 C 5.29 g/m*3 9.35 C 0 km/h
210 04-03-2003 13:00:00 11.23 C 4.94 g/m*3 11.23 C 0 km/h
211 04-03-2003 14:00:00 12.35 C 4.75 g/m*3 12.35 C 0 km/h
212 04-03-2003 15:00:00 13.15 C 4.77 g/m*3 13.15 C 0 km/h
213 04-03-2003 16:00:00 12.47 C 4.89 g/m*3 12.47 C 0 km/h
214 04-03-2003 17:00:00 10.54 C 5.14 g/m*3 10.54 C 0 km/h
215 04-03-2003 18:00:00 8.72 C 5.33 g/m*3 8.72 C 0 km/h
216 04-03-2003 19:00:00 8.43333 C 5.3 g/m*3 8.43 C 0 km/h
217 05-03-2003 16:00:00 13.43 C 6.39 g/m*3 13.43 C 0 km/h
218 05-03-2003 17:00:00 12.8 C 6.73 g/m*3 12.8 C 0 km/h
219 05-03-2003 18:00:00 11.61 C 6.89 g/m*3 11.61 C 0 km/h
220 05-03-2003 19:00:00 11.19 C 6.94 g/m*3 11.19 C 0 km/h
221 05-03-2003 20:00:00 10.97778 C 6.95 g/m*3 10.98 C 0 km/h
222 05-03-2003 21:00:00 10.93333 C 6.88 g/m*3 10.93 C 0 km/h
223 05-03-2003 22:00:00 10.27 C 6.62 g/m*3 10.27 C 0 km/h
224 05-03-2003 23:00:00 9.72 C 6.43 g/m*3 9.72 C 0 km/h
225 06-03-2003 00:00:00 9.42 C 6.28 g/m*3 9.42 C 0 km/h
Sensor: Nr:Datum:Temp:Abs-Feuchte:Windchill:Wind:
Aussen-T/F 226 06-03-2003 01:00:00 9.86 C 6.08 g/m*3 9.86 C 0 km/h
227 06-03-2003 02:00:00 10.08 C 5.81 g/m*3 10.08 C 0 km/h
228 06-03-2003 03:00:00 10.02 C 5.53 g/m*3 10.02 C 0 km/h
229 06-03-2003 04:00:00 9.53 C 5.45 g/m*3 9.53 C 0 km/h
230 06-03-2003 05:00:00 9.23 C 5.39 g/m*3 9.23 C 0 km/h
231 06-03-2003 06:00:00 8.57 C 5.33 g/m*3 8.57 C 0 km/h
232 06-03-2003 07:00:00 8.64 C 5.34 g/m*3 8.64 C 0 km/h
233 06-03-2003 08:00:00 8.94 C 5.32 g/m*3 8.94 C 0 km/h
234 06-03-2003 09:00:00 9.58 C 5.38 g/m*3 9.58 C 0 km/h
235 06-03-2003 10:00:00 10.34 C 5.56 g/m*3 10.34 C 0 km/h
236 06-03-2003 11:00:00 8.48 C 6.49 g/m*3 8.48 C 0 km/h
237 06-03-2003 12:00:00 8.17 C 7.05 g/m*3 8.17 C 0 km/h
238 06-03-2003 13:00:00 7.79 C 6.99 g/m*3 7.79 C 0 km/h
239 06-03-2003 14:00:00 6.98 C 6.49 g/m*3 6.98 C 0 km/h
240 06-03-2003 15:00:00 6.78 C 6.48 g/m*3 6.78 C 0 km/h
241 06-03-2003 16:00:00 6.55 C 6.32 g/m*3 6.55 C 0 km/h
242 06-03-2003 17:00:00 6.16 C 6.13 g/m*3 6.16 C 0 km/h
243 06-03-2003 18:00:00 5.96667 C 6.17 g/m*3 5.97 C 0 km/h
244 06-03-2003 19:00:00 6.06667 C 6.01 g/m*3 6.07 C 0 km/h
245 06-03-2003 20:00:00 5.98 C 5.9 g/m*3 5.98 C 0 km/h
246 06-03-2003 21:00:00 5.6 C 5.8 g/m*3 5.6 C 0 km/h
247 06-03-2003 22:00:00 5.81667 C 5.67 g/m*3 5.82 C 0 km/h
248 06-03-2003 23:00:00 5.9 C 5.46 g/m*3 5.9 C 0 km/h
249 07-03-2003 00:00:00 5.01667 C 5.39 g/m*3 5.02 C 0 km/h
250 07-03-2003 01:00:00 3.15 C 5.13 g/m*3 3.15 C 0 km/h
Sensor: Nr:Datum:Temp:Abs-Feuchte:Windchill:Wind:
Aussen-T/F 251 07-03-2003 02:00:00 2.6 C 5.06 g/m*3 2.6 C 0 km/h
252 07-03-2003 03:00:00 3.26667 C 5.25 g/m*3 3.27 C 0 km/h
253 07-03-2003 04:00:00 3.11667 C 5.1 g/m*3 3.12 C 0 km/h
254 07-03-2003 05:00:00 1.68333 C 4.7 g/m*3 1.68 C 0 km/h
255 07-03-2003 06:00:00 1.13333 C 4.63 g/m*3 1.13 C 0 km/h
256 07-03-2003 07:00:00 1.16667 C 4.76 g/m*3 1.17 C 0 km/h
257 07-03-2003 08:00:00 2.08333 C 4.96 g/m*3 2.08 C 0 km/h
258 07-03-2003 09:00:00 3.06667 C 5.05 g/m*3 3.07 C 0 km/h
259 07-03-2003 10:00:00 4.65 C 5.19 g/m*3 4.65 C 0 km/h
260 07-03-2003 11:00:00 6.18333 C 5.39 g/m*3 6.18 C 0 km/h
261 07-03-2003 12:00:00 8.33333 C 5.93 g/m*3 8.33 C 0 km/h
262 07-03-2003 13:00:00 10.38333 C 5.63 g/m*3 10.38 C 0 km/h
263 07-03-2003 14:00:00 11.9 C 5.33 g/m*3 11.9 C 0 km/h
264 07-03-2003 15:00:00 11.73333 C 4.86 g/m*3 11.73 C 0 km/h
265 07-03-2003 16:00:00 11 C 4.8 g/m*3 11 C 0 km/h
266 07-03-2003 17:00:00 9.96667 C 4.81 g/m*3 9.97 C 0 km/h
267 07-03-2003 18:00:00 7.9 C 5.13 g/m*3 7.9 C 0 km/h
268 07-03-2003 19:00:00 7.35 C 4.97 g/m*3 7.35 C 0 km/h
269 07-03-2003 20:00:00 7.16667 C 5.07 g/m*3 7.17 C 0 km/h
270 07-03-2003 21:00:00 4.95 C 4.85 g/m*3 4.95 C 0 km/h
271 07-03-2003 22:00:00 3.93333 C 4.66 g/m*3 3.93 C 0 km/h
272 07-03-2003 23:00:00 3.66667 C 4.61 g/m*3 3.67 C 0 km/h
273 08-03-2003 00:00:00 3.76667 C 4.64 g/m*3 3.77 C 0 km/h
274 08-03-2003 01:00:00 5.06667 C 4.53 g/m*3 5.07 C 0 km/h
275 08-03-2003 02:00:00 4.75 C 4.59 g/m*3 4.75 C 0 km/h
Sensor: Nr:Datum:Temp:Abs-Feuchte:Windchill:Wind:
Aussen-T/F 276 08-03-2003 03:00:00 4.31667 C 4.63 g/m*3 4.32 C 0 km/h
277 08-03-2003 04:00:00 5.26667 C 4.66 g/m*3 5.27 C 0 km/h
278 08-03-2003 05:00:00 5.1 C 4.77 g/m*3 5.1 C 0 km/h
279 08-03-2003 06:00:00 4.91667 C 4.76 g/m*3 4.92 C 0 km/h
280 08-03-2003 07:00:00 4.53333 C 4.8 g/m*3 4.53 C 0 km/h
281 08-03-2003 08:00:00 5.53333 C 4.89 g/m*3 5.53 C 0 km/h
282 08-03-2003 09:00:00 6.73333 C 4.94 g/m*3 6.73 C 0 km/h
283 08-03-2003 10:00:00 7.75 C 4.91 g/m*3 7.75 C 0 km/h
284 08-03-2003 11:00:00 8.3 C 4.89 g/m*3 8.3 C 0 km/h
285 08-03-2003 12:00:00 8.6 C 4.84 g/m*3 8.6 C 0 km/h
286 08-03-2003 13:00:00 10.35 C 4.53 g/m*3 10.35 C 0 km/h
287 08-03-2003 14:00:00 12 C 4.56 g/m*3 12 C 0 km/h
288 08-03-2003 15:00:00 11.54 C 4.47 g/m*3 11.54 C 0 km/h
289 08-03-2003 16:00:00 11.43333 C 4.34 g/m*3 11.43 C 0 km/h
290 08-03-2003 17:00:00 10.91667 C 4.35 g/m*3 10.92 C 0 km/h
291 08-03-2003 18:00:00 9.85 C 4.51 g/m*3 9.85 C 0 km/h
292 08-03-2003 19:00:00 9.14 C 4.59 g/m*3 9.14 C 0 km/h
293 08-03-2003 20:00:00 8.92 C 4.77 g/m*3 8.92 C 0 km/h
294 08-03-2003 21:00:00 8.8 C 4.81 g/m*3 8.8 C 0 km/h
295 08-03-2003 22:00:00 8.72 C 4.87 g/m*3 8.72 C 0 km/h
296 08-03-2003 23:00:00 8.96 C 4.89 g/m*3 8.96 C 0 km/h
297 09-03-2003 00:00:00 9 C 4.87 g/m*3 9 C 0 km/h
298 09-03-2003 01:00:00 8.34 C 5.19 g/m*3 8.34 C 0 km/h
299 09-03-2003 02:00:00 7.74 C 5.45 g/m*3 7.74 C 0 km/h
300 09-03-2003 03:00:00 8 C 5.27 g/m*3 8 C 0 km/h
Sensor: Nr:Datum:Temp:Abs-Feuchte:Windchill:Wind:
Aussen-T/F 301 09-03-2003 04:00:00 7.96 C 5.15 g/m*3 7.96 C 0 km/h
302 09-03-2003 05:00:00 7.4 C 5.19 g/m*3 7.4 C 0 km/h
303 09-03-2003 06:00:00 6.88 C 5.34 g/m*3 6.88 C 0 km/h
304 09-03-2003 07:00:00 7.08 C 5.28 g/m*3 7.08 C 0 km/h
305 09-03-2003 08:00:00 7.88 C 5.22 g/m*3 7.88 C 0 km/h
306 09-03-2003 09:00:00 8.66 C 5.21 g/m*3 8.66 C 0 km/h
307 09-03-2003 10:00:00 9.4 C 5.28 g/m*3 9.4 C 0 km/h
308 09-03-2003 11:00:00 9.5 C 5.28 g/m*3 9.5 C 0 km/h
309 09-03-2003 12:00:00 9.5 C 5.28 g/m*3 9.5 C 0 km/h
310 09-03-2003 13:00:00 9.5 C 5.28 g/m*3 9.5 C 0 km/h
311 09-03-2003 14:00:00 12.02 C 5.29 g/m*3 12.02 C 0 km/h
312 09-03-2003 15:00:00 15.94 C 4.91 g/m*3 15.94 C 0 km/h
313 09-03-2003 16:00:00 17 C 4.77 g/m*3 17 C 0 km/h
314 09-03-2003 19:00:00 12.275 C 5.23 g/m*3 12.28 C 0 km/h
315 09-03-2003 20:00:00 13.08 C 5.06 g/m*3 13.08 C 0 km/h
316 09-03-2003 21:00:00 12.22 C 5.32 g/m*3 12.22 C 0 km/h
317 09-03-2003 22:00:00 11.2 C 5.45 g/m*3 11.2 C 0 km/h
318 09-03-2003 23:00:00 10.1 C 5.56 g/m*3 10.1 C 0 km/h
319 10-03-2003 00:00:00 8.62 C 5.51 g/m*3 8.62 C 0 km/h
320 10-03-2003 01:00:00 7.38 C 5.42 g/m*3 7.38 C 0 km/h
321 10-03-2003 02:00:00 5.86 C 5.32 g/m*3 5.86 C 0 km/h
322 10-03-2003 03:00:00 4.52 C 5.23 g/m*3 4.52 C 0 km/h
323 10-03-2003 04:00:00 5.16 C 5.23 g/m*3 5.16 C 0 km/h
324 10-03-2003 05:00:00 4.32 C 5.12 g/m*3 4.32 C 0 km/h
325 10-03-2003 06:00:00 5.32 C 5.09 g/m*3 5.32 C 0 km/h
Sensor: Nr:Datum:Temp:Abs-Feuchte:Windchill:Wind:
Aussen-T/F 326 10-03-2003 07:00:00 4.7 C 4.98 g/m*3 4.7 C 0 km/h
327 10-03-2003 08:00:00 4.8 C 5.02 g/m*3 4.8 C 0 km/h
328 10-03-2003 09:00:00 6.6 C 5.36 g/m*3 6.6 C 0 km/h
329 10-03-2003 10:00:00 10.24 C 5.74 g/m*3 10.24 C 0 km/h
330 10-03-2003 11:00:00 12.94 C 5.81 g/m*3 12.94 C 0 km/h
331 10-03-2003 12:00:00 15.36 C 5.61 g/m*3 15.36 C 0 km/h
332 10-03-2003 13:00:00 16.48 C 5.69 g/m*3 16.48 C 0 km/h
333 10-03-2003 14:00:00 17.22 C 5.95 g/m*3 17.22 C 0 km/h
334 10-03-2003 15:00:00 16.76 C 5.99 g/m*3 16.76 C 0 km/h
335 10-03-2003 16:00:00 16.7 C 6.05 g/m*3 16.7 C 0 km/h
336 10-03-2003 17:00:00 16.26 C 6.2 g/m*3 16.26 C 0 km/h
337 10-03-2003 18:00:00 14.38 C 6.57 g/m*3 14.38 C 0 km/h
338 10-03-2003 19:00:00 13 C 6.85 g/m*3 13 C 0 km/h
339 10-03-2003 20:00:00 12.38 C 6.96 g/m*3 12.38 C 0 km/h
340 10-03-2003 21:00:00 11.64 C 7.02 g/m*3 11.64 C 0 km/h
341 10-03-2003 22:00:00 11.04 C 6.96 g/m*3 11.04 C 0 km/h
342 10-03-2003 23:00:00 10.78 C 7.07 g/m*3 10.78 C 0 km/h
343 11-03-2003 00:00:00 10.54 C 7.02 g/m*3 10.54 C 0 km/h
344 11-03-2003 01:00:00 9.98 C 6.96 g/m*3 9.98 C 0 km/h
345 11-03-2003 02:00:00 9.66 C 7.01 g/m*3 9.66 C 0 km/h
346 11-03-2003 03:00:00 9.12 C 6.82 g/m*3 9.12 C 0 km/h
347 11-03-2003 04:00:00 8.94 C 6.87 g/m*3 8.94 C 0 km/h
348 11-03-2003 05:00:00 9.14 C 6.99 g/m*3 9.14 C 0 km/h
349 11-03-2003 06:00:00 9.46 C 7.06 g/m*3 9.46 C 0 km/h
350 11-03-2003 07:00:00 8.96 C 7.09 g/m*3 8.96 C 0 km/h
Sensor: Nr:Datum:Temp:Abs-Feuchte:Windchill:Wind:
Aussen-T/F 351 11-03-2003 08:00:00 9.6 C 7.13 g/m*3 9.6 C 0 km/h
352 11-03-2003 09:00:00 10.5 C 7.16 g/m*3 10.5 C 0 km/h
353 11-03-2003 10:00:00 12.38 C 7.18 g/m*3 12.38 C 0 km/h
354 11-03-2003 11:00:00 14.88 C 5.75 g/m*3 14.88 C 0 km/h
355 11-03-2003 12:00:00 16.16 C 5.15 g/m*3 16.16 C 0 km/h
356 11-03-2003 13:00:00 16.6 C 5.57 g/m*3 16.6 C 0 km/h
357 11-03-2003 14:00:00 16.32 C 6.17 g/m*3 16.32 C 0 km/h
358 11-03-2003 15:00:00 16.24 C 6.39 g/m*3 16.24 C 0 km/h
359 11-03-2003 16:00:00 15.74 C 6.6 g/m*3 15.74 C 0 km/h
360 11-03-2003 17:00:00 14.3 C 7.42 g/m*3 14.3 C 0 km/h
361 11-03-2003 18:00:00 13.34 C 7.48 g/m*3 13.34 C 0 km/h
362 11-03-2003 19:00:00 13.22 C 7.29 g/m*3 13.22 C 0 km/h
363 11-03-2003 20:00:00 12.26 C 7.32 g/m*3 12.26 C 0 km/h
364 11-03-2003 21:00:00 11.88 C 7.15 g/m*3 11.88 C 0 km/h
365 11-03-2003 22:00:00 13.14 C 6.7 g/m*3 13.14 C 0 km/h
366 11-03-2003 23:00:00 13.12 C 6.54 g/m*3 13.12 C 0 km/h
367 12-03-2003 00:00:00 12.04 C 7.61 g/m*3 12.04 C 0 km/h
368 12-03-2003 01:00:00 9.775 C 7.43 g/m*3 9.78 C 0 km/h
369 12-03-2003 02:00:00 8.6 C 6.87 g/m*3 8.6 C 0 km/h
370 12-03-2003 03:00:00 8.68 C 6.29 g/m*3 8.68 C 0 km/h
371 12-03-2003 04:00:00 9.1 C 5.86 g/m*3 9.1 C 0 km/h
372 12-03-2003 05:00:00 8.9 C 5.96 g/m*3 8.9 C 0 km/h
373 12-03-2003 06:00:00 8.64 C 6.08 g/m*3 8.64 C 0 km/h
374 12-03-2003 07:00:00 8.66 C 6.21 g/m*3 8.66 C 0 km/h
375 12-03-2003 08:00:00 8.98 C 6.22 g/m*3 8.98 C 0 km/h
Sensor: Nr:Datum:Temp:Abs-Feuchte:Windchill:Wind:
Aussen-T/F 376 12-03-2003 09:00:00 9.68 C 5.82 g/m*3 9.68 C 0 km/h
377 12-03-2003 10:00:00 9.92 C 5.33 g/m*3 9.92 C 0 km/h
378 12-03-2003 11:00:00 10 C 5.64 g/m*3 10 C 0 km/h
379 12-03-2003 12:00:00 9.86 C 5.64 g/m*3 9.86 C 0 km/h
380 12-03-2003 13:00:00 9.68 C 5.41 g/m*3 9.68 C 0 km/h
381 12-03-2003 14:00:00 9.9 C 5.27 g/m*3 9.9 C 0 km/h
382 12-03-2003 15:00:00 9.94 C 5 g/m*3 9.94 C 0 km/h
383 12-03-2003 16:00:00 9.34 C 5.37 g/m*3 9.34 C 0 km/h
384 12-03-2003 18:00:00 8.8 C 5.86 g/m*3 8.8 C 0 km/h
385 12-03-2003 19:00:00 8.36667 C 6.07 g/m*3 8.37 C 0 km/h
386 12-03-2003 20:00:00 8.28 C 6.08 g/m*3 8.28 C 0 km/h
387 12-03-2003 21:00:00 8.2 C 5.54 g/m*3 8.2 C 0 km/h
388 12-03-2003 22:00:00 7.9 C 5.48 g/m*3 7.9 C 0 km/h
389 12-03-2003 23:00:00 7.66 C 5.45 g/m*3 7.66 C 0 km/h
390 13-03-2003 00:00:00 7.5 C 5.46 g/m*3 7.5 C 0 km/h
391 13-03-2003 01:00:00 7.32 C 5.62 g/m*3 7.32 C 0 km/h
392 13-03-2003 02:00:00 7.06 C 5.68 g/m*3 7.06 C 0 km/h
393 13-03-2003 03:00:00 6.84 C 5.66 g/m*3 6.84 C 0 km/h
394 13-03-2003 04:00:00 5.58 C 5.42 g/m*3 5.58 C 0 km/h
395 13-03-2003 05:00:00 4.5 C 5.36 g/m*3 4.5 C 0 km/h
396 13-03-2003 06:00:00 3.58 C 5.09 g/m*3 3.58 C 0 km/h
397 13-03-2003 07:00:00 2.82 C 4.88 g/m*3 2.82 C 0 km/h
398 13-03-2003 08:00:00 3.14 C 4.71 g/m*3 3.14 C 0 km/h
399 13-03-2003 09:00:00 4.84 C 4.16 g/m*3 4.84 C 0 km/h
400 13-03-2003 10:00:00 6.58 C 3.56 g/m*3 6.58 C 0 km/h
Sensor: Nr:Datum:Temp:Abs-Feuchte:Windchill:Wind:
Aussen-T/F 401 13-03-2003 11:00:00 8.08 C 3.47 g/m*3 8.08 C 0 km/h
402 13-03-2003 12:00:00 9.88 C 3.26 g/m*3 9.88 C 0 km/h
403 13-03-2003 13:00:00 11.3 C 3.16 g/m*3 11.3 C 0 km/h
404 13-03-2003 14:00:00 12.74 C 2.9 g/m*3 12.74 C 0 km/h
405 13-03-2003 15:00:00 13.78 C 2.57 g/m*3 13.78 C 0 km/h
406 13-03-2003 16:00:00 14.64 C 2.53 g/m*3 14.64 C 0 km/h
407 13-03-2003 17:00:00 14.16 C 2.44 g/m*3 14.16 C 0 km/h
408 13-03-2003 18:00:00 10.26 C 2.87 g/m*3 10.26 C 0 km/h
409 13-03-2003 19:00:00 7.08 C 3.47 g/m*3 7.08 C 0 km/h
410 13-03-2003 20:00:00 5.64 C 3.69 g/m*3 5.64 C 0 km/h
411 13-03-2003 21:00:00 4.72 C 3.7 g/m*3 4.72 C 0 km/h
412 13-03-2003 22:00:00 3.62 C 3.67 g/m*3 3.62 C 0 km/h
413 13-03-2003 23:00:00 2.64 C 3.76 g/m*3 2.64 C 0 km/h
414 14-03-2003 00:00:00 1.8 C 3.68 g/m*3 1.8 C 0 km/h
415 14-03-2003 01:00:00 1.38 C 3.36 g/m*3 1.38 C 0 km/h
416 14-03-2003 02:00:00 1.08 C 3.04 g/m*3 1.08 C 0 km/h
417 14-03-2003 03:00:00 0.38 C 3.18 g/m*3 0.38 C 0 km/h
418 14-03-2003 04:00:00 -0.24 C 3.26 g/m*3 -0.24 C 0 km/h
419 14-03-2003 05:00:00 -1.02 C 3.17 g/m*3 -1.02 C 0 km/h
420 14-03-2003 06:00:00 -1.54 C 3.14 g/m*3 -1.54 C 0 km/h
421 14-03-2003 07:00:00 -2 C 3.2 g/m*3 -2 C 0 km/h
422 14-03-2003 08:00:00 -1.26 C 3.29 g/m*3 -1.26 C 0 km/h
423 14-03-2003 09:00:00 0.92 C 3.36 g/m*3 0.92 C 0 km/h
424 14-03-2003 10:00:00 4.5 C 3.31 g/m*3 4.5 C 0 km/h
425 14-03-2003 11:00:00 7.7 C 3.13 g/m*3 7.7 C 0 km/h
Sensor: Nr:Datum:Temp:Abs-Feuchte:Windchill:Wind:
Aussen-T/F 426 14-03-2003 12:00:00 10.26 C 3 g/m*3 10.26 C 0 km/h
427 14-03-2003 13:00:00 11.48 C 3.07 g/m*3 11.48 C 0 km/h
428 14-03-2003 14:00:00 13 C 2.99 g/m*3 13 C 0 km/h
429 14-03-2003 15:00:00 13.68 C 2.86 g/m*3 13.68 C 0 km/h
430 14-03-2003 16:00:00 13.16 C 2.91 g/m*3 13.16 C 0 km/h
431 14-03-2003 17:00:00 11.48 C 3.18 g/m*3 11.48 C 0 km/h
432 14-03-2003 18:00:00 8.34 C 3.38 g/m*3 8.34 C 0 km/h
433 14-03-2003 19:00:00 5.84 C 3.53 g/m*3 5.84 C 0 km/h
434 14-03-2003 20:00:00 4.16 C 3.59 g/m*3 4.16 C 0 km/h
435 14-03-2003 21:00:00 3.6 C 3.62 g/m*3 3.6 C 0 km/h
436 14-03-2003 22:00:00 3.82 C 3.51 g/m*3 3.82 C 0 km/h
437 14-03-2003 23:00:00 3.34 C 3.38 g/m*3 3.34 C 0 km/h
438 15-03-2003 00:00:00 1.94 C 3.39 g/m*3 1.94 C 0 km/h
439 15-03-2003 01:00:00 1.4 C 3.44 g/m*3 1.4 C 0 km/h
440 15-03-2003 02:00:00 0.96 C 3.55 g/m*3 0.96 C 0 km/h
441 15-03-2003 03:00:00 0.42 C 3.56 g/m*3 0.42 C 0 km/h
442 15-03-2003 04:00:00 -0.06 C 3.5 g/m*3 -0.06 C 0 km/h
443 15-03-2003 05:00:00 -0.42 C 3.44 g/m*3 -0.42 C 0 km/h
444 15-03-2003 06:00:00 -0.3 C 3.4 g/m*3 -0.3 C 0 km/h
445 15-03-2003 07:00:00 -0.26 C 3.42 g/m*3 -0.26 C 0 km/h
446 15-03-2003 08:00:00 0.5 C 3.6 g/m*3 0.5 C 0 km/h
447 15-03-2003 09:00:00 2.8 C 3.74 g/m*3 2.8 C 0 km/h
448 15-03-2003 10:00:00 5.06 C 3.7 g/m*3 5.06 C 0 km/h
449 15-03-2003 11:00:00 8.08 C 3.64 g/m*3 8.08 C 0 km/h
450 15-03-2003 12:00:00 10.2 C 3.35 g/m*3 10.2 C 0 km/h
Sensor: Nr:Datum:Temp:Abs-Feuchte:Windchill:Wind:
Aussen-T/F 451 15-03-2003 13:00:00 10.4 C 3.47 g/m*3 10.4 C 0 km/h
452 15-03-2003 14:00:00 12 C 3.54 g/m*3 12 C 0 km/h
453 15-03-2003 15:00:00 13.3 C 3.44 g/m*3 13.3 C 0 km/h
454 15-03-2003 16:00:00 13.22 C 3.36 g/m*3 13.22 C 0 km/h
455 15-03-2003 17:00:00 11.96 C 3.53 g/m*3 11.96 C 0 km/h
456 15-03-2003 18:00:00 9.04 C 3.85 g/m*3 9.04 C 0 km/h
457 15-03-2003 19:00:00 6.58 C 4.01 g/m*3 6.58 C 0 km/h
458 15-03-2003 20:00:00 5.32 C 4.09 g/m*3 5.32 C 0 km/h
459 15-03-2003 21:00:00 4.34 C 4.02 g/m*3 4.34 C 0 km/h
460 15-03-2003 22:00:00 3.24 C 3.86 g/m*3 3.24 C 0 km/h
461 15-03-2003 23:00:00 2.24 C 3.66 g/m*3 2.24 C 0 km/h
462 16-03-2003 00:00:00 1.94 C 3.62 g/m*3 1.94 C 0 km/h
463 16-03-2003 01:00:00 1.16 C 3.63 g/m*3 1.16 C 0 km/h
464 16-03-2003 02:00:00 0.02 C 3.58 g/m*3 0.02 C 0 km/h
465 16-03-2003 03:00:00 -0.6 C 3.5 g/m*3 -0.6 C 0 km/h
466 16-03-2003 04:00:00 -1.42 C 3.37 g/m*3 -1.42 C 0 km/h
467 16-03-2003 05:00:00 -1.82 C 3.36 g/m*3 -1.82 C 0 km/h
468 16-03-2003 06:00:00 -1.98 C 3.4 g/m*3 -1.98 C 0 km/h
469 16-03-2003 07:00:00 -2.04 C 3.42 g/m*3 -2.04 C 0 km/h
470 16-03-2003 08:00:00 -1.52 C 3.57 g/m*3 -1.52 C 0 km/h
471 16-03-2003 09:00:00 0.92 C 3.95 g/m*3 0.92 C 0 km/h
472 16-03-2003 10:00:00 4.96 C 4.01 g/m*3 4.96 C 0 km/h
473 16-03-2003 11:00:00 8.24 C 3.53 g/m*3 8.24 C 0 km/h
474 16-03-2003 12:00:00 10.88 C 3.32 g/m*3 10.88 C 0 km/h
475 16-03-2003 13:00:00 12.26 C 3.51 g/m*3 12.26 C 0 km/h
Sensor: Nr:Datum:Temp:Abs-Feuchte:Windchill:Wind:
Aussen-T/F 476 16-03-2003 14:00:00 14.14 C 3.46 g/m*3 14.14 C 0 km/h
477 16-03-2003 15:00:00 15.9 C 3.36 g/m*3 15.9 C 0 km/h
478 16-03-2003 16:00:00 16.32 C 3.22 g/m*3 16.32 C 0 km/h
479 16-03-2003 17:00:00 15.64 C 3.57 g/m*3 15.64 C 0 km/h
480 16-03-2003 18:00:00 11.6 C 4.01 g/m*3 11.6 C 0 km/h
481 16-03-2003 19:00:00 8.14 C 4.07 g/m*3 8.14 C 0 km/h
482 16-03-2003 20:00:00 6.5 C 4.23 g/m*3 6.5 C 0 km/h
483 16-03-2003 21:00:00 5.14 C 4.24 g/m*3 5.14 C 0 km/h
484 16-03-2003 22:00:00 3.74 C 4.25 g/m*3 3.74 C 0 km/h
485 16-03-2003 23:00:00 3.06 C 4.2 g/m*3 3.06 C 0 km/h
486 17-03-2003 00:00:00 2.1 C 4.12 g/m*3 2.1 C 0 km/h
487 17-03-2003 01:00:00 1.08 C 4.06 g/m*3 1.08 C 0 km/h
488 17-03-2003 02:00:00 0.42 C 4.04 g/m*3 0.42 C 0 km/h
489 17-03-2003 03:00:00 -0.2 C 3.96 g/m*3 -0.2 C 0 km/h
490 17-03-2003 04:00:00 -0.38 C 3.95 g/m*3 -0.38 C 0 km/h
491 17-03-2003 05:00:00 -0.9 C 3.86 g/m*3 -0.9 C 0 km/h
492 17-03-2003 06:00:00 -1.14 C 3.85 g/m*3 -1.14 C 0 km/h
493 17-03-2003 07:00:00 -0.86 C 3.93 g/m*3 -0.86 C 0 km/h
494 17-03-2003 08:00:00 0.12 C 4.05 g/m*3 0.12 C 0 km/h
495 17-03-2003 09:00:00 1.54 C 4.21 g/m*3 1.54 C 0 km/h
496 17-03-2003 10:00:00 4.72 C 4.44 g/m*3 4.72 C 0 km/h
497 17-03-2003 11:00:00 7.78333 C 4.44 g/m*3 7.78 C 0 km/h
498 17-03-2003 12:00:00 10.92 C 4.16 g/m*3 10.92 C 0 km/h
499 17-03-2003 13:00:00 11.9 C 3.79 g/m*3 11.9 C 0 km/h
500 17-03-2003 14:00:00 14 C 3.14 g/m*3 14 C 0 km/h
Sensor: Nr:Datum:Temp:Abs-Feuchte:Windchill:Wind:
Aussen-T/F 501 17-03-2003 15:00:00 14.74 C 2.98 g/m*3 14.74 C 0 km/h
502 17-03-2003 16:00:00 14.38 C 3.04 g/m*3 14.38 C 0 km/h
503 17-03-2003 17:00:00 12.9 C 3.29 g/m*3 12.9 C 0 km/h
504 17-03-2003 18:00:00 9.76 C 4.13 g/m*3 9.76 C 0 km/h
505 17-03-2003 19:00:00 7.52 C 4.42 g/m*3 7.52 C 0 km/h
506 17-03-2003 20:00:00 5.04 C 4.25 g/m*3 5.04 C 0 km/h
507 17-03-2003 21:00:00 3.52 C 4.13 g/m*3 3.52 C 0 km/h
508 17-03-2003 22:00:00 3.44 C 4.14 g/m*3 3.44 C 0 km/h
509 17-03-2003 23:00:00 2.56 C 4.1 g/m*3 2.56 C 0 km/h
510 18-03-2003 00:00:00 1.46 C 4.01 g/m*3 1.46 C 0 km/h
511 18-03-2003 01:00:00 0.58 C 3.97 g/m*3 0.58 C 0 km/h
512 18-03-2003 02:00:00 0.02 C 3.94 g/m*3 0.02 C 0 km/h
513 18-03-2003 03:00:00 -0.5 C 3.9 g/m*3 -0.5 C 0 km/h
514 18-03-2003 04:00:00 -1.12 C 3.79 g/m*3 -1.12 C 0 km/h
515 18-03-2003 05:00:00 -1.73333 C 3.67 g/m*3 -1.73 C 0 km/h
516 18-03-2003 06:00:00 -1.8 C 3.71 g/m*3 -1.8 C 0 km/h
517 18-03-2003 07:00:00 -1.62 C 3.8 g/m*3 -1.62 C 0 km/h
518 18-03-2003 08:00:00 -0.78 C 4.04 g/m*3 -0.78 C 0 km/h
519 18-03-2003 09:00:00 1.34 C 4.55 g/m*3 1.34 C 0 km/h
520 18-03-2003 10:00:00 4.88 C 4.8 g/m*3 4.88 C 0 km/h
521 18-03-2003 11:00:00 8.3 C 4.59 g/m*3 8.3 C 0 km/h
522 18-03-2003 12:00:00 11.32 C 4.25 g/m*3 11.32 C 0 km/h
523 18-03-2003 13:00:00 13.34 C 4.03 g/m*3 13.34 C 0 km/h
524 18-03-2003 14:00:00 15.68 C 3.82 g/m*3 15.68 C 0 km/h
525 18-03-2003 15:00:00 17.06 C 3.11 g/m*3 17.06 C 0 km/h
Sensor: Nr:Datum:Temp:Abs-Feuchte:Windchill:Wind:
Aussen-T/F 526 18-03-2003 16:00:00 18.14 C 3.16 g/m*3 18.14 C 0 km/h
527 18-03-2003 17:00:00 17.22 C 3.55 g/m*3 17.22 C 0 km/h
528 18-03-2003 18:00:00 11.1 C 4.13 g/m*3 11.1 C 0 km/h
529 18-03-2003 19:00:00 8.88 C 4.22 g/m*3 8.88 C 0 km/h
530 18-03-2003 20:00:00 7.325 C 4.29 g/m*3 7.33 C 0 km/h
531 18-03-2003 21:00:00 6.04 C 4.24 g/m*3 6.04 C 0 km/h
532 18-03-2003 22:00:00 4.88 C 4.26 g/m*3 4.88 C 0 km/h
533 18-03-2003 23:00:00 3.86 C 4.26 g/m*3 3.86 C 0 km/h
534 19-03-2003 00:00:00 2.72 C 4.24 g/m*3 2.72 C 0 km/h
535 19-03-2003 01:00:00 1.84 C 4.21 g/m*3 1.84 C 0 km/h
536 19-03-2003 02:00:00 1.14 C 4.19 g/m*3 1.14 C 0 km/h
537 19-03-2003 03:00:00 0.54 C 4.12 g/m*3 0.54 C 0 km/h
538 19-03-2003 04:00:00 -0.14 C 4.04 g/m*3 -0.14 C 0 km/h
539 19-03-2003 05:00:00 -0.7 C 3.95 g/m*3 -0.7 C 0 km/h
540 19-03-2003 06:00:00 -1.1 C 3.92 g/m*3 -1.1 C 0 km/h
541 19-03-2003 07:00:00 -0.92 C 4 g/m*3 -0.92 C 0 km/h
542 19-03-2003 08:00:00 -0.125 C 4.25 g/m*3 -0.13 C 0 km/h
543 19-03-2003 09:00:00 2.86 C 4.83 g/m*3 2.86 C 0 km/h
544 19-03-2003 10:00:00 6.46 C 4.98 g/m*3 6.46 C 0 km/h
545 19-03-2003 11:00:00 9.92 C 4.84 g/m*3 9.92 C 0 km/h
546 19-03-2003 12:00:00 13.1 C 4.47 g/m*3 13.1 C 0 km/h
547 19-03-2003 13:00:00 14.18 C 4.44 g/m*3 14.18 C 0 km/h
548 19-03-2003 14:00:00 15.14 C 3.93 g/m*3 15.14 C 0 km/h
549 19-03-2003 15:00:00 16.16 C 3.77 g/m*3 16.16 C 0 km/h
550 19-03-2003 16:00:00 15.68 C 3.9 g/m*3 15.68 C 0 km/h
Sensor: Nr:Datum:Temp:Abs-Feuchte:Windchill:Wind:
Aussen-T/F 551 19-03-2003 17:00:00 14.24 C 3.87 g/m*3 14.24 C 0 km/h
552 19-03-2003 18:00:00 12.28 C 4.06 g/m*3 12.28 C 0 km/h
553 19-03-2003 19:00:00 10.06 C 4.17 g/m*3 10.06 C 0 km/h
554 19-03-2003 20:00:00 8.38 C 4.12 g/m*3 8.38 C 0 km/h
555 19-03-2003 21:00:00 7.36 C 4.49 g/m*3 7.36 C 0 km/h
556 19-03-2003 22:00:00 6.04 C 4.66 g/m*3 6.04 C 0 km/h
557 19-03-2003 23:00:00 4.9 C 4.77 g/m*3 4.9 C 0 km/h
558 20-03-2003 00:00:00 4.06 C 4.79 g/m*3 4.06 C 0 km/h
559 20-03-2003 01:00:00 2.82 C 4.72 g/m*3 2.82 C 0 km/h
560 20-03-2003 02:00:00 3.18 C 4.77 g/m*3 3.18 C 0 km/h
561 20-03-2003 03:00:00 3.28 C 4.73 g/m*3 3.28 C 0 km/h
562 20-03-2003 04:00:00 3.58 C 4.85 g/m*3 3.58 C 0 km/h
563 20-03-2003 05:00:00 4.18 C 4.94 g/m*3 4.18 C 0 km/h
564 20-03-2003 06:00:00 4.04 C 4.77 g/m*3 4.04 C 0 km/h
565 20-03-2003 07:00:00 4.02 C 4.77 g/m*3 4.02 C 0 km/h
566 20-03-2003 08:00:00 4.08 C 4.7 g/m*3 4.08 C 0 km/h
567 20-03-2003 09:00:00 4.2 C 4.61 g/m*3 4.2 C 0 km/h
568 20-03-2003 10:00:00 5.02 C 4.49 g/m*3 5.02 C 0 km/h
569 20-03-2003 11:00:00 5.96 C 4.3 g/m*3 5.96 C 0 km/h
570 20-03-2003 12:00:00 7.36 C 4.19 g/m*3 7.36 C 0 km/h
571 20-03-2003 13:00:00 9.04 C 4.4 g/m*3 9.04 C 0 km/h
572 20-03-2003 14:00:00 11.78 C 4.39 g/m*3 11.78 C 0 km/h
573 20-03-2003 15:00:00 12.62 C 4.16 g/m*3 12.62 C 0 km/h
574 20-03-2003 16:00:00 11.8 C 3.96 g/m*3 11.8 C 0 km/h
575 20-03-2003 17:00:00 10 C 4.19 g/m*3 10 C 0 km/h
Sensor: Nr:Datum:Temp:Abs-Feuchte:Windchill:Wind:
Aussen-T/F 576 20-03-2003 18:00:00 7.6 C 4.41 g/m*3 7.6 C 0 km/h
577 20-03-2003 19:00:00 6.02 C 4.55 g/m*3 6.02 C 0 km/h
578 20-03-2003 20:00:00 5.36 C 4.68 g/m*3 5.36 C 0 km/h
579 20-03-2003 21:00:00 4.44 C 4.73 g/m*3 4.44 C 0 km/h
580 20-03-2003 22:00:00 3.32 C 4.7 g/m*3 3.32 C 0 km/h
581 20-03-2003 23:00:00 2.18 C 4.48 g/m*3 2.18 C 0 km/h
582 21-03-2003 00:00:00 2 C 4.09 g/m*3 2 C 0 km/h
583 21-03-2003 01:00:00 0.78 C 4.04 g/m*3 0.78 C 0 km/h
584 21-03-2003 02:00:00 0.24 C 4 g/m*3 0.24 C 0 km/h
585 21-03-2003 03:00:00 0.02 C 4.01 g/m*3 0.02 C 0 km/h
586 21-03-2003 04:00:00 0.58 C 4.03 g/m*3 0.58 C 0 km/h
587 21-03-2003 05:00:00 0.76 C 3.99 g/m*3 0.76 C 0 km/h
588 21-03-2003 06:00:00 0.74 C 3.99 g/m*3 0.74 C 0 km/h
589 21-03-2003 07:00:00 1.22 C 4.01 g/m*3 1.22 C 0 km/h
590 21-03-2003 08:00:00 2.02 C 3.98 g/m*3 2.02 C 0 km/h
591 21-03-2003 09:00:00 3.18 C 3.98 g/m*3 3.18 C 0 km/h
592 21-03-2003 10:00:00 5.5 C 3.83 g/m*3 5.5 C 0 km/h
593 21-03-2003 11:00:00 7.75 C 3.66 g/m*3 7.75 C 0 km/h
594 21-03-2003 12:00:00 10.08 C 3.65 g/m*3 10.08 C 0 km/h
595 21-03-2003 13:00:00 11.4 C 3.72 g/m*3 11.4 C 0 km/h
596 21-03-2003 14:00:00 12.92 C 3.59 g/m*3 12.92 C 0 km/h
597 21-03-2003 15:00:00 13.6 C 3.53 g/m*3 13.6 C 0 km/h
598 21-03-2003 16:00:00 13.28 C 3.53 g/m*3 13.28 C 0 km/h
599 21-03-2003 17:00:00 12.06 C 3.57 g/m*3 12.06 C 0 km/h
600 21-03-2003 18:00:00 9.12 C 3.66 g/m*3 9.12 C 0 km/h
Sensor: Nr:Datum:Temp:Abs-Feuchte:Windchill:Wind:
Aussen-T/F 601 21-03-2003 19:00:00 6.26 C 3.77 g/m*3 6.26 C 0 km/h
602 21-03-2003 20:00:00 4.8 C 3.86 g/m*3 4.8 C 0 km/h
603 21-03-2003 21:00:00 3.82 C 3.91 g/m*3 3.82 C 0 km/h
604 21-03-2003 22:00:00 3.075 C 3.9 g/m*3 3.08 C 0 km/h
605 21-03-2003 23:00:00 2.34 C 3.91 g/m*3 2.34 C 0 km/h
606 22-03-2003 00:00:00 1.64 C 3.74 g/m*3 1.64 C 0 km/h
607 22-03-2003 01:00:00 1.26 C 3.54 g/m*3 1.26 C 0 km/h
608 22-03-2003 02:00:00 0.54 C 3.42 g/m*3 0.54 C 0 km/h
609 22-03-2003 03:00:00 -0.08 C 3.24 g/m*3 -0.08 C 0 km/h
610 22-03-2003 04:00:00 -0.86 C 3.12 g/m*3 -0.86 C 0 km/h
611 22-03-2003 05:00:00 -1.46 C 3.08 g/m*3 -1.46 C 0 km/h
612 22-03-2003 06:00:00 -1.98 C 3.03 g/m*3 -1.98 C 0 km/h
613 22-03-2003 07:00:00 -1.82 C 2.97 g/m*3 -1.82 C 0 km/h
614 22-03-2003 08:00:00 -0.98 C 2.97 g/m*3 -0.98 C 0 km/h
615 22-03-2003 09:00:00 1.96 C 2.87 g/m*3 1.96 C 0 km/h
616 22-03-2003 10:00:00 5.26 C 2.61 g/m*3 5.26 C 0 km/h
617 22-03-2003 11:00:00 8.6 C 2.06 g/m*3 8.6 C 0 km/h
618 22-03-2003 12:00:00 11.86 C 2.11 g/m*3 11.86 C 0 km/h
619 22-03-2003 13:00:00 13.06 C 2.28 g/m*3 13.06 C 0 km/h
620 22-03-2003 14:00:00 15.32 C 2.61 g/m*3 15.32 C 0 km/h
621 22-03-2003 15:00:00 17.6 C 3 g/m*3 17.6 C 0 km/h
622 22-03-2003 16:00:00 17.46 C 2.97 g/m*3 17.46 C 0 km/h
623 22-03-2003 17:00:00 16.72 C 2.85 g/m*3 16.72 C 0 km/h
624 22-03-2003 18:00:00 13.58 C 2.35 g/m*3 13.58 C 0 km/h
625 22-03-2003 19:00:00 9.38 C 1.81 g/m*3 9.38 C 0 km/h
Sensor: Nr:Datum:Temp:Abs-Feuchte:Windchill:Wind:
Aussen-T/F 626 22-03-2003 20:00:00 9.1 C 1.77 g/m*3 9.1 C 0 km/h
627 22-03-2003 21:00:00 7.48 C 1.93 g/m*3 7.48 C 0 km/h
628 22-03-2003 22:00:00 6.3 C 2 g/m*3 6.3 C 0 km/h
629 22-03-2003 23:00:00 6.3 C 2 g/m*3 6.3 C 0 km/h
630 23-03-2003 00:00:00 5.54 C 2.15 g/m*3 5.54 C 0 km/h
631 23-03-2003 01:00:00 1.9 C 2.49 g/m*3 1.9 C 0 km/h
632 23-03-2003 02:00:00 0.9 C 2.57 g/m*3 0.9 C 0 km/h
633 23-03-2003 03:00:00 0.22 C 2.53 g/m*3 0.22 C 0 km/h
634 23-03-2003 04:00:00 -0.6 C 2.6 g/m*3 -0.6 C 0 km/h
635 23-03-2003 05:00:00 -1.14 C 2.72 g/m*3 -1.14 C 0 km/h
636 23-03-2003 06:00:00 -1.72 C 2.71 g/m*3 -1.72 C 0 km/h
637 23-03-2003 07:00:00 -2 C 2.68 g/m*3 -2 C 0 km/h
638 23-03-2003 08:00:00 -1.44 C 2.71 g/m*3 -1.44 C 0 km/h
639 23-03-2003 09:00:00 2.06 C 2.86 g/m*3 2.06 C 0 km/h
640 23-03-2003 10:00:00 6.64 C 2.75 g/m*3 6.64 C 0 km/h
641 23-03-2003 11:00:00 10.92 C 2.11 g/m*3 10.92 C 0 km/h
642 23-03-2003 12:00:00 14.7 C 2.52 g/m*3 14.7 C 0 km/h
643 23-03-2003 13:00:00 16.32 C 2.78 g/m*3 16.32 C 0 km/h
644 23-03-2003 14:00:00 18.05 C 3.08 g/m*3 18.05 C 0 km/h
645 23-03-2003 15:00:00 20.48 C 3.55 g/m*3 20.48 C 0 km/h
646 23-03-2003 16:00:00 20.92 C 3.65 g/m*3 20.92 C 0 km/h
647 23-03-2003 17:00:00 19.9 C 3.44 g/m*3 19.9 C 0 km/h
648 23-03-2003 18:00:00 16.34 C 2.78 g/m*3 16.34 C 0 km/h
649 23-03-2003 19:00:00 12 C 2.13 g/m*3 12 C 0 km/h
650 23-03-2003 20:00:00 9.94 C 2.36 g/m*3 9.94 C 0 km/h
Sensor: Nr:Datum:Temp:Abs-Feuchte:Windchill:Wind:
Aussen-T/F 651 23-03-2003 21:00:00 7.92 C 2.91 g/m*3 7.92 C 0 km/h
652 23-03-2003 22:00:00 6.12 C 3.03 g/m*3 6.12 C 0 km/h
653 23-03-2003 23:00:00 5.08 C 3.05 g/m*3 5.08 C 0 km/h
654 24-03-2003 00:00:00 3.96 C 3.02 g/m*3 3.96 C 0 km/h
655 24-03-2003 01:00:00 2.7 C 3.1 g/m*3 2.7 C 0 km/h
656 24-03-2003 02:00:00 1.98 C 3.13 g/m*3 1.98 C 0 km/h
657 24-03-2003 03:00:00 1.06 C 3.17 g/m*3 1.06 C 0 km/h
658 24-03-2003 04:00:00 0.62 C 3.27 g/m*3 0.62 C 0 km/h
659 24-03-2003 05:00:00 -0.24 C 3.21 g/m*3 -0.24 C 0 km/h
660 24-03-2003 06:00:00 -0.66 C 3.18 g/m*3 -0.66 C 0 km/h
661 24-03-2003 07:00:00 -0.46 C 3.29 g/m*3 -0.46 C 0 km/h
662 24-03-2003 08:00:00 0.5 C 3.42 g/m*3 0.5 C 0 km/h
663 24-03-2003 09:00:00 3.9 C 3.51 g/m*3 3.9 C 0 km/h
664 24-03-2003 10:00:00 8.22 C 3.72 g/m*3 8.22 C 0 km/h
665 24-03-2003 11:00:00 13.48 C 3.88 g/m*3 13.48 C 0 km/h
666 24-03-2003 12:00:00 18.12 C 3.81 g/m*3 18.12 C 0 km/h
667 24-03-2003 13:00:00 19.42 C 3.51 g/m*3 19.42 C 0 km/h
668 24-03-2003 14:00:00 20.62 C 3.62 g/m*3 20.62 C 0 km/h
669 24-03-2003 15:00:00 21.6 C 3.79 g/m*3 21.6 C 0 km/h
670 24-03-2003 16:00:00 21.7 C 3.82 g/m*3 21.7 C 0 km/h
671 24-03-2003 17:00:00 21.06 C 3.71 g/m*3 21.06 C 0 km/h
672 24-03-2003 18:00:00 18.24 C 4.36 g/m*3 18.24 C 0 km/h
673 24-03-2003 19:00:00 15.46 C 4.64 g/m*3 15.46 C 0 km/h
674 24-03-2003 20:00:00 13.7 C 4.86 g/m*3 13.7 C 0 km/h
675 24-03-2003 21:00:00 12.26 C 4.87 g/m*3 12.26 C 0 km/h
Sensor: Nr:Datum:Temp:Abs-Feuchte:Windchill:Wind:
Aussen-T/F 676 24-03-2003 22:00:00 11.04 C 4.88 g/m*3 11.04 C 0 km/h
677 24-03-2003 23:00:00 9.54 C 4.98 g/m*3 9.54 C 0 km/h
678 25-03-2003 00:00:00 8.52 C 4.99 g/m*3 8.52 C 0 km/h
679 25-03-2003 01:00:00 7.66 C 5.13 g/m*3 7.66 C 0 km/h
680 25-03-2003 02:00:00 7.84 C 5.11 g/m*3 7.84 C 0 km/h
681 25-03-2003 03:00:00 8.3 C 5.18 g/m*3 8.3 C 0 km/h
682 25-03-2003 04:00:00 8.12 C 5.22 g/m*3 8.12 C 0 km/h
683 25-03-2003 05:00:00 8.12 C 5.23 g/m*3 8.12 C 0 km/h
684 25-03-2003 06:00:00 7.98 C 5.32 g/m*3 7.98 C 0 km/h
685 25-03-2003 07:00:00 8.24 C 5.44 g/m*3 8.24 C 0 km/h
686 25-03-2003 08:00:00 9.1 C 5.52 g/m*3 9.1 C 0 km/h
687 25-03-2003 09:00:00 10.2 C 5.54 g/m*3 10.2 C 0 km/h
688 25-03-2003 10:00:00 12.68 C 5.67 g/m*3 12.68 C 0 km/h
689 25-03-2003 11:00:00 14.44 C 5.68 g/m*3 14.44 C 0 km/h
690 25-03-2003 12:00:00 14.18 C 6.1 g/m*3 14.18 C 0 km/h
691 25-03-2003 13:00:00 17.2 C 6.18 g/m*3 17.2 C 0 km/h
692 25-03-2003 14:00:00 21.04 C 6.28 g/m*3 21.04 C 0 km/h
693 25-03-2003 15:00:00 21.96 C 6.2 g/m*3 21.96 C 0 km/h
694 25-03-2003 16:00:00 19.84 C 6.47 g/m*3 19.84 C 0 km/h
695 25-03-2003 17:00:00 16.66 C 7.43 g/m*3 16.66 C 0 km/h
696 25-03-2003 18:00:00 14.925 C 8.36 g/m*3 14.93 C 0 km/h
697 25-03-2003 19:00:00 13.46 C 7.86 g/m*3 13.46 C 0 km/h
698 25-03-2003 20:00:00 13.14 C 7.64 g/m*3 13.14 C 0 km/h
699 25-03-2003 21:00:00 12.3 C 7.77 g/m*3 12.3 C 0 km/h
700 25-03-2003 22:00:00 11.98 C 8.41 g/m*3 11.98 C 0 km/h
Sensor: Nr:Datum:Temp:Abs-Feuchte:Windchill:Wind:
Aussen-T/F 701 25-03-2003 23:00:00 11.44 C 8.36 g/m*3 11.44 C 0 km/h
702 26-03-2003 00:00:00 10.7 C 7.9 g/m*3 10.7 C 0 km/h
703 26-03-2003 01:00:00 10.26 C 7.62 g/m*3 10.26 C 0 km/h
704 26-03-2003 02:00:00 9.68 C 7.73 g/m*3 9.68 C 0 km/h
705 26-03-2003 03:00:00 9.2 C 7.47 g/m*3 9.2 C 0 km/h
706 26-03-2003 04:00:00 8.74 C 7.47 g/m*3 8.74 C 0 km/h
707 26-03-2003 05:00:00 7.76 C 7.2 g/m*3 7.76 C 0 km/h
708 26-03-2003 06:00:00 7 C 7.19 g/m*3 7 C 0 km/h
709 26-03-2003 07:00:00 7.88 C 7.5 g/m*3 7.88 C 0 km/h
710 26-03-2003 08:00:00 8.98 C 7.5 g/m*3 8.98 C 0 km/h
711 26-03-2003 09:00:00 10.68 C 7.69 g/m*3 10.68 C 0 km/h
712 26-03-2003 10:00:00 12.4 C 7.69 g/m*3 12.4 C 0 km/h
713 26-03-2003 11:00:00 16.56 C 7.07 g/m*3 16.56 C 0 km/h
714 26-03-2003 12:00:00 18.72 C 7.02 g/m*3 18.72 C 0 km/h
715 26-03-2003 13:00:00 20.08 C 7.05 g/m*3 20.08 C 0 km/h
716 26-03-2003 14:00:00 19.78 C 6.93 g/m*3 19.78 C 0 km/h
717 26-03-2003 15:00:00 18.46 C 6.85 g/m*3 18.46 C 0 km/h
718 26-03-2003 16:00:00 16.64 C 7.53 g/m*3 16.64 C 0 km/h
719 26-03-2003 17:00:00 15.12 C 7.93 g/m*3 15.12 C 0 km/h
720 26-03-2003 18:00:00 13.28 C 7.45 g/m*3 13.28 C 0 km/h
721 26-03-2003 19:00:00 12.36 C 7.22 g/m*3 12.36 C 0 km/h
722 26-03-2003 20:00:00 12.22 C 7.37 g/m*3 12.22 C 0 km/h
723 26-03-2003 21:00:00 12 C 7.42 g/m*3 12 C 0 km/h
724 26-03-2003 22:00:00 11.38 C 7.36 g/m*3 11.38 C 0 km/h
725 26-03-2003 23:00:00 10.56 C 7.28 g/m*3 10.56 C 0 km/h
Sensor: Nr:Datum:Temp:Abs-Feuchte:Windchill:Wind:
Aussen-T/F 726 27-03-2003 00:00:00 9.44 C 7.2 g/m*3 9.44 C 0 km/h
727 27-03-2003 01:00:00 8.22 C 7.08 g/m*3 8.22 C 0 km/h
728 27-03-2003 02:00:00 7.32 C 6.98 g/m*3 7.32 C 0 km/h
729 27-03-2003 03:00:00 6.52 C 6.86 g/m*3 6.52 C 0 km/h
730 27-03-2003 04:00:00 6.6 C 7.11 g/m*3 6.6 C 0 km/h
731 27-03-2003 05:00:00 6.6 C 7.05 g/m*3 6.6 C 0 km/h
732 27-03-2003 06:00:00 6.2 C 6.84 g/m*3 6.2 C 0 km/h
733 27-03-2003 07:00:00 5.6 C 6.69 g/m*3 5.6 C 0 km/h
734 27-03-2003 08:00:00 6.22 C 6.85 g/m*3 6.22 C 0 km/h
735 27-03-2003 09:00:00 8.12 C 7.1 g/m*3 8.12 C 0 km/h
736 27-03-2003 10:00:00 11.24 C 7.42 g/m*3 11.24 C 0 km/h
737 27-03-2003 11:00:00 14.64 C 7.75 g/m*3 14.64 C 0 km/h
738 27-03-2003 12:00:00 18.44 C 7.5 g/m*3 18.44 C 0 km/h
739 27-03-2003 13:00:00 20.64 C 6.6 g/m*3 20.64 C 0 km/h
740 27-03-2003 14:00:00 22.84 C 5.7 g/m*3 22.84 C 0 km/h
741 27-03-2003 15:00:00 21.14 C 5.58 g/m*3 21.14 C 0 km/h
742 27-03-2003 16:00:00 20.06 C 6.04 g/m*3 20.06 C 0 km/h
743 27-03-2003 17:00:00 20.88 C 6.19 g/m*3 20.88 C 0 km/h
744 27-03-2003 18:00:00 18.2 C 6.31 g/m*3 18.2 C 0 km/h
745 27-03-2003 19:00:00 14.7 C 6.17 g/m*3 14.7 C 0 km/h
746 27-03-2003 20:00:00 12.92 C 6.3 g/m*3 12.92 C 0 km/h
747 27-03-2003 21:00:00 11.55 C 6.35 g/m*3 11.55 C 0 km/h
748 27-03-2003 22:00:00 10.3 C 6.34 g/m*3 10.3 C 0 km/h
749 27-03-2003 23:00:00 9.14 C 6.4 g/m*3 9.14 C 0 km/h
750 28-03-2003 00:00:00 8.12 C 6.33 g/m*3 8.12 C 0 km/h
Sensor: Nr:Datum:Temp:Abs-Feuchte:Windchill:Wind:
Aussen-T/F 751 28-03-2003 01:00:00 7.26 C 6.35 g/m*3 7.26 C 0 km/h
752 28-03-2003 02:00:00 6.64 C 6.34 g/m*3 6.64 C 0 km/h
753 28-03-2003 03:00:00 6 C 6.29 g/m*3 6 C 0 km/h
754 28-03-2003 04:00:00 5.18 C 6.07 g/m*3 5.18 C 0 km/h
755 28-03-2003 05:00:00 4.62 C 5.96 g/m*3 4.62 C 0 km/h
756 28-03-2003 06:00:00 4.28 C 5.88 g/m*3 4.28 C 0 km/h
757 28-03-2003 07:00:00 4.84 C 6.1 g/m*3 4.84 C 0 km/h
758 28-03-2003 08:00:00 5.34 C 6.34 g/m*3 5.34 C 0 km/h
759 28-03-2003 09:00:00 8.14 C 6.86 g/m*3 8.14 C 0 km/h
760 28-03-2003 10:00:00 12.36 C 7.04 g/m*3 12.36 C 0 km/h
761 28-03-2003 11:00:00 16.96 C 6.76 g/m*3 16.96 C 0 km/h
762 28-03-2003 12:00:00 20.9 C 6.52 g/m*3 20.9 C 0 km/h
763 28-03-2003 13:00:00 21.82 C 6.45 g/m*3 21.82 C 0 km/h
764 28-03-2003 14:00:00 23.64 C 5.16 g/m*3 23.64 C 0 km/h
765 28-03-2003 15:00:00 24.56 C 4.54 g/m*3 24.56 C 0 km/h
766 28-03-2003 16:00:00 23.98 C 4.48 g/m*3 23.98 C 0 km/h
767 28-03-2003 17:00:00 22.08 C 5.23 g/m*3 22.08 C 0 km/h
768 28-03-2003 18:00:00 18.72 C 6.25 g/m*3 18.72 C 0 km/h
769 28-03-2003 19:00:00 17.54 C 6.28 g/m*3 17.54 C 0 km/h
770 28-03-2003 20:00:00 17.16 C 6.19 g/m*3 17.16 C 0 km/h
771 28-03-2003 21:00:00 16.38 C 6.36 g/m*3 16.38 C 0 km/h
772 28-03-2003 22:00:00 15.36 C 6.84 g/m*3 15.36 C 0 km/h
773 28-03-2003 23:00:00 15.08 C 6.78 g/m*3 15.08 C 0 km/h
774 29-03-2003 00:00:00 14.62 C 6.74 g/m*3 14.62 C 0 km/h
775 29-03-2003 01:00:00 13.94 C 6.95 g/m*3 13.94 C 0 km/h
Sensor: Nr:Datum:Temp:Abs-Feuchte:Windchill:Wind:
Aussen-T/F 776 29-03-2003 02:00:00 13.34 C 7.02 g/m*3 13.34 C 0 km/h
777 29-03-2003 03:00:00 12.84 C 7.1 g/m*3 12.84 C 0 km/h
778 29-03-2003 04:00:00 12.3 C 7.08 g/m*3 12.3 C 0 km/h
779 29-03-2003 05:00:00 11.86 C 7.16 g/m*3 11.86 C 0 km/h
780 29-03-2003 06:00:00 11.74 C 7.3 g/m*3 11.74 C 0 km/h
781 29-03-2003 07:00:00 12.02 C 7.45 g/m*3 12.02 C 0 km/h
782 29-03-2003 08:00:00 12.78 C 7.56 g/m*3 12.78 C 0 km/h
783 29-03-2003 09:00:00 15.22 C 7.41 g/m*3 15.22 C 0 km/h
784 29-03-2003 10:00:00 17.2 C 7.12 g/m*3 17.2 C 0 km/h
785 29-03-2003 11:00:00 19.1 C 6.98 g/m*3 19.1 C 0 km/h
786 29-03-2003 12:00:00 21.54 C 7.07 g/m*3 21.54 C 0 km/h
787 29-03-2003 13:00:00 22.56 C 7.14 g/m*3 22.56 C 0 km/h
788 29-03-2003 14:00:00 23.34 C 6.75 g/m*3 23.34 C 0 km/h
789 29-03-2003 15:00:00 21.32 C 6.9 g/m*3 21.32 C 0 km/h
790 29-03-2003 16:00:00 17.18 C 9.16 g/m*3 17.18 C 0 km/h
791 29-03-2003 17:00:00 15.56 C 11.38 g/m*3 15.56 C 0 km/h
792 29-03-2003 18:00:00 14.56 C 10.54 g/m*3 14.56 C 0 km/h
793 29-03-2003 19:00:00 14.12 C 10.04 g/m*3 14.12 C 0 km/h
794 29-03-2003 20:00:00 13.76 C 9.56 g/m*3 13.76 C 0 km/h
795 29-03-2003 21:00:00 13.52 C 9.39 g/m*3 13.52 C 0 km/h
796 29-03-2003 23:00:00 13.38 C 9.38 g/m*3 13.38 C 0 km/h
797 30-03-2003 00:00:00 13.2 C 9.25 g/m*3 13.2 C 0 km/h
798 30-03-2003 01:00:00 12.375 C 9.16 g/m*3 12.38 C 0 km/h
799 30-03-2003 02:00:00 11.3 C 8.89 g/m*3 11.3 C 0 km/h
800 30-03-2003 04:00:00 10.46 C 8.55 g/m*3 10.46 C 0 km/h
Sensor: Nr:Datum:Temp:Abs-Feuchte:Windchill:Wind:
Aussen-T/F 801 30-03-2003 05:00:00 10.06 C 8.39 g/m*3 10.06 C 0 km/h
802 30-03-2003 06:00:00 9.86 C 8.36 g/m*3 9.86 C 0 km/h
803 30-03-2003 07:00:00 10.04 C 8.25 g/m*3 10.04 C 0 km/h
804 30-03-2003 08:00:00 9.98 C 8.2 g/m*3 9.98 C 0 km/h
805 30-03-2003 09:00:00 10.62 C 8.38 g/m*3 10.62 C 0 km/h
806 30-03-2003 10:00:00 11.52 C 8.46 g/m*3 11.52 C 0 km/h
807 30-03-2003 11:00:00 13.42 C 8.54 g/m*3 13.42 C 0 km/h
808 30-03-2003 12:00:00 15.8 C 9.29 g/m*3 15.8 C 0 km/h
809 30-03-2003 13:00:00 17.7 C 9.53 g/m*3 17.7 C 0 km/h
810 30-03-2003 14:00:00 19.62857 C 8.31 g/m*3 19.63 C 0 km/h
811 30-03-2003 15:00:00 20.3 C 8.2 g/m*3 20.3 C 0 km/h
812 30-03-2003 16:00:00 18.78 C 7.53 g/m*3 18.78 C 0 km/h
813 30-03-2003 17:00:00 17.58 C 7.4 g/m*3 17.58 C 0 km/h
814 30-03-2003 18:00:00 17.06 C 6.71 g/m*3 17.06 C 0 km/h
815 30-03-2003 19:00:00 16.16 C 5.67 g/m*3 16.16 C 0 km/h
816 30-03-2003 20:00:00 14.54 C 5.01 g/m*3 14.54 C 0 km/h
817 30-03-2003 21:00:00 13.38 C 5.5 g/m*3 13.38 C 0 km/h
818 30-03-2003 22:00:00 12.38 C 6.13 g/m*3 12.38 C 0 km/h
819 30-03-2003 23:00:00 11.18 C 6.36 g/m*3 11.18 C 0 km/h
820 31-03-2003 00:00:00 10.44 C 6.16 g/m*3 10.44 C 0 km/h
821 31-03-2003 01:00:00 9.76 C 6 g/m*3 9.76 C 0 km/h
822 31-03-2003 02:00:00 8.76 C 5.76 g/m*3 8.76 C 0 km/h
823 31-03-2003 03:00:00 7.68 C 5.65 g/m*3 7.68 C 0 km/h
824 31-03-2003 04:00:00 6.82 C 5.67 g/m*3 6.82 C 0 km/h
825 31-03-2003 05:00:00 5.82 C 5.71 g/m*3 5.82 C 0 km/h
Sensor: Nr:Datum:Temp:Abs-Feuchte:Windchill:Wind:
Aussen-T/F 826 31-03-2003 06:00:00 5.52 C 5.82 g/m*3 5.52 C 0 km/h
827 31-03-2003 07:00:00 4.74 C 5.49 g/m*3 4.74 C 0 km/h
828 31-03-2003 08:00:00 4.92 C 5.45 g/m*3 4.92 C 0 km/h
829 31-03-2003 09:00:00 6.02 C 5.06 g/m*3 6.02 C 0 km/h
830 31-03-2003 10:00:00 7.86 C 4.72 g/m*3 7.86 C 0 km/h
831 31-03-2003 11:00:00 9.32 C 4.5 g/m*3 9.32 C 0 km/h
832 31-03-2003 12:00:00 12.24 C 4.05 g/m*3 12.24 C 0 km/h
833 31-03-2003 13:00:00 13.62 C 3.91 g/m*3 13.62 C 0 km/h
834 31-03-2003 14:00:00 15.24 C 4.06 g/m*3 15.24 C 0 km/h
835 31-03-2003 15:00:00 16.9 C 3.88 g/m*3 16.9 C 0 km/h
836 31-03-2003 16:00:00 17.86 C 3.75 g/m*3 17.86 C 0 km/h
837 31-03-2003 17:00:00 18.4 C 3.33 g/m*3 18.4 C 0 km/h
838 31-03-2003 18:00:00 17.54 C 3.53 g/m*3 17.54 C 0 km/h
839 31-03-2003 19:00:00 14.94 C 4.01 g/m*3 14.94 C 0 km/h
840 31-03-2003 20:00:00 11.54 C 4.62 g/m*3 11.54 C 0 km/h
841 31-03-2003 21:00:00 9.94 C 4.91 g/m*3 9.94 C 0 km/h
842 31-03-2003 22:00:00 8.62 C 5.01 g/m*3 8.62 C 0 km/h
843 31-03-2003 23:00:00 7.22 C 4.89 g/m*3 7.22 C 0 km/h
844 01-04-2003 00:00:00 5.92 C 4.71 g/m*3 5.92 C 0 km/h
845 01-04-2003 01:00:00 4.8 C 4.61 g/m*3 4.8 C 0 km/h
846 01-04-2003 02:00:00 3.92 C 4.64 g/m*3 3.92 C 0 km/h
847 01-04-2003 03:00:00 3.44 C 4.62 g/m*3 3.44 C 0 km/h
848 01-04-2003 04:00:00 2.425 C 4.53 g/m*3 2.42 C 0 km/h
849 01-04-2003 05:00:00 1.66 C 4.52 g/m*3 1.66 C 0 km/h
850 01-04-2003 06:00:00 1.02 C 4.52 g/m*3 1.02 C 0 km/h
Sensor: Nr:Datum:Temp:Abs-Feuchte:Windchill:Wind:
Aussen-T/F 851 01-04-2003 07:00:00 0.7 C 4.47 g/m*3 0.7 C 0 km/h
852 01-04-2003 08:00:00 0.9 C 4.52 g/m*3 0.9 C 0 km/h
853 01-04-2003 09:00:00 2.66 C 4.83 g/m*3 2.66 C 0 km/h
854 01-04-2003 10:00:00 7.06 C 5.01 g/m*3 7.06 C 0 km/h
855 01-04-2003 11:00:00 11.48 C 4.77 g/m*3 11.48 C 0 km/h
856 01-04-2003 12:00:00 14.38 C 3.83 g/m*3 14.38 C 0 km/h
857 01-04-2003 13:00:00 15.56 C 3.53 g/m*3 15.56 C 0 km/h
858 01-04-2003 14:00:00 16.6 C 3.25 g/m*3 16.6 C 0 km/h
859 01-04-2003 15:00:00 17.7 C 3.02 g/m*3 17.7 C 0 km/h
860 01-04-2003 16:00:00 17.8 C 3.04 g/m*3 17.8 C 0 km/h
861 01-04-2003 17:00:00 17.2 C 2.93 g/m*3 17.2 C 0 km/h
862 01-04-2003 18:00:00 16.4 C 2.9 g/m*3 16.4 C 0 km/h
863 01-04-2003 19:00:00 15.63 C 3.52 g/m*3 15.63 C 0 km/h
864 01-04-2003 20:00:00 15.23333 C 3.97 g/m*3 15.23 C 0 km/h
865 01-04-2003 21:00:00 11.84 C 6.95 g/m*3 11.84 C 0 km/h
866 01-04-2003 22:00:00 9.76 C 7.76 g/m*3 9.76 C 0 km/h
867 01-04-2003 23:00:00 9.52 C 7.36 g/m*3 9.52 C 0 km/h
868 02-04-2003 00:00:00 8.99 C 6.82 g/m*3 8.99 C 0 km/h
869 02-04-2003 01:00:00 7.09 C 6.39 g/m*3 7.09 C 0 km/h
870 02-04-2003 02:00:00 6.59 C 6.29 g/m*3 6.59 C 0 km/h
871 02-04-2003 03:00:00 6.4 C 6.18 g/m*3 6.4 C 0 km/h
872 02-04-2003 04:00:00 5.97 C 5.99 g/m*3 5.97 C 0 km/h
873 02-04-2003 05:00:00 5.47 C 5.96 g/m*3 5.47 C 0 km/h
874 02-04-2003 06:00:00 4.83 C 6.17 g/m*3 4.83 C 0 km/h
875 02-04-2003 07:00:00 4.19 C 5.88 g/m*3 4.19 C 0 km/h
Sensor: Nr:Datum:Temp:Abs-Feuchte:Windchill:Wind:
Aussen-T/F 876 02-04-2003 08:00:00 4.04 C 5.74 g/m*3 4.04 C 0 km/h
877 02-04-2003 09:00:00 4.21 C 5.67 g/m*3 4.21 C 0 km/h
878 02-04-2003 10:00:00 4.61818 C 5.84 g/m*3 4.62 C 0 km/h
879 02-04-2003 11:00:00 4.83 C 5.83 g/m*3 4.83 C 0 km/h
880 02-04-2003 12:00:00 6.25 C 5.98 g/m*3 6.25 C 0 km/h
881 02-04-2003 13:00:00 8.58 C 5.32 g/m*3 8.58 C 0 km/h
882 02-04-2003 14:00:00 8.38 C 5.17 g/m*3 8.38 C 0 km/h
883 02-04-2003 15:00:00 9.63 C 5 g/m*3 9.63 C 0 km/h
884 02-04-2003 16:00:00 7.31 C 5.44 g/m*3 7.31 C 0 km/h
885 02-04-2003 17:00:00 7.53 C 5.56 g/m*3 7.53 C 0 km/h
886 02-04-2003 18:00:00 4.92 C 5.89 g/m*3 4.92 C 0 km/h
887 02-04-2003 19:00:00 4.81 C 5.67 g/m*3 4.81 C 0 km/h
888 02-04-2003 20:00:00 4.17 C 5.7 g/m*3 4.17 C 0 km/h
889 02-04-2003 21:00:00 3.32 C 5.63 g/m*3 3.32 C 0 km/h
890 02-04-2003 22:00:00 3.9 C 5.95 g/m*3 3.9 C 0 km/h
891 02-04-2003 23:00:00 3.57 C 5.68 g/m*3 3.57 C 0 km/h
892 03-04-2003 00:00:00 2.87 C 5.49 g/m*3 2.87 C 0 km/h
893 03-04-2003 01:00:00 3.01 C 5.56 g/m*3 3.01 C 0 km/h
894 03-04-2003 02:00:00 3.45 C 5.5 g/m*3 3.45 C 0 km/h
895 03-04-2003 03:00:00 3.48 C 5.39 g/m*3 3.48 C 0 km/h
896 03-04-2003 04:00:00 3.35 C 5.27 g/m*3 3.35 C 0 km/h
897 03-04-2003 05:00:00 3.27 C 5.17 g/m*3 3.27 C 0 km/h
898 03-04-2003 06:00:00 2.98 C 4.99 g/m*3 2.98 C 0 km/h
899 03-04-2003 07:00:00 2.82 C 4.82 g/m*3 2.82 C 0 km/h
900 03-04-2003 08:00:00 3.31 C 4.92 g/m*3 3.31 C 0 km/h
Sensor: Nr:Datum:Temp:Abs-Feuchte:Windchill:Wind:
Aussen-T/F 901 03-04-2003 09:00:00 3.87 C 4.82 g/m*3 3.87 C 0 km/h
902 03-04-2003 10:00:00 4.72 C 4.65 g/m*3 4.72 C 0 km/h
903 03-04-2003 11:00:00 5.87 C 4.65 g/m*3 5.87 C 0 km/h
904 03-04-2003 12:00:00 6.05 C 4.51 g/m*3 6.05 C 0 km/h
905 03-04-2003 13:00:00 6.24 C 4.79 g/m*3 6.24 C 0 km/h
906 03-04-2003 14:00:00 6.31 C 5.06 g/m*3 6.31 C 0 km/h
907 03-04-2003 15:00:00 8.88 C 4.07 g/m*3 8.88 C 0 km/h
908 03-04-2003 16:00:00 7.84 C 4.19 g/m*3 7.84 C 0 km/h
909 03-04-2003 17:00:00 8.31 C 4 g/m*3 8.31 C 0 km/h
910 03-04-2003 18:00:00 8.62 C 3.83 g/m*3 8.62 C 0 km/h
911 03-04-2003 19:00:00 8.06 C 4.01 g/m*3 8.06 C 0 km/h
912 03-04-2003 20:00:00 6.74 C 3.82 g/m*3 6.74 C 0 km/h
913 03-04-2003 21:00:00 5.59 C 4.13 g/m*3 5.59 C 0 km/h
914 03-04-2003 22:00:00 5.56 C 4.17 g/m*3 5.56 C 0 km/h
915 03-04-2003 23:00:00 5.59 C 4.13 g/m*3 5.59 C 0 km/h
916 04-04-2003 00:00:00 5.25556 C 4.25 g/m*3 5.26 C 0 km/h
917 04-04-2003 01:00:00 4.5 C 4.11 g/m*3 4.5 C 0 km/h
918 04-04-2003 02:00:00 3.53 C 3.92 g/m*3 3.53 C 0 km/h
919 04-04-2003 03:00:00 2.42 C 3.96 g/m*3 2.42 C 0 km/h
920 04-04-2003 04:00:00 1.98 C 4.09 g/m*3 1.98 C 0 km/h
921 04-04-2003 05:00:00 0.83 C 4.17 g/m*3 0.83 C 0 km/h
922 04-04-2003 06:00:00 0.25 C 4.16 g/m*3 0.25 C 0 km/h
923 04-04-2003 07:00:00 0.1 C 4.19 g/m*3 0.1 C 0 km/h
924 04-04-2003 08:00:00 0.7 C 4.36 g/m*3 0.7 C 0 km/h
925 04-04-2003 09:00:00 2.12 C 4.55 g/m*3 2.12 C 0 km/h
Sensor: Nr:Datum:Temp:Abs-Feuchte:Windchill:Wind:
Aussen-T/F 926 04-04-2003 10:00:00 4.81 C 4.58 g/m*3 4.81 C 0 km/h
927 04-04-2003 11:00:00 7.48 C 4.32 g/m*3 7.48 C 0 km/h
928 04-04-2003 12:00:00 9.72 C 3.99 g/m*3 9.72 C 0 km/h
929 04-04-2003 13:00:00 11.97 C 3.64 g/m*3 11.97 C 0 km/h
930 04-04-2003 14:00:00 11.68 C 3.57 g/m*3 11.68 C 0 km/h
931 04-04-2003 15:00:00 12.8 C 3.58 g/m*3 12.8 C 0 km/h
932 04-04-2003 16:00:00 13.8 C 3.57 g/m*3 13.8 C 0 km/h
933 04-04-2003 17:00:00 13.48333 C 3.7 g/m*3 13.48 C 0 km/h
934 04-04-2003 18:00:00 11.98333 C 3.85 g/m*3 11.98 C 0 km/h
935 04-04-2003 19:00:00 10.7 C 4.07 g/m*3 10.7 C 0 km/h
936 04-04-2003 20:00:00 10.41667 C 4.29 g/m*3 10.42 C 0 km/h
937 04-04-2003 21:00:00 10.15714 C 4.68 g/m*3 10.16 C 0 km/h
938 04-04-2003 22:00:00 9.61667 C 5.44 g/m*3 9.62 C 0 km/h
939 04-04-2003 23:00:00 9.16667 C 5.58 g/m*3 9.17 C 0 km/h
940 05-04-2003 00:00:00 8.91667 C 5.7 g/m*3 8.92 C 0 km/h
941 05-04-2003 01:00:00 8.83333 C 5.82 g/m*3 8.83 C 0 km/h
942 05-04-2003 02:00:00 8.6 C 6.19 g/m*3 8.6 C 0 km/h
943 05-04-2003 03:00:00 8.45 C 6.51 g/m*3 8.45 C 0 km/h
944 05-04-2003 04:00:00 8.41667 C 5.94 g/m*3 8.42 C 0 km/h
945 05-04-2003 05:00:00 7.61667 C 5.73 g/m*3 7.62 C 0 km/h
946 05-04-2003 06:00:00 6.93333 C 5.45 g/m*3 6.93 C 0 km/h
947 05-04-2003 07:00:00 6.36667 C 4.78 g/m*3 6.37 C 0 km/h
948 05-04-2003 08:00:00 6.51667 C 4.92 g/m*3 6.52 C 0 km/h
949 05-04-2003 09:00:00 6.91667 C 4.86 g/m*3 6.92 C 0 km/h
950 05-04-2003 10:00:00 7.45 C 4.71 g/m*3 7.45 C 0 km/h
Sensor: Nr:Datum:Temp:Abs-Feuchte:Windchill:Wind:
Aussen-T/F 951 05-04-2003 11:00:00 8.28333 C 4.48 g/m*3 8.28 C 0 km/h
952 05-04-2003 12:00:00 9.2 C 4.29 g/m*3 9.2 C 0 km/h
953 05-04-2003 13:00:00 11.08333 C 4.23 g/m*3 11.08 C 0 km/h
954 05-04-2003 14:00:00 11.23333 C 4.37 g/m*3 11.23 C 0 km/h
955 05-04-2003 15:00:00 11.46667 C 4.59 g/m*3 11.47 C 0 km/h
956 05-04-2003 16:00:00 12.31667 C 4.78 g/m*3 12.32 C 0 km/h
957 05-04-2003 17:00:00 11.43333 C 4.99 g/m*3 11.43 C 0 km/h
958 05-04-2003 18:00:00 11.08333 C 5.06 g/m*3 11.08 C 0 km/h
959 05-04-2003 19:00:00 10.21667 C 4.91 g/m*3 10.22 C 0 km/h
960 05-04-2003 20:00:00 9.31667 C 4.89 g/m*3 9.32 C 0 km/h
961 05-04-2003 21:00:00 8.52 C 4.8 g/m*3 8.52 C 0 km/h
962 05-04-2003 22:00:00 7.96667 C 4.77 g/m*3 7.97 C 0 km/h
963 05-04-2003 23:00:00 7.3 C 4.77 g/m*3 7.3 C 0 km/h
964 06-04-2003 00:00:00 6.85 C 4.25 g/m*3 6.85 C 0 km/h
965 06-04-2003 01:00:00 6.33333 C 4.06 g/m*3 6.33 C 0 km/h
966 06-04-2003 02:00:00 5.76667 C 3.84 g/m*3 5.77 C 0 km/h
967 06-04-2003 03:00:00 5.23333 C 3.77 g/m*3 5.23 C 0 km/h
968 06-04-2003 04:00:00 4.45 C 3.84 g/m*3 4.45 C 0 km/h
969 06-04-2003 05:00:00 4.06667 C 3.9 g/m*3 4.07 C 0 km/h
970 06-04-2003 06:00:00 3.73333 C 3.98 g/m*3 3.73 C 0 km/h
971 06-04-2003 07:00:00 3.61667 C 4.08 g/m*3 3.62 C 0 km/h
972 06-04-2003 08:00:00 4.31667 C 4.15 g/m*3 4.32 C 0 km/h
973 06-04-2003 09:00:00 5.13333 C 4.15 g/m*3 5.13 C 0 km/h
974 06-04-2003 10:00:00 6.2 C 3.21 g/m*3 6.2 C 0 km/h
975 06-04-2003 11:00:00 7.71667 C 2.16 g/m*3 7.72 C 0 km/h
Sensor: Nr:Datum:Temp:Abs-Feuchte:Windchill:Wind:
Aussen-T/F 976 06-04-2003 12:00:00 10.26667 C 2.07 g/m*3 10.27 C 0 km/h
977 06-04-2003 13:00:00 11.4 C 2.57 g/m*3 11.4 C 0 km/h
978 06-04-2003 14:00:00 12.2 C 2.7 g/m*3 12.2 C 0 km/h
979 06-04-2003 15:00:00 15.2 C 3.44 g/m*3 15.2 C 0 km/h
980 06-04-2003 16:00:00 18.2 C 4.35 g/m*3 18.2 C 0 km/h
981 06-04-2003 17:00:00 14.18333 C 2.95 g/m*3 14.18 C 0 km/h
982 06-04-2003 18:00:00 12.13333 C 2.15 g/m*3 12.13 C 0 km/h
983 06-04-2003 19:00:00 11.6 C 2.08 g/m*3 11.6 C 0 km/h
984 06-04-2003 20:00:00 11.6 C 2.08 g/m*3 11.6 C 0 km/h
985 06-04-2003 21:00:00 11.6 C 2.08 g/m*3 11.6 C 0 km/h
986 25-04-2003 15:00:00 27.26667 C 7.23 g/m*3 27.27 C 0 km/h
987 25-04-2003 16:00:00 30.5 C 6.85 g/m*3 30.5 C 0 km/h
988 25-04-2003 17:00:00 30.5 C 6.85 g/m*3 30.5 C 0 km/h
989 25-04-2003 18:00:00 30.5 C 6.54 g/m*3 30.5 C 0 km/h
990 25-04-2003 19:00:00 30.5 C 6.39 g/m*3 30.5 C 0 km/h
991 25-04-2003 20:00:00 29.3 C 5.91 g/m*3 29.3 C 0 km/h
992 25-04-2003 21:00:00 20.9 C 6.13 g/m*3 20.9 C 0 km/h
993 25-04-2003 22:00:00 19.8 C 6.12 g/m*3 19.8 C 0 km/h
994 25-04-2003 23:00:00 19.16 C 5.99 g/m*3 19.16 C 0 km/h
995 26-04-2003 00:00:00 18.4 C 6.24 g/m*3 18.4 C 0 km/h
996 26-04-2003 01:00:00 17.9 C 6.46 g/m*3 17.9 C 0 km/h
997 26-04-2003 02:00:00 18.08333 C 6.87 g/m*3 18.08 C 0 km/h
998 26-04-2003 03:00:00 17.91667 C 7.29 g/m*3 17.92 C 0 km/h
999 26-04-2003 04:00:00 16.98333 C 7.64 g/m*3 16.98 C 0 km/h
1000 26-04-2003 05:00:00 14.88333 C 10.1 g/m*3 14.88 C 0 km/h
Sensor: Nr:Datum:Temp:Abs-Feuchte:Windchill:Wind:
Aussen-T/F 1001 26-04-2003 06:00:00 14.35 C 10.7 g/m*3 14.35 C 0 km/h
1002 26-04-2003 07:00:00 14.28333 C 10.58 g/m*3 14.28 C 0 km/h
1003 26-04-2003 08:00:00 14.61667 C 10.79 g/m*3 14.62 C 0 km/h
1004 26-04-2003 09:00:00 15.23333 C 10.86 g/m*3 15.23 C 0 km/h
1005 26-04-2003 10:00:00 15.73333 C 11.46 g/m*3 15.73 C 0 km/h
1006 26-04-2003 11:00:00 15.65 C 11.45 g/m*3 15.65 C 0 km/h
1007 26-04-2003 12:00:00 15.725 C 11.52 g/m*3 15.73 C 0 km/h
1008 26-04-2003 13:00:00 15.95 C 11.32 g/m*3 15.95 C 0 km/h
1009 26-04-2003 14:00:00 15.1 C 11.05 g/m*3 15.1 C 0 km/h
1010 26-04-2003 15:00:00 15.76667 C 10.52 g/m*3 15.77 C 0 km/h
1011 26-04-2003 16:00:00 15.15 C 9.9 g/m*3 15.15 C 0 km/h
1012 26-04-2003 17:00:00 14.33333 C 10.4 g/m*3 14.33 C 0 km/h
1013 26-04-2003 18:00:00 13.66667 C 9.32 g/m*3 13.67 C 0 km/h
1014 26-04-2003 19:00:00 13.31667 C 8.62 g/m*3 13.32 C 0 km/h
1015 26-04-2003 20:00:00 12.88333 C 8.35 g/m*3 12.88 C 0 km/h
1016 26-04-2003 21:00:00 12.48333 C 8.79 g/m*3 12.48 C 0 km/h
1017 26-04-2003 22:00:00 11.95 C 9.14 g/m*3 11.95 C 0 km/h
1018 26-04-2003 23:00:00 11.81667 C 8.92 g/m*3 11.82 C 0 km/h
1019 27-04-2003 00:00:00 12.08333 C 8.7 g/m*3 12.08 C 0 km/h
1020 27-04-2003 01:00:00 11.85 C 8.94 g/m*3 11.85 C 0 km/h
1021 27-04-2003 02:00:00 11.38333 C 9.04 g/m*3 11.38 C 0 km/h
1022 27-04-2003 03:00:00 11.18333 C 8.96 g/m*3 11.18 C 0 km/h
1023 27-04-2003 04:00:00 11.51667 C 9.17 g/m*3 11.52 C 0 km/h
1024 27-04-2003 05:00:00 10.4 C 8.35 g/m*3 10.4 C 0 km/h
1025 27-04-2003 06:00:00 9.86667 C 7.98 g/m*3 9.87 C 0 km/h
Sensor: Nr:Datum:Temp:Abs-Feuchte:Windchill:Wind:
Aussen-T/F 1026 27-04-2003 07:00:00 10.2 C 8.15 g/m*3 10.2 C 0 km/h
1027 27-04-2003 08:00:00 11.41667 C 7.95 g/m*3 11.42 C 0 km/h
1028 27-04-2003 09:00:00 12.28333 C 8.08 g/m*3 12.28 C 0 km/h
1029 27-04-2003 10:00:00 13.56667 C 7.75 g/m*3 13.57 C 0 km/h
1030 27-04-2003 11:00:00 14.51667 C 7.22 g/m*3 14.52 C 0 km/h
1031 27-04-2003 12:00:00 14.43333 C 7.25 g/m*3 14.43 C 0 km/h
1032 27-04-2003 13:00:00 14.71667 C 7.23 g/m*3 14.72 C 0 km/h
1033 27-04-2003 14:00:00 15.36667 C 6.8 g/m*3 15.37 C 0 km/h
1034 27-04-2003 15:00:00 15.28333 C 6.37 g/m*3 15.28 C 0 km/h
1035 27-04-2003 16:00:00 13.21667 C 7.93 g/m*3 13.22 C 0 km/h
1036 27-04-2003 17:00:00 15.66667 C 8.15 g/m*3 15.67 C 0 km/h
1037 27-04-2003 18:00:00 14.08 C 8.34 g/m*3 14.08 C 0 km/h
1038 27-04-2003 19:00:00 13.38333 C 8.07 g/m*3 13.38 C 0 km/h
1039 27-04-2003 20:00:00 12.6 C 8.7 g/m*3 12.6 C 0 km/h
1040 27-04-2003 21:00:00 12.13333 C 8.87 g/m*3 12.13 C 0 km/h
1041 27-04-2003 22:00:00 12.28333 C 8.77 g/m*3 12.28 C 0 km/h
1042 27-04-2003 23:00:00 12.11667 C 8.8 g/m*3 12.12 C 0 km/h
1043 28-04-2003 00:00:00 12.13333 C 8.7 g/m*3 12.13 C 0 km/h
1044 28-04-2003 01:00:00 12.35 C 8.41 g/m*3 12.35 C 0 km/h
1045 28-04-2003 02:00:00 11.46667 C 8.31 g/m*3 11.47 C 0 km/h
1046 28-04-2003 03:00:00 10.5 C 8.18 g/m*3 10.5 C 0 km/h
1047 28-04-2003 04:00:00 10.03333 C 8.16 g/m*3 10.03 C 0 km/h
1048 28-04-2003 05:00:00 10.26667 C 8.09 g/m*3 10.27 C 0 km/h
1049 28-04-2003 06:00:00 10.25 C 8.19 g/m*3 10.25 C 0 km/h
1050 28-04-2003 07:00:00 10.76667 C 8.42 g/m*3 10.77 C 0 km/h
Sensor: Nr:Datum:Temp:Abs-Feuchte:Windchill:Wind:
Aussen-T/F 1051 28-04-2003 08:00:00 11.85 C 8.36 g/m*3 11.85 C 0 km/h
1052 28-04-2003 09:00:00 12.83333 C 8.36 g/m*3 12.83 C 0 km/h
1053 28-04-2003 10:00:00 15.15 C 8.45 g/m*3 15.15 C 0 km/h
1054 28-04-2003 11:00:00 15.97143 C 8.69 g/m*3 15.97 C 0 km/h
1055 28-04-2003 12:00:00 19.75 C 8.09 g/m*3 19.75 C 0 km/h
1056 28-04-2003 13:00:00 21.68333 C 7.53 g/m*3 21.68 C 0 km/h
1057 28-04-2003 14:00:00 21.88333 C 7.9 g/m*3 21.88 C 0 km/h
1058 28-04-2003 15:00:00 23.16667 C 7.64 g/m*3 23.17 C 0 km/h
1059 28-04-2003 16:00:00 26.05 C 6.92 g/m*3 26.05 C 0 km/h
1060 28-04-2003 17:00:00 25.36667 C 7.21 g/m*3 25.37 C 0 km/h
1061 28-04-2003 18:00:00 24.76667 C 7.72 g/m*3 24.77 C 0 km/h
1062 28-04-2003 19:00:00 23.01667 C 8.71 g/m*3 23.02 C 0 km/h
1063 28-04-2003 20:00:00 21.53333 C 8.85 g/m*3 21.53 C 0 km/h
1064 28-04-2003 21:00:00 20.26667 C 8.6 g/m*3 20.27 C 0 km/h
1065 28-04-2003 22:00:00 19.5 C 8.36 g/m*3 19.5 C 0 km/h
1066 28-04-2003 23:00:00 19.13333 C 7.88 g/m*3 19.13 C 0 km/h
1067 29-04-2003 00:00:00 18.35 C 8 g/m*3 18.35 C 0 km/h
1068 29-04-2003 01:00:00 18.03333 C 7.82 g/m*3 18.03 C 0 km/h
1069 29-04-2003 02:00:00 17.9 C 7.63 g/m*3 17.9 C 0 km/h
1070 29-04-2003 03:00:00 18.55 C 7.46 g/m*3 18.55 C 0 km/h
1071 29-04-2003 04:00:00 16.56667 C 9.42 g/m*3 16.57 C 0 km/h
1072 29-04-2003 05:00:00 14.98333 C 10.18 g/m*3 14.98 C 0 km/h
1073 29-04-2003 06:00:00 15.23333 C 9.93 g/m*3 15.23 C 0 km/h
1074 29-04-2003 07:00:00 15.75 C 10 g/m*3 15.75 C 0 km/h
1075 29-04-2003 08:00:00 16.16667 C 9.77 g/m*3 16.17 C 0 km/h
Sensor: Nr:Datum:Temp:Abs-Feuchte:Windchill:Wind:
Aussen-T/F 1076 29-04-2003 09:00:00 16.33333 C 9.87 g/m*3 16.33 C 0 km/h
1077 29-04-2003 10:00:00 16.64 C 10.28 g/m*3 16.64 C 0 km/h
1078 29-04-2003 11:00:00 18.82 C 9.29 g/m*3 18.82 C 0 km/h
1079 29-04-2003 12:00:00 19.8 C 8.85 g/m*3 19.8 C 0 km/h
1080 29-04-2003 13:00:00 20.18333 C 8.33 g/m*3 20.18 C 0 km/h
1081 29-04-2003 14:00:00 16.86667 C 9.93 g/m*3 16.87 C 0 km/h
1082 29-04-2003 15:00:00 18.4 C 10.17 g/m*3 18.4 C 0 km/h
1083 29-04-2003 16:00:00 21.03333 C 7.92 g/m*3 21.03 C 0 km/h
1084 29-04-2003 17:00:00 22.41667 C 6.56 g/m*3 22.42 C 0 km/h
1085 29-04-2003 18:00:00 22.16667 C 6.66 g/m*3 22.17 C 0 km/h
1086 29-04-2003 19:00:00 21.03333 C 7.37 g/m*3 21.03 C 0 km/h
1087 29-04-2003 20:00:00 18.43333 C 7.59 g/m*3 18.43 C 0 km/h
1088 29-04-2003 21:00:00 16.36667 C 7.87 g/m*3 16.37 C 0 km/h
1089 29-04-2003 22:00:00 15.26667 C 7.95 g/m*3 15.27 C 0 km/h
1090 29-04-2003 23:00:00 14.56667 C 8.24 g/m*3 14.57 C 0 km/h
1091 30-04-2003 00:00:00 14.28333 C 8.47 g/m*3 14.28 C 0 km/h
1092 30-04-2003 01:00:00 13.81667 C 8.69 g/m*3 13.82 C 0 km/h
1093 30-04-2003 02:00:00 13.56667 C 8.69 g/m*3 13.57 C 0 km/h
1094 30-04-2003 03:00:00 13.08333 C 9.04 g/m*3 13.08 C 0 km/h
1095 30-04-2003 04:00:00 12.5 C 9.82 g/m*3 12.5 C 0 km/h
1096 30-04-2003 05:00:00 12.36667 C 9.94 g/m*3 12.37 C 0 km/h
1097 30-04-2003 06:00:00 12.56667 C 10.14 g/m*3 12.57 C 0 km/h
1098 30-04-2003 07:00:00 13.05 C 10.39 g/m*3 13.05 C 0 km/h
1099 30-04-2003 08:00:00 13.85 C 10.62 g/m*3 13.85 C 0 km/h
1100 30-04-2003 09:00:00 13.9 C 10.75 g/m*3 13.9 C 0 km/h
Sensor: Nr:Datum:Temp:Abs-Feuchte:Windchill:Wind:
Aussen-T/F 1101 30-04-2003 10:00:00 14 C 10.98 g/m*3 14 C 0 km/h
1102 30-04-2003 11:00:00 14.06667 C 11.06 g/m*3 14.07 C 0 km/h
1103 30-04-2003 12:00:00 14.71667 C 11.17 g/m*3 14.72 C 0 km/h
1104 30-04-2003 13:00:00 15.25 C 11.52 g/m*3 15.25 C 0 km/h
1105 30-04-2003 14:00:00 16 C 11.33 g/m*3 16 C 0 km/h
1106 30-04-2003 15:00:00 15.93333 C 11.13 g/m*3 15.93 C 0 km/h
1107 30-04-2003 16:00:00 17.73333 C 10.63 g/m*3 17.73 C 0 km/h
1108 30-04-2003 17:00:00 15.85 C 9.77 g/m*3 15.85 C 0 km/h
1109 30-04-2003 18:00:00 16.38333 C 9.67 g/m*3 16.38 C 0 km/h
1110 30-04-2003 19:00:00 15.68333 C 9.42 g/m*3 15.68 C 0 km/h
1111 30-04-2003 20:00:00 13.96667 C 10.11 g/m*3 13.97 C 0 km/h
1112 30-04-2003 21:00:00 12.45 C 9.77 g/m*3 12.45 C 0 km/h
1113 30-04-2003 22:00:00 11.96667 C 8.92 g/m*3 11.97 C 0 km/h
1114 30-04-2003 23:00:00 10.53333 C 7.95 g/m*3 10.53 C 0 km/h
1115 01-05-2003 00:00:00 9.9 C 7.98 g/m*3 9.9 C 0 km/h
1116 01-05-2003 01:00:00 10.18333 C 7.83 g/m*3 10.18 C 0 km/h
1117 01-05-2003 02:00:00 9.7 C 7.39 g/m*3 9.7 C 0 km/h
1118 01-05-2003 03:00:00 9.9 C 7.66 g/m*3 9.9 C 0 km/h
1119 01-05-2003 04:00:00 9.55 C 7.46 g/m*3 9.55 C 0 km/h
1120 01-05-2003 05:00:00 10.2 C 7.53 g/m*3 10.2 C 0 km/h
1121 01-05-2003 06:00:00 10.78333 C 7.36 g/m*3 10.78 C 0 km/h
1122 01-05-2003 07:00:00 11.16 C 7.3 g/m*3 11.16 C 0 km/h
1123 01-05-2003 08:00:00 11.55 C 7.32 g/m*3 11.55 C 0 km/h
1124 01-05-2003 09:00:00 12.46667 C 7.31 g/m*3 12.47 C 0 km/h
1125 01-05-2003 10:00:00 12.56667 C 7.47 g/m*3 12.57 C 0 km/h
Sensor: Nr:Datum:Temp:Abs-Feuchte:Windchill:Wind:
Aussen-T/F 1126 01-05-2003 11:00:00 12.78333 C 7.85 g/m*3 12.78 C 0 km/h
1127 01-05-2003 12:00:00 13.76667 C 7.45 g/m*3 13.77 C 0 km/h
1128 01-05-2003 13:00:00 14.3 C 7.19 g/m*3 14.3 C 0 km/h
1129 01-05-2003 14:00:00 16.25 C 7.15 g/m*3 16.25 C 0 km/h
1130 01-05-2003 15:00:00 17.53333 C 6.57 g/m*3 17.53 C 0 km/h
1131 01-05-2003 16:00:00 17.68333 C 6.81 g/m*3 17.68 C 0 km/h
1132 01-05-2003 17:00:00 19.13333 C 5.56 g/m*3 19.13 C 0 km/h
1133 01-05-2003 18:00:00 17.76667 C 5.93 g/m*3 17.77 C 0 km/h
1134 01-05-2003 19:00:00 16.93333 C 6.2 g/m*3 16.93 C 0 km/h
1135 01-05-2003 20:00:00 15.76 C 6.37 g/m*3 15.76 C 0 km/h
1136 01-05-2003 21:00:00 13.65 C 7.04 g/m*3 13.65 C 0 km/h
1137 01-05-2003 22:00:00 13 C 7.28 g/m*3 13 C 0 km/h
1138 01-05-2003 23:00:00 12.48333 C 7.18 g/m*3 12.48 C 0 km/h
1139 02-05-2003 00:00:00 11.03333 C 7.05 g/m*3 11.03 C 0 km/h
1140 02-05-2003 01:00:00 9.8 C 7.14 g/m*3 9.8 C 0 km/h
1141 02-05-2003 02:00:00 8.98333 C 7.21 g/m*3 8.98 C 0 km/h
1142 02-05-2003 03:00:00 8.31667 C 7.13 g/m*3 8.32 C 0 km/h
1143 02-05-2003 04:00:00 7.76667 C 7.11 g/m*3 7.77 C 0 km/h
1144 02-05-2003 05:00:00 7.26667 C 6.94 g/m*3 7.27 C 0 km/h
1145 02-05-2003 06:00:00 6.98333 C 6.93 g/m*3 6.98 C 0 km/h
1146 02-05-2003 07:00:00 7.46667 C 7.21 g/m*3 7.47 C 0 km/h
1147 02-05-2003 08:00:00 9.3 C 7.49 g/m*3 9.3 C 0 km/h
1148 02-05-2003 09:00:00 12.93333 C 7.47 g/m*3 12.93 C 0 km/h
1149 02-05-2003 10:00:00 16.73333 C 6.6 g/m*3 16.73 C 0 km/h
1150 02-05-2003 11:00:00 19.11667 C 5.96 g/m*3 19.12 C 0 km/h
Sensor: Nr:Datum:Temp:Abs-Feuchte:Windchill:Wind:
Aussen-T/F 1151 02-05-2003 12:00:00 20.75 C 6.14 g/m*3 20.75 C 0 km/h
1152 02-05-2003 13:00:00 21.75 C 6.15 g/m*3 21.75 C 0 km/h
1153 02-05-2003 14:00:00 22.81667 C 6.17 g/m*3 22.82 C 0 km/h
1154 02-05-2003 15:00:00 22.3 C 6.06 g/m*3 22.3 C 0 km/h
1155 02-05-2003 16:00:00 20.56667 C 6.58 g/m*3 20.57 C 0 km/h
1156 02-05-2003 17:00:00 21.36667 C 7.17 g/m*3 21.37 C 0 km/h
1157 02-05-2003 18:00:00 19.98333 C 7.63 g/m*3 19.98 C 0 km/h
1158 02-05-2003 19:00:00 19.3 C 7.93 g/m*3 19.3 C 0 km/h
1159 02-05-2003 20:00:00 17.2 C 7.44 g/m*3 17.2 C 0 km/h
1160 02-05-2003 21:00:00 16.48333 C 7.67 g/m*3 16.48 C 0 km/h
1161 02-05-2003 22:00:00 15.26667 C 8.04 g/m*3 15.27 C 0 km/h
1162 02-05-2003 23:00:00 14.36667 C 7.53 g/m*3 14.37 C 0 km/h
1163 03-05-2003 00:00:00 13.96667 C 6.94 g/m*3 13.97 C 0 km/h
1164 03-05-2003 01:00:00 13.36667 C 6.34 g/m*3 13.37 C 0 km/h
1165 03-05-2003 02:00:00 12.96 C 6.54 g/m*3 12.96 C 0 km/h
1166 03-05-2003 03:00:00 12.88333 C 6.31 g/m*3 12.88 C 0 km/h
1167 03-05-2003 04:00:00 12.7 C 6.14 g/m*3 12.7 C 0 km/h
1168 03-05-2003 05:00:00 12.46667 C 6.31 g/m*3 12.47 C 0 km/h
1169 03-05-2003 06:00:00 11.63333 C 6.8 g/m*3 11.63 C 0 km/h
1170 03-05-2003 07:00:00 11.51667 C 6.74 g/m*3 11.52 C 0 km/h
1171 03-05-2003 08:00:00 12.3 C 6.28 g/m*3 12.3 C 0 km/h
1172 03-05-2003 09:00:00 12.91667 C 5.57 g/m*3 12.92 C 0 km/h
1173 03-05-2003 10:00:00 13.75 C 5.29 g/m*3 13.75 C 0 km/h
1174 03-05-2003 11:00:00 14.28333 C 5.22 g/m*3 14.28 C 0 km/h
1175 03-05-2003 12:00:00 16.26667 C 5.52 g/m*3 16.27 C 0 km/h
Sensor: Nr:Datum:Temp:Abs-Feuchte:Windchill:Wind:
Aussen-T/F 1176 03-05-2003 13:00:00 16.85 C 5.35 g/m*3 16.85 C 0 km/h
1177 03-05-2003 14:00:00 17.61667 C 5.3 g/m*3 17.62 C 0 km/h
1178 03-05-2003 15:00:00 17.78333 C 5.18 g/m*3 17.78 C 0 km/h
1179 03-05-2003 16:00:00 19.18333 C 5.11 g/m*3 19.18 C 0 km/h
1180 03-05-2003 17:00:00 18.86667 C 5.12 g/m*3 18.87 C 0 km/h
1181 03-05-2003 18:00:00 19.05 C 5.26 g/m*3 19.05 C 0 km/h
1182 03-05-2003 19:00:00 17.75 C 5.35 g/m*3 17.75 C 0 km/h
1183 03-05-2003 20:00:00 16.05 C 5.44 g/m*3 16.05 C 0 km/h
1184 03-05-2003 21:00:00 14.13333 C 5.8 g/m*3 14.13 C 0 km/h
1185 03-05-2003 22:00:00 13.38333 C 6.08 g/m*3 13.38 C 0 km/h
1186 03-05-2003 23:00:00 12.25 C 6.24 g/m*3 12.25 C 0 km/h
1187 04-05-2003 00:00:00 10.88333 C 6.34 g/m*3 10.88 C 0 km/h
1188 04-05-2003 01:00:00 9.68333 C 6.32 g/m*3 9.68 C 0 km/h
1189 04-05-2003 02:00:00 8.63333 C 6.39 g/m*3 8.63 C 0 km/h
1190 04-05-2003 03:00:00 7.68333 C 6.33 g/m*3 7.68 C 0 km/h
1191 04-05-2003 04:00:00 6.86667 C 6.32 g/m*3 6.87 C 0 km/h
1192 04-05-2003 05:00:00 6.23333 C 6.26 g/m*3 6.23 C 0 km/h
1193 04-05-2003 06:00:00 5.75 C 6.26 g/m*3 5.75 C 0 km/h
1194 04-05-2003 07:00:00 6.26667 C 6.44 g/m*3 6.27 C 0 km/h
1195 04-05-2003 08:00:00 7.51667 C 6.62 g/m*3 7.52 C 0 km/h
1196 04-05-2003 09:00:00 10.26667 C 7.18 g/m*3 10.27 C 0 km/h
1197 04-05-2003 10:00:00 15.05 C 6.86 g/m*3 15.05 C 0 km/h
1198 04-05-2003 11:00:00 19.03333 C 5.2 g/m*3 19.03 C 0 km/h
1199 04-05-2003 12:00:00 21.51667 C 4.56 g/m*3 21.52 C 0 km/h
1200 04-05-2003 13:00:00 23.85 C 4.49 g/m*3 23.85 C 0 km/h
Sensor: Nr:Datum:Temp:Abs-Feuchte:Windchill:Wind:
Aussen-T/F 1201 04-05-2003 14:00:00 25.36667 C 4.74 g/m*3 25.37 C 0 km/h
1202 04-05-2003 15:00:00 27.88333 C 5.4 g/m*3 27.88 C 0 km/h
1203 04-05-2003 16:00:00 29.35 C 5.86 g/m*3 29.35 C 0 km/h
1204 04-05-2003 17:00:00 30.31667 C 6.17 g/m*3 30.32 C 0 km/h
1205 04-05-2003 18:00:00 30.5 C 6.23 g/m*3 30.5 C 0 km/h
1206 04-05-2003 19:00:00 29.58333 C 5.93 g/m*3 29.58 C 0 km/h
1207 04-05-2003 20:00:00 24.92 C 5.64 g/m*3 24.92 C 0 km/h
1208 04-05-2003 21:00:00 20.05 C 6.27 g/m*3 20.05 C 0 km/h
1209 04-05-2003 22:00:00 19.06 C 6.71 g/m*3 19.06 C 0 km/h
1210 04-05-2003 23:00:00 17.4 C 6.99 g/m*3 17.4 C 0 km/h
1211 05-05-2003 00:00:00 16.11667 C 7.09 g/m*3 16.12 C 0 km/h
1212 05-05-2003 01:00:00 14.45 C 7.48 g/m*3 14.45 C 0 km/h
1213 05-05-2003 02:00:00 13.5 C 7.6 g/m*3 13.5 C 0 km/h
1214 05-05-2003 03:00:00 12.38333 C 7.48 g/m*3 12.38 C 0 km/h
1215 05-05-2003 04:00:00 11.6 C 7.43 g/m*3 11.6 C 0 km/h
1216 05-05-2003 05:00:00 10.81667 C 7.4 g/m*3 10.82 C 0 km/h
1217 05-05-2003 06:00:00 10.4 C 7.49 g/m*3 10.4 C 0 km/h
1218 05-05-2003 07:00:00 10.98333 C 7.77 g/m*3 10.98 C 0 km/h
1219 05-05-2003 08:00:00 12.35 C 7.93 g/m*3 12.35 C 0 km/h
1220 05-05-2003 09:00:00 14.71667 C 8.11 g/m*3 14.72 C 0 km/h
1221 05-05-2003 10:00:00 18.65 C 8.62 g/m*3 18.65 C 0 km/h
1222 05-05-2003 11:00:00 22.43333 C 8.75 g/m*3 22.43 C 0 km/h
1223 05-05-2003 12:00:00 25.18333 C 8.49 g/m*3 25.18 C 0 km/h
1224 05-05-2003 13:00:00 27.03333 C 8.08 g/m*3 27.03 C 0 km/h
1225 05-05-2003 14:00:00 27.5 C 7.76 g/m*3 27.5 C 0 km/h
Sensor: Nr:Datum:Temp:Abs-Feuchte:Windchill:Wind:
Aussen-T/F 1226 05-05-2003 15:00:00 28.45 C 7.67 g/m*3 28.45 C 0 km/h
1227 05-05-2003 16:00:00 27.48333 C 8.28 g/m*3 27.48 C 0 km/h
1228 05-05-2003 17:00:00 27.15 C 8.69 g/m*3 27.15 C 0 km/h
1229 05-05-2003 18:00:00 25.9 C 9.24 g/m*3 25.9 C 0 km/h
1230 05-05-2003 19:00:00 24.05 C 9.89 g/m*3 24.05 C 0 km/h
1231 05-05-2003 20:00:00 23 C 10.38 g/m*3 23 C 0 km/h
1232 05-05-2003 21:00:00 21.61667 C 10.92 g/m*3 21.62 C 0 km/h
1233 05-05-2003 22:00:00 20.96667 C 10.85 g/m*3 20.97 C 0 km/h
1234 05-05-2003 23:00:00 19.75 C 10.47 g/m*3 19.75 C 0 km/h
1235 06-05-2003 00:00:00 17.98333 C 10.54 g/m*3 17.98 C 0 km/h
1236 06-05-2003 01:00:00 17.6 C 10.32 g/m*3 17.6 C 0 km/h
1237 06-05-2003 02:00:00 17.28333 C 10.3 g/m*3 17.28 C 0 km/h
1238 06-05-2003 03:00:00 15.41667 C 11.05 g/m*3 15.42 C 0 km/h
1239 06-05-2003 04:00:00 15.35 C 10.7 g/m*3 15.35 C 0 km/h
1240 06-05-2003 05:00:00 15.65 C 10.4 g/m*3 15.65 C 0 km/h
1241 06-05-2003 06:00:00 15.51667 C 10.17 g/m*3 15.52 C 0 km/h
1242 06-05-2003 07:00:00 15.16667 C 10.04 g/m*3 15.17 C 0 km/h
1243 06-05-2003 08:00:00 15.25 C 10.11 g/m*3 15.25 C 0 km/h
1244 06-05-2003 09:00:00 15.83333 C 10.07 g/m*3 15.83 C 0 km/h
1245 06-05-2003 10:00:00 16.13333 C 9.84 g/m*3 16.13 C 0 km/h
1246 06-05-2003 11:00:00 15.3 C 9.6 g/m*3 15.3 C 0 km/h
1247 06-05-2003 12:00:00 14.58333 C 9.33 g/m*3 14.58 C 0 km/h
1248 06-05-2003 13:00:00 14.83333 C 8.99 g/m*3 14.83 C 0 km/h
1249 06-05-2003 14:00:00 14.31667 C 8.86 g/m*3 14.32 C 0 km/h
1250 06-05-2003 15:00:00 14.6 C 8.68 g/m*3 14.6 C 0 km/h
Sensor: Nr:Datum:Temp:Abs-Feuchte:Windchill:Wind:
Aussen-T/F 1251 06-05-2003 16:00:00 16.53333 C 8.79 g/m*3 16.53 C 0 km/h
1252 06-05-2003 17:00:00 16.91667 C 8.45 g/m*3 16.92 C 0 km/h
1253 06-05-2003 18:00:00 16.31667 C 8.26 g/m*3 16.32 C 0 km/h
1254 06-05-2003 19:00:00 15.78333 C 8.18 g/m*3 15.78 C 0 km/h
1255 06-05-2003 20:00:00 14.81667 C 8.39 g/m*3 14.82 C 0 km/h
1256 06-05-2003 21:00:00 14.4 C 8.34 g/m*3 14.4 C 0 km/h
1257 06-05-2003 22:00:00 13.58333 C 8.23 g/m*3 13.58 C 0 km/h
1258 06-05-2003 23:00:00 11.7 C 9.1 g/m*3 11.7 C 0 km/h
1259 07-05-2003 00:00:00 10.7 C 8.69 g/m*3 10.7 C 0 km/h
1260 07-05-2003 01:00:00 10.46667 C 8.5 g/m*3 10.47 C 0 km/h
1261 07-05-2003 02:00:00 10.78333 C 8.61 g/m*3 10.78 C 0 km/h
1262 07-05-2003 03:00:00 10.58333 C 8.51 g/m*3 10.58 C 0 km/h
1263 07-05-2003 04:00:00 9.8 C 8.32 g/m*3 9.8 C 0 km/h
1264 07-05-2003 05:00:00 9.48333 C 8.17 g/m*3 9.48 C 0 km/h
1265 07-05-2003 06:00:00 9.03333 C 7.98 g/m*3 9.03 C 0 km/h
1266 07-05-2003 07:00:00 9.58333 C 8.37 g/m*3 9.58 C 0 km/h
1267 07-05-2003 08:00:00 10.93333 C 8.71 g/m*3 10.93 C 0 km/h
1268 07-05-2003 09:00:00 12.83333 C 8.77 g/m*3 12.83 C 0 km/h
1269 07-05-2003 10:00:00 15.2 C 8.31 g/m*3 15.2 C 0 km/h
1270 07-05-2003 11:00:00 17.46667 C 7.81 g/m*3 17.47 C 0 km/h
1271 07-05-2003 12:00:00 19.9 C 7.73 g/m*3 19.9 C 0 km/h
1272 07-05-2003 13:00:00 22.53333 C 7.47 g/m*3 22.53 C 0 km/h
1273 07-05-2003 14:00:00 23.48333 C 7.32 g/m*3 23.48 C 0 km/h
1274 07-05-2003 15:00:00 25.65 C 7.12 g/m*3 25.65 C 0 km/h
1275 07-05-2003 16:00:00 28.33333 C 7.2 g/m*3 28.33 C 0 km/h
Sensor: Nr:Datum:Temp:Abs-Feuchte:Windchill:Wind:
Aussen-T/F 1276 07-05-2003 17:00:00 28.56667 C 7.01 g/m*3 28.57 C 0 km/h
1277 07-05-2003 18:00:00 28.08333 C 7.1 g/m*3 28.08 C 0 km/h
1278 07-05-2003 19:00:00 25.93333 C 7.28 g/m*3 25.93 C 0 km/h
1279 07-05-2003 20:00:00 22.1 C 7.94 g/m*3 22.1 C 0 km/h
1280 07-05-2003 21:00:00 19.13333 C 8.02 g/m*3 19.13 C 0 km/h
1281 07-05-2003 22:00:00 17.65 C 8.2 g/m*3 17.65 C 0 km/h
1282 07-05-2003 23:00:00 16.38333 C 8.44 g/m*3 16.38 C 0 km/h
1283 08-05-2003 00:00:00 15.06667 C 8.5 g/m*3 15.07 C 0 km/h
1284 08-05-2003 01:00:00 14.4 C 8.49 g/m*3 14.4 C 0 km/h
1285 08-05-2003 02:00:00 13.46667 C 8.5 g/m*3 13.47 C 0 km/h
1286 08-05-2003 03:00:00 12.68333 C 8.45 g/m*3 12.68 C 0 km/h
1287 08-05-2003 04:00:00 11.96667 C 8.35 g/m*3 11.97 C 0 km/h
1288 08-05-2003 05:00:00 11.48333 C 8.27 g/m*3 11.48 C 0 km/h
1289 08-05-2003 06:00:00 11.1 C 8.24 g/m*3 11.1 C 0 km/h
1290 08-05-2003 07:00:00 11.63333 C 8.45 g/m*3 11.63 C 0 km/h
1291 08-05-2003 08:00:00 12.85 C 8.5 g/m*3 12.85 C 0 km/h
1292 08-05-2003 09:00:00 15.33333 C 8.7 g/m*3 15.33 C 0 km/h
1293 08-05-2003 10:00:00 18.7 C 9.13 g/m*3 18.7 C 0 km/h
1294 08-05-2003 11:00:00 21.33333 C 9.65 g/m*3 21.33 C 0 km/h
1295 08-05-2003 12:00:00 24.03333 C 9.81 g/m*3 24.03 C 0 km/h
1296 08-05-2003 13:00:00 25.93333 C 9.34 g/m*3 25.93 C 0 km/h
1297 08-05-2003 14:00:00 27.55 C 9.29 g/m*3 27.55 C 0 km/h
1298 08-05-2003 15:00:00 29.18333 C 8.99 g/m*3 29.18 C 0 km/h
1299 08-05-2003 16:00:00 30.28333 C 8.83 g/m*3 30.28 C 0 km/h
1300 08-05-2003 17:00:00 28.57143 C 9.34 g/m*3 28.57 C 0 km/h
Sensor: Nr:Datum:Temp:Abs-Feuchte:Windchill:Wind:
Aussen-T/F 1301 08-05-2003 18:00:00 24.13333 C 10.12 g/m*3 24.13 C 0 km/h
1302 08-05-2003 19:00:00 22.9 C 8.31 g/m*3 22.9 C 0 km/h
1303 08-05-2003 20:00:00 20.65 C 9.09 g/m*3 20.65 C 0 km/h
1304 08-05-2003 21:00:00 16.63333 C 11.49 g/m*3 16.63 C 0 km/h
1305 08-05-2003 22:00:00 15.15 C 11.52 g/m*3 15.15 C 0 km/h
1306 08-05-2003 23:00:00 14.58333 C 10.96 g/m*3 14.58 C 0 km/h
1307 09-05-2003 00:00:00 14.95 C 10.89 g/m*3 14.95 C 0 km/h
1308 09-05-2003 01:00:00 14.26667 C 10.38 g/m*3 14.27 C 0 km/h
1309 09-05-2003 02:00:00 14.06667 C 10.56 g/m*3 14.07 C 0 km/h
1310 09-05-2003 03:00:00 13.61667 C 10.31 g/m*3 13.62 C 0 km/h
1311 09-05-2003 04:00:00 13.78333 C 10.32 g/m*3 13.78 C 0 km/h
1312 09-05-2003 05:00:00 13.46667 C 10.04 g/m*3 13.47 C 0 km/h
1313 09-05-2003 06:00:00 13.3 C 9.95 g/m*3 13.3 C 0 km/h
1314 09-05-2003 07:00:00 13.23333 C 9.95 g/m*3 13.23 C 0 km/h
1315 09-05-2003 08:00:00 14.36667 C 10.14 g/m*3 14.37 C 0 km/h
1316 09-05-2003 09:00:00 16.83333 C 10 g/m*3 16.83 C 0 km/h
1317 09-05-2003 10:00:00 18.9 C 9.88 g/m*3 18.9 C 0 km/h
1318 09-05-2003 11:00:00 18.75 C 9.47 g/m*3 18.75 C 0 km/h
1319 09-05-2003 12:00:00 19.66667 C 9.18 g/m*3 19.67 C 0 km/h
1320 09-05-2003 13:00:00 21.73333 C 8.6 g/m*3 21.73 C 0 km/h
1321 09-05-2003 14:00:00 21.11667 C 8.73 g/m*3 21.12 C 0 km/h
1322 09-05-2003 15:00:00 19.71667 C 9.32 g/m*3 19.72 C 0 km/h
1323 09-05-2003 16:00:00 17.66667 C 10.49 g/m*3 17.67 C 0 km/h
1324 09-05-2003 17:00:00 15.36667 C 10.75 g/m*3 15.37 C 0 km/h
1325 09-05-2003 18:00:00 15.1 C 10.34 g/m*3 15.1 C 0 km/h
Sensor: Nr:Datum:Temp:Abs-Feuchte:Windchill:Wind:
Aussen-T/F 1326 09-05-2003 19:00:00 14.38333 C 10.58 g/m*3 14.38 C 0 km/h
1327 09-05-2003 20:00:00 14.1 C 10.3 g/m*3 14.1 C 0 km/h
1328 09-05-2003 21:00:00 12.75 C 9.79 g/m*3 12.75 C 0 km/h
1329 09-05-2003 22:00:00 12.75 C 9.9 g/m*3 12.75 C 0 km/h
1330 09-05-2003 23:00:00 12.76667 C 9.84 g/m*3 12.77 C 0 km/h
1331 10-05-2003 00:00:00 12.98333 C 9.88 g/m*3 12.98 C 0 km/h
1332 10-05-2003 01:00:00 12.8 C 10.17 g/m*3 12.8 C 0 km/h
1333 10-05-2003 02:00:00 12.46667 C 10.08 g/m*3 12.47 C 0 km/h
1334 10-05-2003 03:00:00 12.11667 C 9.77 g/m*3 12.12 C 0 km/h
1335 10-05-2003 04:00:00 12.16667 C 9.8 g/m*3 12.17 C 0 km/h
1336 10-05-2003 05:00:00 11.88 C 9.71 g/m*3 11.88 C 0 km/h
1337 10-05-2003 06:00:00 11.86667 C 9.81 g/m*3 11.87 C 0 km/h
1338 10-05-2003 07:00:00 12.36667 C 10.03 g/m*3 12.37 C 0 km/h
1339 10-05-2003 08:00:00 12.61667 C 9.89 g/m*3 12.62 C 0 km/h
1340 10-05-2003 09:00:00 12.45 C 9.43 g/m*3 12.45 C 0 km/h
1341 10-05-2003 10:00:00 14.66667 C 9.57 g/m*3 14.67 C 0 km/h
1342 10-05-2003 11:00:00 16.41667 C 7.66 g/m*3 16.42 C 0 km/h
1343 10-05-2003 12:00:00 17.73333 C 6.27 g/m*3 17.73 C 0 km/h
1344 10-05-2003 13:00:00 19.23333 C 5.37 g/m*3 19.23 C 0 km/h
1345 10-05-2003 14:00:00 20.78333 C 4.82 g/m*3 20.78 C 0 km/h
1346 10-05-2003 15:00:00 22.38333 C 4.5 g/m*3 22.38 C 0 km/h
1347 10-05-2003 16:00:00 23.41667 C 4.24 g/m*3 23.42 C 0 km/h
1348 10-05-2003 17:00:00 24.9 C 4.65 g/m*3 24.9 C 0 km/h
1349 10-05-2003 18:00:00 22.6 C 5.26 g/m*3 22.6 C 0 km/h
1350 10-05-2003 19:00:00 21.63333 C 5.67 g/m*3 21.63 C 0 km/h
Sensor: Nr:Datum:Temp:Abs-Feuchte:Windchill:Wind:
Aussen-T/F 1351 10-05-2003 20:00:00 18.56667 C 5.53 g/m*3 18.57 C 0 km/h
1352 10-05-2003 21:00:00 15.61667 C 5.84 g/m*3 15.62 C 0 km/h
1353 10-05-2003 22:00:00 13.53333 C 5.88 g/m*3 13.53 C 0 km/h
1354 10-05-2003 23:00:00 12.43333 C 6.04 g/m*3 12.43 C 0 km/h
1355 11-05-2003 00:00:00 11.01667 C 6.1 g/m*3 11.02 C 0 km/h
1356 11-05-2003 01:00:00 9.93333 C 6.25 g/m*3 9.93 C 0 km/h
1357 11-05-2003 02:00:00 8.91667 C 6.28 g/m*3 8.92 C 0 km/h
1358 11-05-2003 03:00:00 8.05 C 6.39 g/m*3 8.05 C 0 km/h
1359 11-05-2003 04:00:00 7.55 C 6.41 g/m*3 7.55 C 0 km/h
1360 11-05-2003 05:00:00 6.83333 C 6.39 g/m*3 6.83 C 0 km/h
1361 11-05-2003 06:00:00 6.56667 C 6.35 g/m*3 6.57 C 0 km/h
1362 11-05-2003 07:00:00 6.76667 C 6.49 g/m*3 6.77 C 0 km/h
1363 11-05-2003 08:00:00 7.83333 C 6.6 g/m*3 7.83 C 0 km/h
1364 11-05-2003 09:00:00 10.66667 C 6.98 g/m*3 10.67 C 0 km/h
1365 11-05-2003 10:00:00 14.23333 C 6.75 g/m*3 14.23 C 0 km/h
1366 11-05-2003 11:00:00 17.35 C 6.58 g/m*3 17.35 C 0 km/h
1367 11-05-2003 12:00:00 20.03333 C 6.41 g/m*3 20.03 C 0 km/h
1368 11-05-2003 13:00:00 22.23333 C 6.07 g/m*3 22.23 C 0 km/h
1369 11-05-2003 14:00:00 23 C 5.82 g/m*3 23 C 0 km/h
1370 11-05-2003 15:00:00 24.43333 C 4.72 g/m*3 24.43 C 0 km/h
1371 11-05-2003 16:00:00 24.6 C 4.65 g/m*3 24.6 C 0 km/h
1372 11-05-2003 17:00:00 24.01667 C 4.75 g/m*3 24.02 C 0 km/h
1373 11-05-2003 18:00:00 24.48333 C 6.48 g/m*3 24.48 C 0 km/h
1374 11-05-2003 19:00:00 22.45 C 6.67 g/m*3 22.45 C 0 km/h
1375 11-05-2003 20:00:00 19.3 C 6.5 g/m*3 19.3 C 0 km/h
Sensor: Nr:Datum:Temp:Abs-Feuchte:Windchill:Wind:
Aussen-T/F 1376 11-05-2003 21:00:00 18.13333 C 6.45 g/m*3 18.13 C 0 km/h
1377 11-05-2003 22:00:00 17.2 C 6.98 g/m*3 17.2 C 0 km/h
1378 11-05-2003 23:00:00 16.1 C 7.35 g/m*3 16.1 C 0 km/h
1379 12-05-2003 00:00:00 14.68333 C 7.38 g/m*3 14.68 C 0 km/h
1380 12-05-2003 01:00:00 13.75 C 7.6 g/m*3 13.75 C 0 km/h
1381 12-05-2003 02:00:00 13.33333 C 7.74 g/m*3 13.33 C 0 km/h
1382 12-05-2003 03:00:00 12.38333 C 7.8 g/m*3 12.38 C 0 km/h
1383 12-05-2003 04:00:00 11.68333 C 7.91 g/m*3 11.68 C 0 km/h
1384 12-05-2003 05:00:00 12.06667 C 7.99 g/m*3 12.07 C 0 km/h
1385 12-05-2003 06:00:00 12.7 C 7.98 g/m*3 12.7 C 0 km/h
1386 12-05-2003 07:00:00 12.88333 C 8.22 g/m*3 12.88 C 0 km/h
1387 12-05-2003 08:00:00 13.93333 C 8.35 g/m*3 13.93 C 0 km/h
1388 12-05-2003 09:00:00 15.51667 C 8.03 g/m*3 15.52 C 0 km/h
1389 12-05-2003 10:00:00 17.33333 C 7.92 g/m*3 17.33 C 0 km/h
1390 12-05-2003 11:00:00 19.03333 C 7.4 g/m*3 19.03 C 0 km/h
1391 12-05-2003 12:00:00 19.8 C 6.86 g/m*3 19.8 C 0 km/h
1392 12-05-2003 13:00:00 20.86667 C 6.33 g/m*3 20.87 C 0 km/h
1393 12-05-2003 14:00:00 21.01667 C 6.57 g/m*3 21.02 C 0 km/h
1394 12-05-2003 15:00:00 20.66667 C 6.41 g/m*3 20.67 C 0 km/h
1395 12-05-2003 16:00:00 21.25 C 6.41 g/m*3 21.25 C 0 km/h
1396 12-05-2003 17:00:00 20.2 C 6.44 g/m*3 20.2 C 0 km/h
1397 12-05-2003 18:00:00 19.4 C 6.67 g/m*3 19.4 C 0 km/h
1398 12-05-2003 19:00:00 19 C 6.87 g/m*3 19 C 0 km/h
1399 12-05-2003 20:00:00 17.8 C 6.93 g/m*3 17.8 C 0 km/h
1400 12-05-2003 21:00:00 16.46667 C 7.03 g/m*3 16.47 C 0 km/h
Sensor: Nr:Datum:Temp:Abs-Feuchte:Windchill:Wind:
Aussen-T/F 1401 12-05-2003 22:00:00 14.51667 C 7.7 g/m*3 14.52 C 0 km/h
1402 12-05-2003 23:00:00 14.28333 C 8.2 g/m*3 14.28 C 0 km/h
1403 13-05-2003 00:00:00 13.61667 C 8.31 g/m*3 13.62 C 0 km/h
1404 13-05-2003 01:00:00 13.55 C 8.45 g/m*3 13.55 C 0 km/h
1405 13-05-2003 02:00:00 12.66667 C 7.91 g/m*3 12.67 C 0 km/h
1406 13-05-2003 03:00:00 11.98333 C 7.86 g/m*3 11.98 C 0 km/h
1407 13-05-2003 04:00:00 12.45 C 7.38 g/m*3 12.45 C 0 km/h
1408 13-05-2003 05:00:00 11.53333 C 8.25 g/m*3 11.53 C 0 km/h
1409 13-05-2003 06:00:00 9.83333 C 7.93 g/m*3 9.83 C 0 km/h
1410 13-05-2003 07:00:00 8.43333 C 7.55 g/m*3 8.43 C 0 km/h
1411 13-05-2003 08:00:00 9.01667 C 7.6 g/m*3 9.02 C 0 km/h
1412 13-05-2003 09:00:00 9.68333 C 7.47 g/m*3 9.68 C 0 km/h
1413 13-05-2003 10:00:00 11.15 C 7.19 g/m*3 11.15 C 0 km/h
1414 13-05-2003 11:00:00 12.15 C 6.31 g/m*3 12.15 C 0 km/h
1415 13-05-2003 12:00:00 14.13333 C 5.57 g/m*3 14.13 C 0 km/h
1416 13-05-2003 13:00:00 15.46667 C 5.14 g/m*3 15.47 C 0 km/h
1417 13-05-2003 14:00:00 15.51667 C 4.9 g/m*3 15.52 C 0 km/h
1418 13-05-2003 15:00:00 14 C 5.15 g/m*3 14 C 0 km/h
1419 13-05-2003 16:00:00 12.85 C 7.58 g/m*3 12.85 C 0 km/h
1420 13-05-2003 17:00:00 13.48333 C 7.4 g/m*3 13.48 C 0 km/h
1421 13-05-2003 18:00:00 13.98 C 5.3 g/m*3 13.98 C 0 km/h
1422 13-05-2003 19:00:00 13.68333 C 5.26 g/m*3 13.68 C 0 km/h
1423 13-05-2003 20:00:00 11.75 C 5.51 g/m*3 11.75 C 0 km/h
1424 13-05-2003 21:00:00 9.81667 C 5.25 g/m*3 9.82 C 0 km/h
1425 13-05-2003 22:00:00 7.85 C 6.5 g/m*3 7.85 C 0 km/h
Sensor: Nr:Datum:Temp:Abs-Feuchte:Windchill:Wind:
Aussen-T/F 1426 13-05-2003 23:00:00 6.88333 C 6.29 g/m*3 6.88 C 0 km/h
1427 14-05-2003 00:00:00 6.91667 C 5.87 g/m*3 6.92 C 0 km/h
1428 14-05-2003 01:00:00 6.08333 C 5.91 g/m*3 6.08 C 0 km/h
1429 14-05-2003 02:00:00 5.55 C 6.05 g/m*3 5.55 C 0 km/h
1430 14-05-2003 03:00:00 5.35 C 6.11 g/m*3 5.35 C 0 km/h
1431 14-05-2003 04:00:00 6.23333 C 6.22 g/m*3 6.23 C 0 km/h
1432 14-05-2003 05:00:00 6.41667 C 6.15 g/m*3 6.42 C 0 km/h
1433 14-05-2003 06:00:00 7.03333 C 5.86 g/m*3 7.03 C 0 km/h
1434 14-05-2003 07:00:00 7.28333 C 5.79 g/m*3 7.28 C 0 km/h
1435 14-05-2003 08:00:00 7.61667 C 5.83 g/m*3 7.62 C 0 km/h
1436 14-05-2003 09:00:00 9.13333 C 5.85 g/m*3 9.13 C 0 km/h
1437 14-05-2003 10:00:00 10.93333 C 5.98 g/m*3 10.93 C 0 km/h
1438 14-05-2003 11:00:00 11.93333 C 5.54 g/m*3 11.93 C 0 km/h
1439 14-05-2003 12:00:00 13.56667 C 5.03 g/m*3 13.57 C 0 km/h
1440 14-05-2003 13:00:00 14.96667 C 4.5 g/m*3 14.97 C 0 km/h
1441 14-05-2003 14:00:00 14 C 4.97 g/m*3 14 C 0 km/h
1442 14-05-2003 15:00:00 13.53333 C 7.33 g/m*3 13.53 C 0 km/h
1443 14-05-2003 16:00:00 13.51667 C 6.54 g/m*3 13.52 C 0 km/h
1444 14-05-2003 17:00:00 9.98333 C 7.15 g/m*3 9.98 C 0 km/h
1445 14-05-2003 18:00:00 13.11667 C 7.71 g/m*3 13.12 C 0 km/h
1446 14-05-2003 19:00:00 11.43333 C 6.72 g/m*3 11.43 C 0 km/h
1447 14-05-2003 20:00:00 11.15 C 6.64 g/m*3 11.15 C 0 km/h
1448 14-05-2003 21:00:00 9.98 C 6.64 g/m*3 9.98 C 0 km/h
1449 14-05-2003 22:00:00 9.35 C 6.76 g/m*3 9.35 C 0 km/h
1450 14-05-2003 23:00:00 9.25 C 6.52 g/m*3 9.25 C 0 km/h
Sensor: Nr:Datum:Temp:Abs-Feuchte:Windchill:Wind:
Aussen-T/F 1451 15-05-2003 00:00:00 8.76667 C 6.46 g/m*3 8.77 C 0 km/h
1452 15-05-2003 01:00:00 8.68333 C 6.41 g/m*3 8.68 C 0 km/h
1453 15-05-2003 02:00:00 8.23333 C 6.32 g/m*3 8.23 C 0 km/h
1454 15-05-2003 03:00:00 8.33333 C 6.45 g/m*3 8.33 C 0 km/h
1455 15-05-2003 04:00:00 8.2 C 6.36 g/m*3 8.2 C 0 km/h
1456 15-05-2003 05:00:00 7.88333 C 6.45 g/m*3 7.88 C 0 km/h
1457 15-05-2003 06:00:00 8.1 C 6.57 g/m*3 8.1 C 0 km/h
1458 15-05-2003 07:00:00 8.46667 C 6.69 g/m*3 8.47 C 0 km/h
1459 15-05-2003 08:00:00 9.6 C 6.41 g/m*3 9.6 C 0 km/h
1460 15-05-2003 09:00:00 10.7 C 6.17 g/m*3 10.7 C 0 km/h
1461 15-05-2003 10:00:00 12.1 C 6.01 g/m*3 12.1 C 0 km/h
1462 15-05-2003 11:00:00 13.25 C 5.78 g/m*3 13.25 C 0 km/h
1463 15-05-2003 12:00:00 15.05 C 5.08 g/m*3 15.05 C 0 km/h
1464 15-05-2003 13:00:00 17.4 C 4.56 g/m*3 17.4 C 0 km/h
1465 15-05-2003 14:00:00 17.06667 C 4.26 g/m*3 17.07 C 0 km/h
1466 15-05-2003 15:00:00 18.41667 C 4.57 g/m*3 18.42 C 0 km/h
1467 15-05-2003 16:00:00 20.13333 C 5.02 g/m*3 20.13 C 0 km/h
1468 15-05-2003 17:00:00 21.3 C 4.54 g/m*3 21.3 C 0 km/h
1469 15-05-2003 18:00:00 19.55 C 4.54 g/m*3 19.55 C 0 km/h
1470 15-05-2003 19:00:00 16.93333 C 4.8 g/m*3 16.93 C 0 km/h
1471 15-05-2003 20:00:00 14.1 C 5.72 g/m*3 14.1 C 0 km/h
1472 15-05-2003 21:00:00 12.86667 C 5.89 g/m*3 12.87 C 0 km/h
1473 15-05-2003 22:00:00 11.55 C 6.11 g/m*3 11.55 C 0 km/h
1474 15-05-2003 23:00:00 10.31667 C 6.25 g/m*3 10.32 C 0 km/h
1475 16-05-2003 00:00:00 8.7 C 6.31 g/m*3 8.7 C 0 km/h
Sensor: Nr:Datum:Temp:Abs-Feuchte:Windchill:Wind:
Aussen-T/F 1476 16-05-2003 01:00:00 7.85 C 6.37 g/m*3 7.85 C 0 km/h
1477 16-05-2003 02:00:00 6.88333 C 6.25 g/m*3 6.88 C 0 km/h
1478 16-05-2003 03:00:00 5.9 C 6.1 g/m*3 5.9 C 0 km/h
1479 16-05-2003 04:00:00 5.21667 C 5.92 g/m*3 5.22 C 0 km/h
1480 16-05-2003 05:00:00 4.61667 C 5.72 g/m*3 4.62 C 0 km/h
1481 16-05-2003 06:00:00 4.16667 C 5.75 g/m*3 4.17 C 0 km/h
1482 16-05-2003 07:00:00 4.7 C 5.9 g/m*3 4.7 C 0 km/h
1483 16-05-2003 08:00:00 5.61667 C 6.05 g/m*3 5.62 C 0 km/h
1484 16-05-2003 09:00:00 7.6 C 6.46 g/m*3 7.6 C 0 km/h
1485 16-05-2003 10:00:00 11.18333 C 6.95 g/m*3 11.18 C 0 km/h
1486 16-05-2003 11:00:00 15.86667 C 5.59 g/m*3 15.87 C 0 km/h
1487 16-05-2003 12:00:00 18.06667 C 4.19 g/m*3 18.07 C 0 km/h
1488 16-05-2003 13:00:00 19.08333 C 4.04 g/m*3 19.08 C 0 km/h
1489 16-05-2003 14:00:00 20.36667 C 4.18 g/m*3 20.37 C 0 km/h
1490 16-05-2003 15:00:00 21.68333 C 4.07 g/m*3 21.68 C 0 km/h
1491 16-05-2003 16:00:00 21.66667 C 4 g/m*3 21.67 C 0 km/h
1492 16-05-2003 17:00:00 22.7 C 4.07 g/m*3 22.7 C 0 km/h
1493 16-05-2003 18:00:00 21.01667 C 4.65 g/m*3 21.02 C 0 km/h
1494 16-05-2003 19:00:00 20.28333 C 5.62 g/m*3 20.28 C 0 km/h
1495 16-05-2003 20:00:00 17.1 C 5.87 g/m*3 17.1 C 0 km/h
1496 16-05-2003 21:00:00 14.46667 C 5.34 g/m*3 14.47 C 0 km/h
1497 16-05-2003 22:00:00 14.01667 C 5.33 g/m*3 14.02 C 0 km/h
1498 16-05-2003 23:00:00 13.95 C 5.31 g/m*3 13.95 C 0 km/h
1499 17-05-2003 00:00:00 13.8 C 5.24 g/m*3 13.8 C 0 km/h
1500 17-05-2003 01:00:00 13.88333 C 5.21 g/m*3 13.88 C 0 km/h
Sensor: Nr:Datum:Temp:Abs-Feuchte:Windchill:Wind:
Aussen-T/F 1501 17-05-2003 02:00:00 12.66667 C 5.5 g/m*3 12.67 C 0 km/h
1502 17-05-2003 03:00:00 12.13333 C 5.66 g/m*3 12.13 C 0 km/h
1503 17-05-2003 04:00:00 11.78333 C 5.96 g/m*3 11.78 C 0 km/h
1504 17-05-2003 05:00:00 11.45 C 6.06 g/m*3 11.45 C 0 km/h
1505 17-05-2003 06:00:00 11.7 C 6.5 g/m*3 11.7 C 0 km/h
1506 17-05-2003 07:00:00 11.62 C 6.99 g/m*3 11.62 C 0 km/h
1507 17-05-2003 08:00:00 11.2 C 7.5 g/m*3 11.2 C 0 km/h
1508 17-05-2003 09:00:00 11.41667 C 8.27 g/m*3 11.42 C 0 km/h
1509 17-05-2003 10:00:00 12.3 C 8.67 g/m*3 12.3 C 0 km/h
1510 17-05-2003 11:00:00 13.85 C 9.08 g/m*3 13.85 C 0 km/h
1511 17-05-2003 12:00:00 14.13333 C 9.02 g/m*3 14.13 C 0 km/h
1512 17-05-2003 13:00:00 14.68333 C 8.78 g/m*3 14.68 C 0 km/h
1513 17-05-2003 14:00:00 15.96667 C 8.5 g/m*3 15.97 C 0 km/h
1514 17-05-2003 15:00:00 16.48333 C 8.35 g/m*3 16.48 C 0 km/h
1515 17-05-2003 16:00:00 17.35 C 8.2 g/m*3 17.35 C 0 km/h
1516 17-05-2003 17:00:00 18.18333 C 8.28 g/m*3 18.18 C 0 km/h
1517 17-05-2003 18:00:00 19.11667 C 8.04 g/m*3 19.12 C 0 km/h
1518 17-05-2003 19:00:00 18.03333 C 7.8 g/m*3 18.03 C 0 km/h
1519 17-05-2003 20:00:00 17.78333 C 7.99 g/m*3 17.78 C 0 km/h
1520 17-05-2003 21:00:00 16.11667 C 8.39 g/m*3 16.12 C 0 km/h
1521 17-05-2003 22:00:00 14.35 C 8.79 g/m*3 14.35 C 0 km/h
1522 17-05-2003 23:00:00 14.08333 C 9.05 g/m*3 14.08 C 0 km/h
1523 18-05-2003 00:00:00 13.71667 C 9.56 g/m*3 13.72 C 0 km/h
1524 18-05-2003 01:00:00 13.4 C 9.71 g/m*3 13.4 C 0 km/h
1525 18-05-2003 02:00:00 13.01667 C 9.74 g/m*3 13.02 C 0 km/h
Sensor: Nr:Datum:Temp:Abs-Feuchte:Windchill:Wind:
Aussen-T/F 1526 18-05-2003 03:00:00 13.53333 C 9.47 g/m*3 13.53 C 0 km/h
1527 18-05-2003 04:00:00 13.85 C 9.34 g/m*3 13.85 C 0 km/h
1528 18-05-2003 05:00:00 13.2 C 9.55 g/m*3 13.2 C 0 km/h
1529 18-05-2003 06:00:00 13.4 C 9.67 g/m*3 13.4 C 0 km/h
1530 18-05-2003 07:00:00 14.25 C 9.76 g/m*3 14.25 C 0 km/h
1531 18-05-2003 08:00:00 15.11667 C 9.56 g/m*3 15.12 C 0 km/h
1532 18-05-2003 09:00:00 16.36667 C 9.33 g/m*3 16.37 C 0 km/h
1533 18-05-2003 10:00:00 17.58333 C 8.74 g/m*3 17.58 C 0 km/h
1534 18-05-2003 11:00:00 17.7 C 8.65 g/m*3 17.7 C 0 km/h
1535 18-05-2003 12:00:00 18.36667 C 7.93 g/m*3 18.37 C 0 km/h
1536 18-05-2003 13:00:00 20.23333 C 7.3 g/m*3 20.23 C 0 km/h
1537 18-05-2003 14:00:00 19.98333 C 7.48 g/m*3 19.98 C 0 km/h
1538 18-05-2003 15:00:00 20.71667 C 7.48 g/m*3 20.72 C 0 km/h
1539 18-05-2003 16:00:00 20.8125 C 7.77 g/m*3 20.81 C 0 km/h
1540 18-05-2003 17:00:00 19.83333 C 8.07 g/m*3 19.83 C 0 km/h
1541 18-05-2003 18:00:00 17.78333 C 9.48 g/m*3 17.78 C 0 km/h
1542 18-05-2003 19:00:00 16.13333 C 10.85 g/m*3 16.13 C 0 km/h
1543 18-05-2003 20:00:00 15.13333 C 11.57 g/m*3 15.13 C 0 km/h
1544 18-05-2003 21:00:00 14.65 C 11.44 g/m*3 14.65 C 0 km/h
1545 18-05-2003 22:00:00 14.14286 C 10.81 g/m*3 14.14 C 0 km/h
1546 18-05-2003 23:00:00 13.63333 C 10.71 g/m*3 13.63 C 0 km/h
1547 19-05-2003 00:00:00 13.51667 C 10.48 g/m*3 13.52 C 0 km/h
1548 19-05-2003 01:00:00 13.2 C 10.45 g/m*3 13.2 C 0 km/h
1549 19-05-2003 02:00:00 12.78 C 10.4 g/m*3 12.78 C 0 km/h
1550 19-05-2003 03:00:00 12.7 C 10.41 g/m*3 12.7 C 0 km/h
Sensor: Nr:Datum:Temp:Abs-Feuchte:Windchill:Wind:
Aussen-T/F 1551 19-05-2003 04:00:00 12.66667 C 10.44 g/m*3 12.67 C 0 km/h
1552 19-05-2003 05:00:00 12.33333 C 10.14 g/m*3 12.33 C 0 km/h
1553 19-05-2003 06:00:00 11.7 C 9.74 g/m*3 11.7 C 0 km/h
1554 19-05-2003 07:00:00 12.65 C 10.38 g/m*3 12.65 C 0 km/h
1555 19-05-2003 08:00:00 13.7 C 10.56 g/m*3 13.7 C 0 km/h
1556 19-05-2003 09:00:00 14.375 C 9.98 g/m*3 14.38 C 0 km/h
1557 19-05-2003 10:00:00 14.86667 C 10.01 g/m*3 14.87 C 0 km/h
1558 19-05-2003 11:00:00 14.6 C 10.54 g/m*3 14.6 C 0 km/h
1559 19-05-2003 12:00:00 15.08333 C 11.11 g/m*3 15.08 C 0 km/h
1560 19-05-2003 13:00:00 15.65 C 11.47 g/m*3 15.65 C 0 km/h
1561 19-05-2003 14:00:00 15.61667 C 11.6 g/m*3 15.62 C 0 km/h
1562 19-05-2003 15:00:00 15.3 C 11.3 g/m*3 15.3 C 0 km/h
1563 19-05-2003 16:00:00 13.93333 C 10.85 g/m*3 13.93 C 0 km/h
1564 19-05-2003 17:00:00 14.21667 C 10.98 g/m*3 14.22 C 0 km/h
1565 19-05-2003 18:00:00 14.35 C 10.66 g/m*3 14.35 C 0 km/h
1566 19-05-2003 19:00:00 13.86667 C 10.57 g/m*3 13.87 C 0 km/h
1567 19-05-2003 20:00:00 13.58333 C 10.25 g/m*3 13.58 C 0 km/h
1568 19-05-2003 21:00:00 12.96667 C 9.53 g/m*3 12.97 C 0 km/h
1569 19-05-2003 22:00:00 12.68333 C 9.43 g/m*3 12.68 C 0 km/h
1570 19-05-2003 23:00:00 12.27143 C 9.28 g/m*3 12.27 C 0 km/h
1571 20-05-2003 00:00:00 11.16667 C 8.09 g/m*3 11.17 C 0 km/h
1572 20-05-2003 01:00:00 10.63333 C 7.73 g/m*3 10.63 C 0 km/h
1573 20-05-2003 02:00:00 10.03333 C 7.89 g/m*3 10.03 C 0 km/h
1574 20-05-2003 03:00:00 9.46667 C 7.99 g/m*3 9.47 C 0 km/h
1575 20-05-2003 04:00:00 9.11667 C 8.02 g/m*3 9.12 C 0 km/h
Sensor: Nr:Datum:Temp:Abs-Feuchte:Windchill:Wind:
Aussen-T/F 1576 20-05-2003 05:00:00 9.51667 C 8.23 g/m*3 9.52 C 0 km/h
1577 20-05-2003 06:00:00 10.28333 C 8.2 g/m*3 10.28 C 0 km/h
1578 20-05-2003 07:00:00 10.7 C 8.35 g/m*3 10.7 C 0 km/h
1579 20-05-2003 08:00:00 11.75 C 8.08 g/m*3 11.75 C 0 km/h
1580 20-05-2003 09:00:00 12.25 C 7.16 g/m*3 12.25 C 0 km/h
1581 20-05-2003 10:00:00 12.33333 C 5.84 g/m*3 12.33 C 0 km/h
1582 20-05-2003 11:00:00 13.83333 C 5.89 g/m*3 13.83 C 0 km/h
1583 20-05-2003 12:00:00 15.2 C 5.43 g/m*3 15.2 C 0 km/h
1584 20-05-2003 13:00:00 16.96667 C 5.32 g/m*3 16.97 C 0 km/h
1585 20-05-2003 14:00:00 16.43333 C 5.64 g/m*3 16.43 C 0 km/h
1586 20-05-2003 15:00:00 17.21667 C 5.57 g/m*3 17.22 C 0 km/h
1587 20-05-2003 16:00:00 18.5 C 5.14 g/m*3 18.5 C 0 km/h
1588 20-05-2003 17:00:00 16.53333 C 5.75 g/m*3 16.53 C 0 km/h
1589 20-05-2003 18:00:00 15.43333 C 6.3 g/m*3 15.43 C 0 km/h
1590 20-05-2003 19:00:00 14.71667 C 6.81 g/m*3 14.72 C 0 km/h
1591 20-05-2003 20:00:00 14.55 C 6.82 g/m*3 14.55 C 0 km/h
1592 20-05-2003 21:00:00 12.01667 C 6.95 g/m*3 12.02 C 0 km/h
1593 20-05-2003 22:00:00 11.36667 C 7.05 g/m*3 11.37 C 0 km/h
1594 20-05-2003 23:00:00 11.36667 C 7.14 g/m*3 11.37 C 0 km/h
1595 21-05-2003 00:00:00 11.2 C 6.54 g/m*3 11.2 C 0 km/h
1596 21-05-2003 01:00:00 10.75 C 6.08 g/m*3 10.75 C 0 km/h
1597 21-05-2003 02:00:00 9.61667 C 6.53 g/m*3 9.62 C 0 km/h
1598 21-05-2003 03:00:00 9.4 C 7.01 g/m*3 9.4 C 0 km/h
1599 21-05-2003 04:00:00 9.25 C 7.42 g/m*3 9.25 C 0 km/h
1600 21-05-2003 05:00:00 9.01667 C 7.58 g/m*3 9.02 C 0 km/h
Sensor: Nr:Datum:Temp:Abs-Feuchte:Windchill:Wind:
Aussen-T/F 1601 21-05-2003 06:00:00 8.98 C 7.77 g/m*3 8.98 C 0 km/h
1602 21-05-2003 07:00:00 9.65 C 7.73 g/m*3 9.65 C 0 km/h
1603 21-05-2003 08:00:00 10.7 C 7.78 g/m*3 10.7 C 0 km/h
1604 21-05-2003 09:00:00 12.06667 C 7.74 g/m*3 12.07 C 0 km/h
1605 21-05-2003 10:00:00 13.38333 C 7.65 g/m*3 13.38 C 0 km/h
1606 21-05-2003 11:00:00 14.18333 C 7.77 g/m*3 14.18 C 0 km/h
1607 21-05-2003 12:00:00 16.05 C 7.52 g/m*3 16.05 C 0 km/h
1608 21-05-2003 13:00:00 14.01667 C 8.61 g/m*3 14.02 C 0 km/h
1609 21-05-2003 14:00:00 14.91667 C 8.29 g/m*3 14.92 C 0 km/h
1610 21-05-2003 15:00:00 12.46667 C 8.32 g/m*3 12.47 C 0 km/h
1611 21-05-2003 16:00:00 13.36667 C 8.58 g/m*3 13.37 C 0 km/h
1612 21-05-2003 17:00:00 12.76667 C 8.46 g/m*3 12.77 C 0 km/h
1613 21-05-2003 18:00:00 13.66667 C 9.04 g/m*3 13.67 C 0 km/h
1614 21-05-2003 19:00:00 12.78333 C 9.38 g/m*3 12.78 C 0 km/h
1615 21-05-2003 20:00:00 12.1 C 9.31 g/m*3 12.1 C 0 km/h
1616 21-05-2003 21:00:00 11.58333 C 9.31 g/m*3 11.58 C 0 km/h
1617 21-05-2003 22:00:00 11.7 C 8.94 g/m*3 11.7 C 0 km/h
1618 21-05-2003 23:00:00 11.63333 C 8.68 g/m*3 11.63 C 0 km/h
1619 22-05-2003 00:00:00 11.1 C 8.56 g/m*3 11.1 C 0 km/h
1620 22-05-2003 01:00:00 10.8 C 8.63 g/m*3 10.8 C 0 km/h
1621 22-05-2003 02:00:00 10.53333 C 8.55 g/m*3 10.53 C 0 km/h
1622 22-05-2003 03:00:00 10.4 C 8.51 g/m*3 10.4 C 0 km/h
1623 22-05-2003 04:00:00 10.58333 C 8.55 g/m*3 10.58 C 0 km/h
1624 22-05-2003 05:00:00 10.88333 C 8.61 g/m*3 10.88 C 0 km/h
1625 22-05-2003 06:00:00 10.8 C 8.96 g/m*3 10.8 C 0 km/h
Sensor: Nr:Datum:Temp:Abs-Feuchte:Windchill:Wind:
Aussen-T/F 1626 22-05-2003 07:00:00 11.16667 C 9.15 g/m*3 11.17 C 0 km/h
1627 22-05-2003 08:00:00 11.91667 C 9.24 g/m*3 11.92 C 0 km/h
1628 22-05-2003 09:00:00 12.71667 C 9.42 g/m*3 12.72 C 0 km/h
1629 22-05-2003 10:00:00 13.43333 C 9.67 g/m*3 13.43 C 0 km/h
1630 22-05-2003 11:00:00 14.28333 C 9.94 g/m*3 14.28 C 0 km/h
1631 22-05-2003 12:00:00 14.71667 C 10.31 g/m*3 14.72 C 0 km/h
1632 22-05-2003 13:00:00 15 C 10.79 g/m*3 15 C 0 km/h
1633 22-05-2003 14:00:00 16.55 C 10.99 g/m*3 16.55 C 0 km/h
1634 22-05-2003 15:00:00 17.61667 C 10.98 g/m*3 17.62 C 0 km/h
1635 22-05-2003 16:00:00 17.51667 C 11.62 g/m*3 17.52 C 0 km/h
1636 22-05-2003 17:00:00 18 C 12.62 g/m*3 18 C 0 km/h
1637 22-05-2003 18:00:00 17.8 C 12.55 g/m*3 17.8 C 0 km/h
1638 22-05-2003 19:00:00 16.58333 C 11.62 g/m*3 16.58 C 0 km/h
1639 22-05-2003 20:00:00 15.95 C 11.43 g/m*3 15.95 C 0 km/h
1640 22-05-2003 21:00:00 15.53333 C 11.44 g/m*3 15.53 C 0 km/h
1641 22-05-2003 22:00:00 15.11667 C 10.85 g/m*3 15.12 C 0 km/h
1642 22-05-2003 23:00:00 14.55 C 10.69 g/m*3 14.55 C 0 km/h
1643 23-05-2003 00:00:00 14.53333 C 10.86 g/m*3 14.53 C 0 km/h
1644 23-05-2003 01:00:00 14.56 C 10.91 g/m*3 14.56 C 0 km/h
1645 23-05-2003 02:00:00 14.51667 C 10.91 g/m*3 14.52 C 0 km/h
1646 23-05-2003 03:00:00 15.15 C 10.93 g/m*3 15.15 C 0 km/h
1647 23-05-2003 04:00:00 15.5 C 11.02 g/m*3 15.5 C 0 km/h
1648 23-05-2003 05:00:00 15.6 C 10.77 g/m*3 15.6 C 0 km/h
1649 23-05-2003 06:00:00 15.66667 C 10.53 g/m*3 15.67 C 0 km/h
1650 23-05-2003 07:00:00 15.96667 C 10.33 g/m*3 15.97 C 0 km/h
Sensor: Nr:Datum:Temp:Abs-Feuchte:Windchill:Wind:
Aussen-T/F 1651 23-05-2003 08:00:00 16.45 C 9.85 g/m*3 16.45 C 0 km/h
1652 23-05-2003 09:00:00 17.58333 C 9.19 g/m*3 17.58 C 0 km/h
1653 23-05-2003 10:00:00 18.56667 C 8.97 g/m*3 18.57 C 0 km/h
1654 23-05-2003 11:00:00 19.58333 C 7.7 g/m*3 19.58 C 0 km/h
1655 23-05-2003 12:00:00 20.68333 C 7.31 g/m*3 20.68 C 0 km/h
1656 23-05-2003 13:00:00 22.13333 C 6.85 g/m*3 22.13 C 0 km/h
1657 23-05-2003 14:00:00 22.63333 C 6.61 g/m*3 22.63 C 0 km/h
1658 23-05-2003 15:00:00 23.85 C 6.69 g/m*3 23.85 C 0 km/h
1659 23-05-2003 16:00:00 23.78333 C 6.81 g/m*3 23.78 C 0 km/h
1660 23-05-2003 17:00:00 25.06667 C 6.62 g/m*3 25.07 C 0 km/h
1661 23-05-2003 18:00:00 24.53333 C 5.68 g/m*3 24.53 C 0 km/h
1662 23-05-2003 19:00:00 24.73333 C 6.12 g/m*3 24.73 C 0 km/h
1663 23-05-2003 20:00:00 22.03333 C 7.39 g/m*3 22.03 C 0 km/h
1664 23-05-2003 21:00:00 18.51667 C 7.76 g/m*3 18.52 C 0 km/h
1665 23-05-2003 22:00:00 16.88333 C 7.78 g/m*3 16.88 C 0 km/h
1666 23-05-2003 23:00:00 16.2 C 8.32 g/m*3 16.2 C 0 km/h
1667 24-05-2003 00:00:00 15.72 C 8.6 g/m*3 15.72 C 0 km/h
1668 24-05-2003 01:00:00 15.13333 C 8.62 g/m*3 15.13 C 0 km/h
1669 24-05-2003 02:00:00 14.78333 C 8.73 g/m*3 14.78 C 0 km/h
1670 24-05-2003 03:00:00 14.06667 C 8.64 g/m*3 14.07 C 0 km/h
1671 24-05-2003 04:00:00 13.38333 C 8.69 g/m*3 13.38 C 0 km/h
1672 24-05-2003 05:00:00 13.25 C 8.96 g/m*3 13.25 C 0 km/h
1673 24-05-2003 06:00:00 13.25 C 9.18 g/m*3 13.25 C 0 km/h
1674 24-05-2003 07:00:00 14.08333 C 9.36 g/m*3 14.08 C 0 km/h
1675 24-05-2003 08:00:00 14.55 C 9.61 g/m*3 14.55 C 0 km/h
Sensor: Nr:Datum:Temp:Abs-Feuchte:Windchill:Wind:
Aussen-T/F 1676 24-05-2003 09:00:00 16.5 C 10.18 g/m*3 16.5 C 0 km/h
1677 24-05-2003 10:00:00 18.81667 C 9.99 g/m*3 18.82 C 0 km/h
1678 24-05-2003 11:00:00 20.6 C 9.96 g/m*3 20.6 C 0 km/h
1679 24-05-2003 12:00:00 22.81667 C 9.49 g/m*3 22.82 C 0 km/h
1680 24-05-2003 13:00:00 24.66667 C 9.26 g/m*3 24.67 C 0 km/h
1681 24-05-2003 14:00:00 26.55 C 9.41 g/m*3 26.55 C 0 km/h
1682 24-05-2003 15:00:00 26.76667 C 8.93 g/m*3 26.77 C 0 km/h
1683 24-05-2003 16:00:00 27.66667 C 9.35 g/m*3 27.67 C 0 km/h
1684 24-05-2003 17:00:00 28.1 C 9.84 g/m*3 28.1 C 0 km/h
1685 24-05-2003 18:00:00 26.83333 C 9.39 g/m*3 26.83 C 0 km/h
1686 24-05-2003 19:00:00 23.35 C 10.03 g/m*3 23.35 C 0 km/h
1687 24-05-2003 20:00:00 22 C 10.29 g/m*3 22 C 0 km/h
1688 24-05-2003 21:00:00 20.88333 C 10.22 g/m*3 20.88 C 0 km/h
1689 24-05-2003 22:00:00 18.65 C 11.41 g/m*3 18.65 C 0 km/h
1690 24-05-2003 23:00:00 16.45 C 11.01 g/m*3 16.45 C 0 km/h
1691 25-05-2003 00:00:00 16.18333 C 10.79 g/m*3 16.18 C 0 km/h
1692 25-05-2003 01:00:00 15.88333 C 10.17 g/m*3 15.88 C 0 km/h
1693 25-05-2003 02:00:00 15.5 C 10.24 g/m*3 15.5 C 0 km/h
1694 25-05-2003 03:00:00 15.14286 C 10.7 g/m*3 15.14 C 0 km/h
1695 25-05-2003 04:00:00 14.35 C 10.89 g/m*3 14.35 C 0 km/h
1696 25-05-2003 05:00:00 14.11667 C 10.59 g/m*3 14.12 C 0 km/h
1697 25-05-2003 06:00:00 13.6 C 10.21 g/m*3 13.6 C 0 km/h
1698 25-05-2003 07:00:00 13.63333 C 10.04 g/m*3 13.63 C 0 km/h
1699 25-05-2003 08:00:00 14.16667 C 9.77 g/m*3 14.17 C 0 km/h
1700 25-05-2003 09:00:00 14.73333 C 9.29 g/m*3 14.73 C 0 km/h
Sensor: Nr:Datum:Temp:Abs-Feuchte:Windchill:Wind:
Aussen-T/F 1701 25-05-2003 10:00:00 15.85 C 8.87 g/m*3 15.85 C 0 km/h
1702 25-05-2003 11:00:00 17.38333 C 8.32 g/m*3 17.38 C 0 km/h
1703 25-05-2003 12:00:00 17.51667 C 7.93 g/m*3 17.52 C 0 km/h
1704 25-05-2003 13:00:00 18.23333 C 7.45 g/m*3 18.23 C 0 km/h
1705 25-05-2003 14:00:00 18.03333 C 7.41 g/m*3 18.03 C 0 km/h
1706 25-05-2003 15:00:00 19.31667 C 7.28 g/m*3 19.32 C 0 km/h
1707 25-05-2003 16:00:00 18.91667 C 6.76 g/m*3 18.92 C 0 km/h
1708 25-05-2003 17:00:00 18.66667 C 7.11 g/m*3 18.67 C 0 km/h
1709 25-05-2003 18:00:00 17.68333 C 7.01 g/m*3 17.68 C 0 km/h
1710 25-05-2003 19:00:00 17.2 C 7.22 g/m*3 17.2 C 0 km/h
1711 25-05-2003 20:00:00 16.68333 C 7.5 g/m*3 16.68 C 0 km/h
1712 25-05-2003 21:00:00 14.55 C 7.61 g/m*3 14.55 C 0 km/h
1713 25-05-2003 22:00:00 14.06667 C 7.99 g/m*3 14.07 C 0 km/h
1714 25-05-2003 23:00:00 13.46667 C 8 g/m*3 13.47 C 0 km/h
1715 26-05-2003 00:00:00 13.18333 C 8.07 g/m*3 13.18 C 0 km/h
1716 26-05-2003 01:00:00 12.95 C 8.4 g/m*3 12.95 C 0 km/h
1717 26-05-2003 02:00:00 13 C 8.35 g/m*3 13 C 0 km/h
1718 26-05-2003 03:00:00 12.53333 C 8.28 g/m*3 12.53 C 0 km/h
1719 26-05-2003 04:00:00 12.48333 C 8.05 g/m*3 12.48 C 0 km/h
1720 26-05-2003 05:00:00 12.33333 C 8.09 g/m*3 12.33 C 0 km/h
1721 26-05-2003 06:00:00 12.53333 C 8.26 g/m*3 12.53 C 0 km/h
1722 26-05-2003 07:00:00 13.08333 C 8.34 g/m*3 13.08 C 0 km/h
1723 26-05-2003 08:00:00 14.23333 C 8.42 g/m*3 14.23 C 0 km/h
1724 26-05-2003 09:00:00 15.71667 C 8.37 g/m*3 15.72 C 0 km/h
1725 26-05-2003 10:00:00 17.45 C 8.18 g/m*3 17.45 C 0 km/h
Sensor: Nr:Datum:Temp:Abs-Feuchte:Windchill:Wind:
Aussen-T/F 1726 26-05-2003 11:00:00 18.91667 C 7.84 g/m*3 18.92 C 0 km/h
1727 26-05-2003 12:00:00 20.23333 C 7.8 g/m*3 20.23 C 0 km/h
1728 26-05-2003 13:00:00 22.41667 C 7.12 g/m*3 22.42 C 0 km/h
1729 26-05-2003 14:00:00 22.72 C 7.08 g/m*3 22.72 C 0 km/h
1730 26-05-2003 15:00:00 23.61667 C 6.81 g/m*3 23.62 C 0 km/h
1731 26-05-2003 16:00:00 23.71667 C 6.92 g/m*3 23.72 C 0 km/h
1732 26-05-2003 17:00:00 24.75 C 6.77 g/m*3 24.75 C 0 km/h
1733 26-05-2003 18:00:00 23.76667 C 6.83 g/m*3 23.77 C 0 km/h
1734 26-05-2003 19:00:00 22.33333 C 7.39 g/m*3 22.33 C 0 km/h
1735 26-05-2003 20:00:00 20.23333 C 8.56 g/m*3 20.23 C 0 km/h
1736 26-05-2003 21:00:00 18.83333 C 8.63 g/m*3 18.83 C 0 km/h
1737 26-05-2003 22:00:00 18.38333 C 9.03 g/m*3 18.38 C 0 km/h
1738 26-05-2003 23:00:00 17.98333 C 9.16 g/m*3 17.98 C 0 km/h
1739 27-05-2003 00:00:00 17.28333 C 9.25 g/m*3 17.28 C 0 km/h
1740 27-05-2003 01:00:00 16.46667 C 9.18 g/m*3 16.47 C 0 km/h
1741 27-05-2003 02:00:00 16.13333 C 9.2 g/m*3 16.13 C 0 km/h
1742 27-05-2003 03:00:00 15.75 C 9.33 g/m*3 15.75 C 0 km/h
1743 27-05-2003 04:00:00 15.4 C 9.2 g/m*3 15.4 C 0 km/h
1744 27-05-2003 05:00:00 14.55 C 9.13 g/m*3 14.55 C 0 km/h
1745 27-05-2003 06:00:00 14.3 C 9.19 g/m*3 14.3 C 0 km/h
1746 27-05-2003 07:00:00 15.41667 C 9.47 g/m*3 15.42 C 0 km/h
1747 27-05-2003 08:00:00 16.13333 C 9.39 g/m*3 16.13 C 0 km/h
1748 27-05-2003 09:00:00 17.75 C 9.33 g/m*3 17.75 C 0 km/h
1749 27-05-2003 10:00:00 20.35 C 9.05 g/m*3 20.35 C 0 km/h
1750 27-05-2003 11:00:00 22.78333 C 8.93 g/m*3 22.78 C 0 km/h
Sensor: Nr:Datum:Temp:Abs-Feuchte:Windchill:Wind:
Aussen-T/F 1751 27-05-2003 12:00:00 23.78333 C 8.45 g/m*3 23.78 C 0 km/h
1752 27-05-2003 13:00:00 23.6 C 8.79 g/m*3 23.6 C 0 km/h
1753 27-05-2003 14:00:00 24.71667 C 8.53 g/m*3 24.72 C 0 km/h
1754 27-05-2003 15:00:00 25.01667 C 8.79 g/m*3 25.02 C 0 km/h
1755 27-05-2003 16:00:00 22.86667 C 9.04 g/m*3 22.87 C 0 km/h
1756 27-05-2003 17:00:00 22.6 C 9.27 g/m*3 22.6 C 0 km/h
1757 27-05-2003 18:00:00 22.21667 C 9.47 g/m*3 22.22 C 0 km/h
1758 27-05-2003 19:00:00 21.35 C 9.78 g/m*3 21.35 C 0 km/h
1759 27-05-2003 20:00:00 20.31667 C 10.09 g/m*3 20.32 C 0 km/h
1760 27-05-2003 21:00:00 19.13333 C 10.32 g/m*3 19.13 C 0 km/h
1761 27-05-2003 22:00:00 18.43333 C 10.35 g/m*3 18.43 C 0 km/h
1762 27-05-2003 23:00:00 17.91667 C 9.93 g/m*3 17.92 C 0 km/h
1763 28-05-2003 00:00:00 17.15 C 9.68 g/m*3 17.15 C 0 km/h
1764 28-05-2003 01:00:00 16.1 C 9.34 g/m*3 16.1 C 0 km/h
1765 28-05-2003 02:00:00 14.83333 C 9.12 g/m*3 14.83 C 0 km/h
1766 28-05-2003 03:00:00 13.96667 C 9.11 g/m*3 13.97 C 0 km/h
1767 28-05-2003 04:00:00 13.08333 C 9.12 g/m*3 13.08 C 0 km/h
1768 28-05-2003 05:00:00 12.6 C 9.2 g/m*3 12.6 C 0 km/h
1769 28-05-2003 06:00:00 12.75 C 9.32 g/m*3 12.75 C 0 km/h
1770 28-05-2003 07:00:00 13.73333 C 9.49 g/m*3 13.73 C 0 km/h
1771 28-05-2003 08:00:00 14.7 C 9.55 g/m*3 14.7 C 0 km/h
1772 28-05-2003 09:00:00 16.26 C 9.85 g/m*3 16.26 C 0 km/h
1773 28-05-2003 10:00:00 19.68333 C 9.78 g/m*3 19.68 C 0 km/h
1774 28-05-2003 11:00:00 22.61667 C 9.89 g/m*3 22.62 C 0 km/h
1775 28-05-2003 12:00:00 24.98333 C 9.28 g/m*3 24.98 C 0 km/h
Sensor: Nr:Datum:Temp:Abs-Feuchte:Windchill:Wind:
Aussen-T/F 1776 28-05-2003 13:00:00 27.25 C 9.05 g/m*3 27.25 C 0 km/h
1777 28-05-2003 14:00:00 26.8 C 9.29 g/m*3 26.8 C 0 km/h
1778 28-05-2003 15:00:00 27.16667 C 9.39 g/m*3 27.17 C 0 km/h
1779 28-05-2003 16:00:00 27.31667 C 9.3 g/m*3 27.32 C 0 km/h
1780 28-05-2003 17:00:00 28.9 C 9.05 g/m*3 28.9 C 0 km/h
1781 28-05-2003 18:00:00 28.13333 C 9.41 g/m*3 28.13 C 0 km/h
1782 28-05-2003 19:00:00 26.91667 C 9.14 g/m*3 26.92 C 0 km/h
1783 28-05-2003 20:00:00 24.86667 C 9.6 g/m*3 24.87 C 0 km/h
1784 28-05-2003 21:00:00 22.78333 C 9.61 g/m*3 22.78 C 0 km/h
1785 28-05-2003 22:00:00 21.11667 C 9.68 g/m*3 21.12 C 0 km/h
1786 28-05-2003 23:00:00 19.85 C 8.65 g/m*3 19.85 C 0 km/h
1787 29-05-2003 00:00:00 18.76667 C 8.38 g/m*3 18.77 C 0 km/h
1788 29-05-2003 01:00:00 18.08333 C 8.34 g/m*3 18.08 C 0 km/h
1789 29-05-2003 02:00:00 16.51667 C 8.5 g/m*3 16.52 C 0 km/h
1790 29-05-2003 03:00:00 15.66667 C 8.57 g/m*3 15.67 C 0 km/h
1791 29-05-2003 04:00:00 14.83333 C 8.78 g/m*3 14.83 C 0 km/h
1792 29-05-2003 05:00:00 14.71667 C 8.95 g/m*3 14.72 C 0 km/h
1793 29-05-2003 06:00:00 14.41667 C 9.07 g/m*3 14.42 C 0 km/h
1794 29-05-2003 07:00:00 14.73333 C 9.29 g/m*3 14.73 C 0 km/h
1795 29-05-2003 08:00:00 16.15 C 9.56 g/m*3 16.15 C 0 km/h
1796 29-05-2003 09:00:00 18.6 C 9.89 g/m*3 18.6 C 0 km/h
1797 29-05-2003 10:00:00 21.53333 C 9.89 g/m*3 21.53 C 0 km/h
1798 29-05-2003 11:00:00 24.11667 C 9.16 g/m*3 24.12 C 0 km/h
1799 29-05-2003 12:00:00 27.21667 C 8.03 g/m*3 27.22 C 0 km/h
1800 29-05-2003 13:00:00 28.7 C 8.24 g/m*3 28.7 C 0 km/h
Sensor: Nr:Datum:Temp:Abs-Feuchte:Windchill:Wind:
Aussen-T/F 1801 29-05-2003 14:00:00 28.8 C 9.09 g/m*3 28.8 C 0 km/h
1802 29-05-2003 15:00:00 28.55 C 9.9 g/m*3 28.55 C 0 km/h
1803 29-05-2003 16:00:00 31.06667 C 9.53 g/m*3 31.07 C 0 km/h
1804 29-05-2003 17:00:00 31.7 C 9.14 g/m*3 31.7 C 0 km/h
1805 29-05-2003 18:00:00 31.43333 C 9.77 g/m*3 31.43 C 0 km/h
1806 29-05-2003 19:00:00 30.68333 C 10.44 g/m*3 30.68 C 0 km/h
1807 29-05-2003 20:00:00 28.3 C 11.06 g/m*3 28.3 C 0 km/h
1808 29-05-2003 21:00:00 25.31667 C 11.13 g/m*3 25.32 C 0 km/h
1809 29-05-2003 22:00:00 23.3 C 10.94 g/m*3 23.3 C 0 km/h
1810 29-05-2003 23:00:00 22.33333 C 11.21 g/m*3 22.33 C 0 km/h
1811 30-05-2003 00:00:00 21.48333 C 10.68 g/m*3 21.48 C 0 km/h
1812 30-05-2003 01:00:00 20.4 C 10.53 g/m*3 20.4 C 0 km/h
1813 30-05-2003 02:00:00 19.73333 C 10.29 g/m*3 19.73 C 0 km/h
1814 30-05-2003 03:00:00 18.55 C 10.16 g/m*3 18.55 C 0 km/h
1815 30-05-2003 04:00:00 17.58 C 10.34 g/m*3 17.58 C 0 km/h
1816 30-05-2003 05:00:00 17.28333 C 10.3 g/m*3 17.28 C 0 km/h
1817 30-05-2003 06:00:00 17.2 C 10.59 g/m*3 17.2 C 0 km/h
1818 30-05-2003 07:00:00 18.95 C 10.89 g/m*3 18.95 C 0 km/h
1819 30-05-2003 08:00:00 21.05 C 11.05 g/m*3 21.05 C 0 km/h
1820 30-05-2003 09:00:00 23.28333 C 10.83 g/m*3 23.28 C 0 km/h
1821 30-05-2003 10:00:00 25.16667 C 11 g/m*3 25.17 C 0 km/h
1822 30-05-2003 11:00:00 27.06667 C 11.41 g/m*3 27.07 C 0 km/h
1823 30-05-2003 12:00:00 29.76667 C 10.88 g/m*3 29.77 C 0 km/h
1824 30-05-2003 13:00:00 31.33333 C 9.83 g/m*3 31.33 C 0 km/h
1825 30-05-2003 14:00:00 31.31667 C 10.14 g/m*3 31.32 C 0 km/h
Sensor: Nr:Datum:Temp:Abs-Feuchte:Windchill:Wind:
Aussen-T/F 1826 30-05-2003 15:00:00 31.85 C 10.27 g/m*3 31.85 C 0 km/h
1827 30-05-2003 16:00:00 32.81667 C 9.81 g/m*3 32.82 C 0 km/h
1828 30-05-2003 17:00:00 29 C 12.21 g/m*3 29 C 0 km/h
1829 30-05-2003 18:00:00 23.01667 C 12.55 g/m*3 23.02 C 0 km/h
1830 30-05-2003 19:00:00 24.48333 C 12.41 g/m*3 24.48 C 0 km/h
1831 30-05-2003 20:00:00 24.15 C 12.84 g/m*3 24.15 C 0 km/h
1832 30-05-2003 21:00:00 22.76667 C 12.68 g/m*3 22.77 C 0 km/h
1833 30-05-2003 22:00:00 22.03333 C 12.8 g/m*3 22.03 C 0 km/h
1834 30-05-2003 23:00:00 21.35 C 12.77 g/m*3 21.35 C 0 km/h
1835 31-05-2003 00:00:00 20.26667 C 12.9 g/m*3 20.27 C 0 km/h
1836 31-05-2003 01:00:00 19.51667 C 12.68 g/m*3 19.52 C 0 km/h
1837 31-05-2003 02:00:00 18.81667 C 12.55 g/m*3 18.82 C 0 km/h
1838 31-05-2003 03:00:00 18.08333 C 12.55 g/m*3 18.08 C 0 km/h
1839 31-05-2003 04:00:00 17.46667 C 12.45 g/m*3 17.47 C 0 km/h
1840 31-05-2003 05:00:00 16.66667 C 12.41 g/m*3 16.67 C 0 km/h
1841 31-05-2003 06:00:00 17.13333 C 12.62 g/m*3 17.13 C 0 km/h
1842 31-05-2003 07:00:00 17.13333 C 12.62 g/m*3 17.13 C 0 km/h
1843 31-05-2003 08:00:00 18.88333 C 12.76 g/m*3 18.88 C 0 km/h
1844 31-05-2003 09:00:00 20.5 C 13.2 g/m*3 20.5 C 0 km/h
1845 31-05-2003 10:00:00 24 C 13.63 g/m*3 24 C 0 km/h
1846 31-05-2003 11:00:00 26.23333 C 13.48 g/m*3 26.23 C 0 km/h
1847 31-05-2003 12:00:00 26.31667 C 13.34 g/m*3 26.32 C 0 km/h
1848 31-05-2003 13:00:00 29.05 C 12.38 g/m*3 29.05 C 0 km/h
1849 31-05-2003 14:00:00 27.7 C 12.75 g/m*3 27.7 C 0 km/h
1850 31-05-2003 15:00:00 27.35 C 13.03 g/m*3 27.35 C 0 km/h
Sensor: Nr:Datum:Temp:Abs-Feuchte:Windchill:Wind:
Aussen-T/F 1851 31-05-2003 16:00:00 25.3 C 12.41 g/m*3 25.3 C 0 km/h
1852 31-05-2003 17:00:00 26.33333 C 12.32 g/m*3 26.33 C 0 km/h
1853 31-05-2003 18:00:00 21.96667 C 14.14 g/m*3 21.97 C 0 km/h
1854 31-05-2003 19:00:00 19.61667 C 14.53 g/m*3 19.62 C 0 km/h
1855 31-05-2003 20:00:00 20.73333 C 14.13 g/m*3 20.73 C 0 km/h
1856 31-05-2003 21:00:00 19.66667 C 13.45 g/m*3 19.67 C 0 km/h
1857 31-05-2003 22:00:00 18.42 C 13.29 g/m*3 18.42 C 0 km/h
1858 31-05-2003 23:00:00 17.83333 C 13.18 g/m*3 17.83 C 0 km/h
1859 01-06-2003 00:00:00 17.46667 C 12.94 g/m*3 17.47 C 0 km/h
1860 01-06-2003 01:00:00 16.96667 C 12.64 g/m*3 16.97 C 0 km/h
1861 01-06-2003 02:00:00 17.43333 C 12.8 g/m*3 17.43 C 0 km/h
1862 01-06-2003 03:00:00 17.31667 C 12.83 g/m*3 17.32 C 0 km/h
1863 01-06-2003 04:00:00 17.01667 C 12.67 g/m*3 17.02 C 0 km/h
1864 01-06-2003 05:00:00 16.8 C 12.63 g/m*3 16.8 C 0 km/h
1865 01-06-2003 06:00:00 17.1 C 12.57 g/m*3 17.1 C 0 km/h
1866 01-06-2003 07:00:00 17.91667 C 12.3 g/m*3 17.92 C 0 km/h
1867 01-06-2003 08:00:00 18.83333 C 12.26 g/m*3 18.83 C 0 km/h
1868 01-06-2003 09:00:00 20.81667 C 12.63 g/m*3 20.82 C 0 km/h
1869 01-06-2003 10:00:00 22.33333 C 12.76 g/m*3 22.33 C 0 km/h
1870 01-06-2003 11:00:00 24.5 C 13.54 g/m*3 24.5 C 0 km/h
1871 01-06-2003 12:00:00 27.6 C 13.12 g/m*3 27.6 C 0 km/h
1872 01-06-2003 13:00:00 29.28333 C 12.45 g/m*3 29.28 C 0 km/h
1873 01-06-2003 14:00:00 29.58333 C 12.16 g/m*3 29.58 C 0 km/h
1874 01-06-2003 15:00:00 30.75 C 11.89 g/m*3 30.75 C 0 km/h
1875 01-06-2003 16:00:00 30.7 C 12.81 g/m*3 30.7 C 0 km/h
Sensor: Nr:Datum:Temp:Abs-Feuchte:Windchill:Wind:
Aussen-T/F 1876 01-06-2003 17:00:00 30.9 C 12.41 g/m*3 30.9 C 0 km/h
1877 01-06-2003 18:00:00 31.24 C 11.22 g/m*3 31.24 C 0 km/h
1878 01-06-2003 19:00:00 30.78333 C 11.44 g/m*3 30.78 C 0 km/h
1879 01-06-2003 20:00:00 28.28333 C 12.43 g/m*3 28.28 C 0 km/h
1880 01-06-2003 21:00:00 24.03333 C 12.21 g/m*3 24.03 C 0 km/h
1881 01-06-2003 22:00:00 22.65 C 12.42 g/m*3 22.65 C 0 km/h
1882 01-06-2003 23:00:00 21.45 C 12.44 g/m*3 21.45 C 0 km/h
1883 02-06-2003 00:00:00 20.28333 C 12.36 g/m*3 20.28 C 0 km/h
1884 02-06-2003 01:00:00 19.33333 C 12.19 g/m*3 19.33 C 0 km/h
1885 02-06-2003 02:00:00 18.65 C 12.05 g/m*3 18.65 C 0 km/h
1886 02-06-2003 03:00:00 17.81667 C 11.98 g/m*3 17.82 C 0 km/h
1887 02-06-2003 04:00:00 17.38333 C 11.94 g/m*3 17.38 C 0 km/h
1888 02-06-2003 05:00:00 16.8 C 11.77 g/m*3 16.8 C 0 km/h
1889 02-06-2003 06:00:00 16.88333 C 11.85 g/m*3 16.88 C 0 km/h
1890 02-06-2003 07:00:00 17.91667 C 12.1 g/m*3 17.92 C 0 km/h
1891 02-06-2003 08:00:00 19.36667 C 12.41 g/m*3 19.37 C 0 km/h
1892 02-06-2003 09:00:00 22.5 C 12.95 g/m*3 22.5 C 0 km/h
1893 02-06-2003 10:00:00 25.73333 C 12.59 g/m*3 25.73 C 0 km/h
1894 02-06-2003 11:00:00 27.55 C 12.38 g/m*3 27.55 C 0 km/h
1895 02-06-2003 12:00:00 27.76667 C 12.57 g/m*3 27.77 C 0 km/h
1896 02-06-2003 13:00:00 29.2 C 11.23 g/m*3 29.2 C 0 km/h
1897 02-06-2003 14:00:00 29.35 C 11.51 g/m*3 29.35 C 0 km/h
1898 02-06-2003 15:00:00 30.21667 C 10.69 g/m*3 30.22 C 0 km/h
1899 02-06-2003 16:00:00 30.4 C 10.54 g/m*3 30.4 C 0 km/h
1900 02-06-2003 17:00:00 29.24 C 11.52 g/m*3 29.24 C 0 km/h
Sensor: Nr:Datum:Temp:Abs-Feuchte:Windchill:Wind:
Aussen-T/F 1901 02-06-2003 18:00:00 28.53333 C 11.29 g/m*3 28.53 C 0 km/h
1902 02-06-2003 19:00:00 26.93333 C 12.91 g/m*3 26.93 C 0 km/h
1903 02-06-2003 20:00:00 26.1 C 11.87 g/m*3 26.1 C 0 km/h
1904 02-06-2003 21:00:00 23.66667 C 12.2 g/m*3 23.67 C 0 km/h
1905 02-06-2003 22:00:00 22.86 C 11.74 g/m*3 22.86 C 0 km/h
1906 02-06-2003 23:00:00 22.11667 C 12.11 g/m*3 22.12 C 0 km/h
1907 03-06-2003 00:00:00 21.23333 C 12.5 g/m*3 21.23 C 0 km/h
1908 03-06-2003 01:00:00 20.51667 C 12.76 g/m*3 20.52 C 0 km/h
1909 03-06-2003 02:00:00 20.31667 C 12.85 g/m*3 20.32 C 0 km/h
1910 03-06-2003 03:00:00 19.75 C 12.89 g/m*3 19.75 C 0 km/h
1911 03-06-2003 04:00:00 19.41667 C 12.94 g/m*3 19.42 C 0 km/h
1912 03-06-2003 05:00:00 19.21667 C 12.98 g/m*3 19.22 C 0 km/h
1913 03-06-2003 06:00:00 19.21667 C 13.01 g/m*3 19.22 C 0 km/h
1914 03-06-2003 07:00:00 19.76667 C 13.13 g/m*3 19.77 C 0 km/h
1915 03-06-2003 08:00:00 20.66667 C 13.06 g/m*3 20.67 C 0 km/h
1916 03-06-2003 09:00:00 22.41667 C 13.02 g/m*3 22.42 C 0 km/h
1917 03-06-2003 10:00:00 23.4 C 12.79 g/m*3 23.4 C 0 km/h
1918 03-06-2003 11:00:00 26.23333 C 12.5 g/m*3 26.23 C 0 km/h
1919 03-06-2003 12:00:00 29.13333 C 11.81 g/m*3 29.13 C 0 km/h
1920 03-06-2003 13:00:00 31 C 10.35 g/m*3 31 C 0 km/h
1921 03-06-2003 14:00:00 30.7 C 10.92 g/m*3 30.7 C 0 km/h
1922 03-06-2003 15:00:00 30.85 C 11.43 g/m*3 30.85 C 0 km/h
1923 03-06-2003 16:00:00 31.68333 C 11.12 g/m*3 31.68 C 0 km/h
1924 03-06-2003 17:00:00 28.35 C 14.46 g/m*3 28.35 C 0 km/h
1925 03-06-2003 18:00:00 23.65 C 17.35 g/m*3 23.65 C 0 km/h
Sensor: Nr:Datum:Temp:Abs-Feuchte:Windchill:Wind:
Aussen-T/F 1926 03-06-2003 19:00:00 20.31667 C 15.14 g/m*3 20.32 C 0 km/h
1927 03-06-2003 20:00:00 19.41667 C 14.81 g/m*3 19.42 C 0 km/h
1928 03-06-2003 21:00:00 19.28333 C 14.53 g/m*3 19.28 C 0 km/h
1929 03-06-2003 22:00:00 19.31667 C 14.47 g/m*3 19.32 C 0 km/h
1930 03-06-2003 23:00:00 19.06667 C 14.56 g/m*3 19.07 C 0 km/h
1931 04-06-2003 00:00:00 19.01667 C 14.41 g/m*3 19.02 C 0 km/h
1932 04-06-2003 01:00:00 18.58333 C 14.15 g/m*3 18.58 C 0 km/h
1933 04-06-2003 02:00:00 18.7 C 14.25 g/m*3 18.7 C 0 km/h
1934 04-06-2003 03:00:00 18.75 C 14.43 g/m*3 18.75 C 0 km/h
1935 04-06-2003 04:00:00 18.7 C 14.25 g/m*3 18.7 C 0 km/h
1936 04-06-2003 05:00:00 18.36667 C 14.05 g/m*3 18.37 C 0 km/h
1937 04-06-2003 06:00:00 18.53333 C 14.19 g/m*3 18.53 C 0 km/h
1938 04-06-2003 07:00:00 19 C 14.42 g/m*3 19 C 0 km/h
1939 04-06-2003 08:00:00 20.25 C 14.53 g/m*3 20.25 C 0 km/h
1940 04-06-2003 09:00:00 21.26667 C 15.16 g/m*3 21.27 C 0 km/h
1941 04-06-2003 10:00:00 24.28333 C 16.07 g/m*3 24.28 C 0 km/h
1942 04-06-2003 11:00:00 27.71667 C 14.55 g/m*3 27.72 C 0 km/h
1943 04-06-2003 12:00:00 30.12 C 12.15 g/m*3 30.12 C 0 km/h
1944 04-06-2003 13:00:00 31.41667 C 9.98 g/m*3 31.42 C 0 km/h
1945 04-06-2003 14:00:00 31.36667 C 9.9 g/m*3 31.37 C 0 km/h
1946 04-06-2003 15:00:00 32.11667 C 8.78 g/m*3 32.12 C 0 km/h
1947 04-06-2003 16:00:00 31.83333 C 8.48 g/m*3 31.83 C 0 km/h
1948 04-06-2003 17:00:00 31.88333 C 8.89 g/m*3 31.88 C 0 km/h
1949 04-06-2003 18:00:00 31.98333 C 9.16 g/m*3 31.98 C 0 km/h
1950 04-06-2003 19:00:00 31.61667 C 10.09 g/m*3 31.62 C 0 km/h
Sensor: Nr:Datum:Temp:Abs-Feuchte:Windchill:Wind:
Aussen-T/F 1951 04-06-2003 20:00:00 30.11667 C 11.49 g/m*3 30.12 C 0 km/h
1952 04-06-2003 21:00:00 27.08333 C 12.15 g/m*3 27.08 C 0 km/h
1953 04-06-2003 22:00:00 25.18333 C 12.64 g/m*3 25.18 C 0 km/h
1954 04-06-2003 23:00:00 24.1 C 13.16 g/m*3 24.1 C 0 km/h
1955 05-06-2003 00:00:00 23 C 13.12 g/m*3 23 C 0 km/h
1956 05-06-2003 01:00:00 21.93333 C 12.86 g/m*3 21.93 C 0 km/h
1957 05-06-2003 02:00:00 21.83333 C 13.1 g/m*3 21.83 C 0 km/h
1958 05-06-2003 03:00:00 21.53333 C 13.19 g/m*3 21.53 C 0 km/h
1959 05-06-2003 04:00:00 20.83333 C 13.12 g/m*3 20.83 C 0 km/h
1960 05-06-2003 05:00:00 20.78333 C 13.08 g/m*3 20.78 C 0 km/h
1961 05-06-2003 06:00:00 20.43333 C 13.26 g/m*3 20.43 C 0 km/h
1962 05-06-2003 07:00:00 21.4 C 13.31 g/m*3 21.4 C 0 km/h
1963 05-06-2003 08:00:00 22.5 C 13.68 g/m*3 22.5 C 0 km/h
1964 05-06-2003 09:00:00 24.66667 C 13.44 g/m*3 24.67 C 0 km/h
1965 05-06-2003 10:00:00 27.06667 C 12.92 g/m*3 27.07 C 0 km/h
1966 05-06-2003 11:00:00 26.77143 C 13 g/m*3 26.77 C 0 km/h
1967 05-06-2003 12:00:00 24.66667 C 14.2 g/m*3 24.67 C 0 km/h
1968 05-06-2003 13:00:00 28.8 C 12.83 g/m*3 28.8 C 0 km/h
1969 05-06-2003 14:00:00 27.83333 C 12.62 g/m*3 27.83 C 0 km/h
1970 05-06-2003 15:00:00 22.98333 C 12.39 g/m*3 22.98 C 0 km/h
1971 05-06-2003 16:00:00 22.75 C 13 g/m*3 22.75 C 0 km/h
1972 05-06-2003 17:00:00 24.63333 C 11.84 g/m*3 24.63 C 0 km/h
1973 05-06-2003 18:00:00 22.65 C 11.72 g/m*3 22.65 C 0 km/h
1974 05-06-2003 19:00:00 21.66667 C 11.8 g/m*3 21.67 C 0 km/h
1975 05-06-2003 20:00:00 21.2 C 11.71 g/m*3 21.2 C 0 km/h
Sensor: Nr:Datum:Temp:Abs-Feuchte:Windchill:Wind:
Aussen-T/F 1976 05-06-2003 21:00:00 20.46667 C 11.34 g/m*3 20.47 C 0 km/h
1977 05-06-2003 22:00:00 19.41667 C 11.63 g/m*3 19.42 C 0 km/h
1978 05-06-2003 23:00:00 18.31667 C 11.66 g/m*3 18.32 C 0 km/h
1979 06-06-2003 00:00:00 17.61667 C 11.74 g/m*3 17.62 C 0 km/h
1980 06-06-2003 01:00:00 16.98333 C 11.66 g/m*3 16.98 C 0 km/h
1981 06-06-2003 02:00:00 16.28333 C 11.55 g/m*3 16.28 C 0 km/h
1982 06-06-2003 03:00:00 15.58333 C 11.38 g/m*3 15.58 C 0 km/h
1983 06-06-2003 04:00:00 15.13333 C 11.23 g/m*3 15.13 C 0 km/h
1984 06-06-2003 05:00:00 14.66667 C 11.18 g/m*3 14.67 C 0 km/h
1985 06-06-2003 06:00:00 14.66 C 11.23 g/m*3 14.66 C 0 km/h
1986 06-06-2003 07:00:00 15.41667 C 11.35 g/m*3 15.42 C 0 km/h
1987 06-06-2003 08:00:00 16.8 C 11.51 g/m*3 16.8 C 0 km/h
1988 06-06-2003 09:00:00 18.83333 C 11.81 g/m*3 18.83 C 0 km/h
1989 06-06-2003 10:00:00 21.81667 C 12.03 g/m*3 21.82 C 0 km/h
1990 06-06-2003 11:00:00 24.25 C 11.99 g/m*3 24.25 C 0 km/h
1991 06-06-2003 12:00:00 27.06667 C 10.85 g/m*3 27.07 C 0 km/h
1992 06-06-2003 13:00:00 29.01667 C 10.35 g/m*3 29.02 C 0 km/h
1993 06-06-2003 14:00:00 30.16667 C 10.51 g/m*3 30.17 C 0 km/h
1994 06-06-2003 15:00:00 30.71667 C 10.09 g/m*3 30.72 C 0 km/h
1995 06-06-2003 16:00:00 31.03333 C 10.1 g/m*3 31.03 C 0 km/h
1996 06-06-2003 17:00:00 29.61667 C 12.62 g/m*3 29.62 C 0 km/h
1997 06-06-2003 18:00:00 30.7 C 11.76 g/m*3 30.7 C 0 km/h
1998 06-06-2003 19:00:00 30.48333 C 11.21 g/m*3 30.48 C 0 km/h
1999 06-06-2003 20:00:00 28.41667 C 12.47 g/m*3 28.42 C 0 km/h
2000 06-06-2003 21:00:00 24.28333 C 11.98 g/m*3 24.28 C 0 km/h
Sensor: Nr:Datum:Temp:Abs-Feuchte:Windchill:Wind:
Aussen-T/F 2001 06-06-2003 22:00:00 22.65 C 11.92 g/m*3 22.65 C 0 km/h
2002 06-06-2003 23:00:00 21.65 C 12.05 g/m*3 21.65 C 0 km/h
2003 07-06-2003 00:00:00 20.58333 C 11.92 g/m*3 20.58 C 0 km/h
2004 07-06-2003 01:00:00 19.88333 C 12.1 g/m*3 19.88 C 0 km/h
2005 07-06-2003 02:00:00 19.03333 C 12.22 g/m*3 19.03 C 0 km/h
2006 07-06-2003 03:00:00 18.35 C 12.13 g/m*3 18.35 C 0 km/h
2007 07-06-2003 04:00:00 17.61667 C 12.09 g/m*3 17.62 C 0 km/h
2008 07-06-2003 05:00:00 17.3 C 11.98 g/m*3 17.3 C 0 km/h
2009 07-06-2003 06:00:00 17.23333 C 12.03 g/m*3 17.23 C 0 km/h
2010 07-06-2003 07:00:00 17.68333 C 12.23 g/m*3 17.68 C 0 km/h
2011 07-06-2003 08:00:00 19.05 C 12.5 g/m*3 19.05 C 0 km/h
2012 07-06-2003 09:00:00 21.81667 C 13.09 g/m*3 21.82 C 0 km/h
2013 07-06-2003 10:00:00 24.91667 C 14.51 g/m*3 24.92 C 0 km/h
2014 07-06-2003 11:00:00 28.18333 C 14.56 g/m*3 28.18 C 0 km/h
2015 07-06-2003 12:00:00 30.46667 C 12.54 g/m*3 30.47 C 0 km/h
2016 07-06-2003 13:00:00 29.75 C 12.62 g/m*3 29.75 C 0 km/h
2017 07-06-2003 14:00:00 31 C 12.27 g/m*3 31 C 0 km/h
2018 07-06-2003 15:00:00 31.48333 C 11.22 g/m*3 31.48 C 0 km/h
2019 07-06-2003 16:00:00 32.35 C 10.32 g/m*3 32.35 C 0 km/h
2020 07-06-2003 17:00:00 32.96667 C 10.19 g/m*3 32.97 C 0 km/h
2021 07-06-2003 18:00:00 31.55 C 11.97 g/m*3 31.55 C 0 km/h
2022 07-06-2003 19:00:00 31.63333 C 12.3 g/m*3 31.63 C 0 km/h
2023 07-06-2003 20:00:00 29.7 C 13.72 g/m*3 29.7 C 0 km/h
2024 07-06-2003 21:00:00 26.68333 C 13.78 g/m*3 26.68 C 0 km/h
2025 07-06-2003 22:00:00 24.71667 C 13.44 g/m*3 24.72 C 0 km/h
Sensor: Nr:Datum:Temp:Abs-Feuchte:Windchill:Wind:
Aussen-T/F 2026 07-06-2003 23:00:00 23.81667 C 13.49 g/m*3 23.82 C 0 km/h
2027 08-06-2003 00:00:00 22.88333 C 13.31 g/m*3 22.88 C 0 km/h
2028 08-06-2003 01:00:00 22.18 C 13.41 g/m*3 22.18 C 0 km/h
2029 08-06-2003 02:00:00 21.1 C 13.27 g/m*3 21.1 C 0 km/h
2030 08-06-2003 03:00:00 20.16667 C 13.23 g/m*3 20.17 C 0 km/h
2031 08-06-2003 04:00:00 19.56667 C 13.2 g/m*3 19.57 C 0 km/h
2032 08-06-2003 05:00:00 19.03333 C 13.06 g/m*3 19.03 C 0 km/h
2033 08-06-2003 06:00:00 18.86667 C 13.12 g/m*3 18.87 C 0 km/h
2034 08-06-2003 07:00:00 19.3 C 13.08 g/m*3 19.3 C 0 km/h
2035 08-06-2003 08:00:00 20.71667 C 13.66 g/m*3 20.72 C 0 km/h
2036 08-06-2003 09:00:00 23.73333 C 14.54 g/m*3 23.73 C 0 km/h
2037 08-06-2003 10:00:00 27.28333 C 14.64 g/m*3 27.28 C 0 km/h
2038 08-06-2003 11:00:00 29.46667 C 14.24 g/m*3 29.47 C 0 km/h
2039 08-06-2003 12:00:00 31.26667 C 12.34 g/m*3 31.27 C 0 km/h
2040 08-06-2003 13:00:00 31.26667 C 10.82 g/m*3 31.27 C 0 km/h
2041 08-06-2003 14:00:00 27.23333 C 14.12 g/m*3 27.23 C 0 km/h
2042 08-06-2003 15:00:00 29.6 C 12.36 g/m*3 29.6 C 0 km/h
2043 08-06-2003 16:00:00 28.96667 C 10.7 g/m*3 28.97 C 0 km/h
2044 08-06-2003 17:00:00 19.75 C 13.65 g/m*3 19.75 C 0 km/h
2045 08-06-2003 18:00:00 17.98333 C 14.22 g/m*3 17.98 C 0 km/h
2046 08-06-2003 19:00:00 19 C 14.72 g/m*3 19 C 0 km/h
2047 08-06-2003 20:00:00 20.21667 C 14.24 g/m*3 20.22 C 0 km/h
2048 08-06-2003 21:00:00 19.41667 C 13.89 g/m*3 19.42 C 0 km/h
2049 08-06-2003 22:00:00 19 C 14.2 g/m*3 19 C 0 km/h
2050 08-06-2003 23:00:00 19.08333 C 13.73 g/m*3 19.08 C 0 km/h
Sensor: Nr:Datum:Temp:Abs-Feuchte:Windchill:Wind:
Aussen-T/F 2051 09-06-2003 00:00:00 18.05 C 9.99 g/m*3 18.05 C 0 km/h
2052 09-06-2003 01:00:00 16.73333 C 8.9 g/m*3 16.73 C 0 km/h
2053 09-06-2003 02:00:00 15.58333 C 8.46 g/m*3 15.58 C 0 km/h
2054 09-06-2003 03:00:00 14.65 C 8.6 g/m*3 14.65 C 0 km/h
2055 09-06-2003 04:00:00 13.81667 C 8.23 g/m*3 13.82 C 0 km/h
2056 09-06-2003 05:00:00 12.66667 C 8.54 g/m*3 12.67 C 0 km/h
2057 09-06-2003 06:00:00 12.68333 C 8.8 g/m*3 12.68 C 0 km/h
2058 09-06-2003 07:00:00 13.6 C 8.32 g/m*3 13.6 C 0 km/h
2059 09-06-2003 08:00:00 14.21667 C 7.62 g/m*3 14.22 C 0 km/h
2060 09-06-2003 09:00:00 15.56667 C 7.01 g/m*3 15.57 C 0 km/h
2061 09-06-2003 10:00:00 17.46667 C 7.07 g/m*3 17.47 C 0 km/h
2062 09-06-2003 11:00:00 19.31667 C 7.06 g/m*3 19.32 C 0 km/h
2063 09-06-2003 12:00:00 21.9 C 6.85 g/m*3 21.9 C 0 km/h
2064 09-06-2003 13:00:00 24.15 C 6.73 g/m*3 24.15 C 0 km/h
2065 09-06-2003 14:00:00 24.8 C 7.28 g/m*3 24.8 C 0 km/h
2066 09-06-2003 15:00:00 25.93333 C 6.99 g/m*3 25.93 C 0 km/h
2067 09-06-2003 16:00:00 27.68333 C 7.22 g/m*3 27.68 C 0 km/h
2068 09-06-2003 17:00:00 28.02857 C 6.96 g/m*3 28.03 C 0 km/h
2069 09-06-2003 18:00:00 28.11667 C 6.71 g/m*3 28.12 C 0 km/h
2070 09-06-2003 19:00:00 27.56667 C 8.19 g/m*3 27.57 C 0 km/h
2071 09-06-2003 20:00:00 24.28 C 9.06 g/m*3 24.28 C 0 km/h
2072 09-06-2003 21:00:00 21.66667 C 8.69 g/m*3 21.67 C 0 km/h
2073 09-06-2003 22:00:00 19.38333 C 8.47 g/m*3 19.38 C 0 km/h
2074 09-06-2003 23:00:00 17.95 C 8.68 g/m*3 17.95 C 0 km/h
2075 10-06-2003 00:00:00 16.78333 C 8.95 g/m*3 16.78 C 0 km/h
Sensor: Nr:Datum:Temp:Abs-Feuchte:Windchill:Wind:
Aussen-T/F 2076 10-06-2003 01:00:00 15.71667 C 9.33 g/m*3 15.72 C 0 km/h
2077 10-06-2003 02:00:00 15.06667 C 9.51 g/m*3 15.07 C 0 km/h
2078 10-06-2003 03:00:00 14.51667 C 9.63 g/m*3 14.52 C 0 km/h
2079 10-06-2003 04:00:00 13.76667 C 9.43 g/m*3 13.77 C 0 km/h
2080 10-06-2003 05:00:00 13.46667 C 9.51 g/m*3 13.47 C 0 km/h
2081 10-06-2003 06:00:00 13.66667 C 9.59 g/m*3 13.67 C 0 km/h
2082 10-06-2003 07:00:00 14.61667 C 9.87 g/m*3 14.62 C 0 km/h
2083 10-06-2003 08:00:00 16.93333 C 10.02 g/m*3 16.93 C 0 km/h
2084 10-06-2003 09:00:00 20.03333 C 9.99 g/m*3 20.03 C 0 km/h
2085 10-06-2003 10:00:00 23.46667 C 10.03 g/m*3 23.47 C 0 km/h
2086 10-06-2003 11:00:00 26 C 11.56 g/m*3 26 C 0 km/h
2087 10-06-2003 12:00:00 29.8 C 11.3 g/m*3 29.8 C 0 km/h
2088 10-06-2003 13:00:00 31.76667 C 9.89 g/m*3 31.77 C 0 km/h
2089 10-06-2003 14:00:00 31.96667 C 10.67 g/m*3 31.97 C 0 km/h
2090 10-06-2003 15:00:00 32.25 C 11.35 g/m*3 32.25 C 0 km/h
2091 10-06-2003 16:00:00 30.76667 C 14.06 g/m*3 30.77 C 0 km/h
2092 10-06-2003 17:00:00 30.31667 C 14.4 g/m*3 30.32 C 0 km/h
2093 10-06-2003 18:00:00 25.91667 C 15.39 g/m*3 25.92 C 0 km/h
2094 10-06-2003 19:00:00 20.9 C 15.51 g/m*3 20.9 C 0 km/h
2095 10-06-2003 20:00:00 20.15 C 16.04 g/m*3 20.15 C 0 km/h
2096 10-06-2003 21:00:00 19.83333 C 15.72 g/m*3 19.83 C 0 km/h
2097 10-06-2003 22:00:00 19.45 C 15.23 g/m*3 19.45 C 0 km/h
2098 10-06-2003 23:00:00 19.18333 C 14.99 g/m*3 19.18 C 0 km/h
2099 11-06-2003 00:00:00 19.2 C 14.81 g/m*3 19.2 C 0 km/h
2100 11-06-2003 01:00:00 19.13333 C 14.73 g/m*3 19.13 C 0 km/h
Sensor: Nr:Datum:Temp:Abs-Feuchte:Windchill:Wind:
Aussen-T/F 2101 11-06-2003 02:00:00 18.86667 C 14.71 g/m*3 18.87 C 0 km/h
2102 11-06-2003 03:00:00 18.88333 C 14.73 g/m*3 18.88 C 0 km/h
2103 11-06-2003 04:00:00 18.68333 C 14.55 g/m*3 18.68 C 0 km/h
2104 11-06-2003 05:00:00 18.88333 C 14.62 g/m*3 18.88 C 0 km/h
2105 11-06-2003 06:00:00 19.26667 C 14.54 g/m*3 19.27 C 0 km/h
2106 11-06-2003 07:00:00 19.76667 C 14.69 g/m*3 19.77 C 0 km/h
2107 11-06-2003 08:00:00 20.4 C 14.59 g/m*3 20.4 C 0 km/h
2108 11-06-2003 09:00:00 22.01429 C 13.93 g/m*3 22.01 C 0 km/h
2109 11-06-2003 10:00:00 23.48333 C 13.42 g/m*3 23.48 C 0 km/h
2110 11-06-2003 11:00:00 25.46667 C 11.62 g/m*3 25.47 C 0 km/h
2111 11-06-2003 12:00:00 26.78333 C 9.87 g/m*3 26.78 C 0 km/h
2112 11-06-2003 13:00:00 28.25 C 8.91 g/m*3 28.25 C 0 km/h
2113 11-06-2003 14:00:00 28.02 C 9.31 g/m*3 28.02 C 0 km/h
2114 11-06-2003 15:00:00 29.41667 C 9.16 g/m*3 29.42 C 0 km/h
2115 11-06-2003 16:00:00 30.01667 C 9.16 g/m*3 30.02 C 0 km/h
2116 11-06-2003 17:00:00 30.21667 C 9.05 g/m*3 30.22 C 0 km/h
2117 11-06-2003 18:00:00 29.85 C 9.17 g/m*3 29.85 C 0 km/h
2118 11-06-2003 19:00:00 29.84286 C 10.09 g/m*3 29.84 C 0 km/h
2119 11-06-2003 20:00:00 28.3 C 11.31 g/m*3 28.3 C 0 km/h
2120 11-06-2003 21:00:00 24.9 C 12.28 g/m*3 24.9 C 0 km/h
2121 11-06-2003 22:00:00 22.44 C 12.1 g/m*3 22.44 C 0 km/h
2122 11-06-2003 23:00:00 21.39 C 12.05 g/m*3 21.39 C 0 km/h
2123 12-06-2003 00:00:00 20.14 C 12.14 g/m*3 20.14 C 0 km/h
2124 12-06-2003 01:00:00 19.21 C 12.21 g/m*3 19.21 C 0 km/h
2125 12-06-2003 02:00:00 18.3 C 12.26 g/m*3 18.3 C 0 km/h
Sensor: Nr:Datum:Temp:Abs-Feuchte:Windchill:Wind:
Aussen-T/F 2126 12-06-2003 03:00:00 17.71 C 12.17 g/m*3 17.71 C 0 km/h
2127 12-06-2003 04:00:00 17.21 C 11.94 g/m*3 17.21 C 0 km/h
2128 12-06-2003 05:00:00 16.69 C 11.96 g/m*3 16.69 C 0 km/h
2129 12-06-2003 06:00:00 16.83 C 12.02 g/m*3 16.83 C 0 km/h
2130 12-06-2003 07:00:00 17.3 C 12.21 g/m*3 17.3 C 0 km/h
2131 12-06-2003 08:00:00 18.66 C 12.46 g/m*3 18.66 C 0 km/h
2132 12-06-2003 09:00:00 21.32 C 12.35 g/m*3 21.32 C 0 km/h
2133 12-06-2003 10:00:00 24.66 C 12.24 g/m*3 24.66 C 0 km/h
2134 12-06-2003 11:00:00 27.47 C 12.33 g/m*3 27.47 C 0 km/h
2135 12-06-2003 12:00:00 30.46 C 10.45 g/m*3 30.46 C 0 km/h
2136 12-06-2003 13:00:00 31.87 C 8.78 g/m*3 31.87 C 0 km/h
2137 12-06-2003 14:00:00 31.74 C 9.62 g/m*3 31.74 C 0 km/h
2138 12-06-2003 15:00:00 32.12 C 9.65 g/m*3 32.12 C 0 km/h
2139 12-06-2003 16:00:00 31.31 C 10.93 g/m*3 31.31 C 0 km/h
2140 12-06-2003 17:00:00 23.71111 C 17.19 g/m*3 23.71 C 0 km/h
2141 12-06-2003 18:00:00 25.29 C 17.38 g/m*3 25.29 C 0 km/h
2142 12-06-2003 19:00:00 23.83 C 16.07 g/m*3 23.83 C 0 km/h
2143 12-06-2003 20:00:00 23.14 C 16.06 g/m*3 23.14 C 0 km/h
2144 12-06-2003 21:00:00 22.18 C 16.67 g/m*3 22.18 C 0 km/h
2145 12-06-2003 22:00:00 20.62222 C 16.31 g/m*3 20.62 C 0 km/h
2146 12-06-2003 23:00:00 19.92 C 15.58 g/m*3 19.92 C 0 km/h
2147 13-06-2003 00:00:00 19.69 C 15.48 g/m*3 19.69 C 0 km/h
2148 13-06-2003 01:00:00 18.93 C 14.38 g/m*3 18.93 C 0 km/h
2149 13-06-2003 02:00:00 17.94 C 13.05 g/m*3 17.94 C 0 km/h
2150 13-06-2003 03:00:00 17.01 C 12.34 g/m*3 17.01 C 0 km/h
Sensor: Nr:Datum:Temp:Abs-Feuchte:Windchill:Wind:
Aussen-T/F 2151 13-06-2003 04:00:00 16.69 C 12.03 g/m*3 16.69 C 0 km/h
2152 13-06-2003 05:00:00 16.59 C 11.69 g/m*3 16.59 C 0 km/h
2153 13-06-2003 06:00:00 16.69 C 11.87 g/m*3 16.69 C 0 km/h
2154 13-06-2003 07:00:00 17.35 C 12.13 g/m*3 17.35 C 0 km/h
2155 13-06-2003 08:00:00 18.26667 C 11.79 g/m*3 18.27 C 0 km/h
2156 13-06-2003 09:00:00 19.63 C 11.69 g/m*3 19.63 C 0 km/h
2157 13-06-2003 10:00:00 21.65556 C 11.73 g/m*3 21.66 C 0 km/h
2158 13-06-2003 11:00:00 23.25 C 11.84 g/m*3 23.25 C 0 km/h
2159 13-06-2003 12:00:00 25.57 C 11.62 g/m*3 25.57 C 0 km/h
2160 13-06-2003 13:00:00 27.85 C 10.63 g/m*3 27.85 C 0 km/h
2161 13-06-2003 14:00:00 27.81 C 10.07 g/m*3 27.81 C 0 km/h
2162 13-06-2003 15:00:00 29.77 C 9.49 g/m*3 29.77 C 0 km/h
2163 13-06-2003 16:00:00 30.58 C 8.51 g/m*3 30.58 C 0 km/h
2164 13-06-2003 17:00:00 30.59 C 7.95 g/m*3 30.59 C 0 km/h
2165 13-06-2003 18:00:00 30.81 C 7.48 g/m*3 30.81 C 0 km/h
2166 13-06-2003 19:00:00 30.3 C 7.43 g/m*3 30.3 C 0 km/h
2167 13-06-2003 20:00:00 28.2 C 8.41 g/m*3 28.2 C 0 km/h
2168 13-06-2003 21:00:00 23.08 C 8.8 g/m*3 23.08 C 0 km/h
2169 13-06-2003 22:00:00 20.68 C 8.94 g/m*3 20.68 C 0 km/h
2170 13-06-2003 23:00:00 19.52 C 8.97 g/m*3 19.52 C 0 km/h
2171 14-06-2003 00:00:00 18.4 C 9.11 g/m*3 18.4 C 0 km/h
2172 14-06-2003 01:00:00 17.19 C 9.34 g/m*3 17.19 C 0 km/h
2173 14-06-2003 02:00:00 16.3 C 9.42 g/m*3 16.3 C 0 km/h
2174 14-06-2003 03:00:00 15.42 C 9.54 g/m*3 15.42 C 0 km/h
2175 14-06-2003 04:00:00 14.91 C 9.44 g/m*3 14.91 C 0 km/h
Sensor: Nr:Datum:Temp:Abs-Feuchte:Windchill:Wind:
Aussen-T/F 2176 14-06-2003 05:00:00 14.41 C 9.59 g/m*3 14.41 C 0 km/h
2177 14-06-2003 06:00:00 14.49 C 9.88 g/m*3 14.49 C 0 km/h
2178 14-06-2003 07:00:00 14.84 C 10.04 g/m*3 14.84 C 0 km/h
2179 14-06-2003 08:00:00 16.85 C 10.12 g/m*3 16.85 C 0 km/h
2180 14-06-2003 09:00:00 19.8 C 10.47 g/m*3 19.8 C 0 km/h
2181 14-06-2003 10:00:00 23.34 C 10.25 g/m*3 23.34 C 0 km/h
2182 14-06-2003 11:00:00 25.93 C 10.69 g/m*3 25.93 C 0 km/h
2183 14-06-2003 12:00:00 23.6 C 12.42 g/m*3 23.6 C 0 km/h
2184 14-06-2003 13:00:00 19.28 C 12.41 g/m*3 19.28 C 0 km/h
2185 14-06-2003 14:00:00 17.75 C 13.23 g/m*3 17.75 C 0 km/h
2186 14-06-2003 15:00:00 20.96 C 13.65 g/m*3 20.96 C 0 km/h
2187 14-06-2003 16:00:00 23.39 C 12.55 g/m*3 23.39 C 0 km/h
2188 14-06-2003 17:00:00 23.56 C 12.35 g/m*3 23.56 C 0 km/h
2189 14-06-2003 18:00:00 23.46 C 13.19 g/m*3 23.46 C 0 km/h
2190 14-06-2003 19:00:00 21.63 C 13.64 g/m*3 21.63 C 0 km/h
2191 14-06-2003 20:00:00 20.73 C 13.47 g/m*3 20.73 C 0 km/h
2192 14-06-2003 21:00:00 20.02 C 13.31 g/m*3 20.02 C 0 km/h
2193 14-06-2003 22:00:00 19.4 C 13.13 g/m*3 19.4 C 0 km/h
2194 14-06-2003 23:00:00 18.6 C 12.65 g/m*3 18.6 C 0 km/h
2195 15-06-2003 00:00:00 17.73 C 11.94 g/m*3 17.73 C 0 km/h
2196 15-06-2003 01:00:00 17.33 C 11.79 g/m*3 17.33 C 0 km/h
2197 15-06-2003 02:00:00 16.68889 C 11.42 g/m*3 16.69 C 0 km/h
2198 15-06-2003 03:00:00 15.87 C 10.94 g/m*3 15.87 C 0 km/h
2199 15-06-2003 04:00:00 15.87 C 10.76 g/m*3 15.87 C 0 km/h
2200 15-06-2003 05:00:00 15.14 C 10.62 g/m*3 15.14 C 0 km/h
Sensor: Nr:Datum:Temp:Abs-Feuchte:Windchill:Wind:
Aussen-T/F 2201 15-06-2003 06:00:00 14.99 C 10.56 g/m*3 14.99 C 0 km/h
2202 15-06-2003 07:00:00 15.6 C 10.61 g/m*3 15.6 C 0 km/h
2203 15-06-2003 08:00:00 16.76 C 10.87 g/m*3 16.76 C 0 km/h
2204 15-06-2003 09:00:00 18.99 C 11.06 g/m*3 18.99 C 0 km/h
2205 15-06-2003 10:00:00 21.83 C 10.76 g/m*3 21.83 C 0 km/h
2206 15-06-2003 11:00:00 24.26 C 10.16 g/m*3 24.26 C 0 km/h
2207 15-06-2003 12:00:00 27.27 C 9.48 g/m*3 27.27 C 0 km/h
2208 15-06-2003 13:00:00 26.68 C 9.73 g/m*3 26.68 C 0 km/h
2209 15-06-2003 14:00:00 27.81 C 10.17 g/m*3 27.81 C 0 km/h
2210 15-06-2003 15:00:00 29.79 C 9.5 g/m*3 29.79 C 0 km/h
2211 15-06-2003 16:00:00 30.1 C 9.3 g/m*3 30.1 C 0 km/h
2212 15-06-2003 17:00:00 29.44 C 9.5 g/m*3 29.44 C 0 km/h
2213 15-06-2003 18:00:00 30.29 C 9.36 g/m*3 30.29 C 0 km/h
2214 15-06-2003 19:00:00 27.76 C 10.82 g/m*3 27.76 C 0 km/h
2215 15-06-2003 20:00:00 24.6 C 11.52 g/m*3 24.6 C 0 km/h
2216 15-06-2003 21:00:00 22.83333 C 10.86 g/m*3 22.83 C 0 km/h
2217 15-06-2003 22:00:00 22.2 C 10.21 g/m*3 22.2 C 0 km/h
2218 15-06-2003 23:00:00 21.05 C 9.83 g/m*3 21.05 C 0 km/h
2219 16-06-2003 00:00:00 19.86667 C 10.23 g/m*3 19.87 C 0 km/h
2220 16-06-2003 01:00:00 18.63333 C 9.89 g/m*3 18.63 C 0 km/h
2221 16-06-2003 02:00:00 18.5 C 9.81 g/m*3 18.5 C 0 km/h
2222 16-06-2003 03:00:00 17.35 C 9.68 g/m*3 17.35 C 0 km/h
2223 16-06-2003 04:00:00 16.76667 C 9.8 g/m*3 16.77 C 0 km/h
2224 16-06-2003 05:00:00 15.63333 C 9.37 g/m*3 15.63 C 0 km/h
2225 16-06-2003 06:00:00 15.26667 C 9.6 g/m*3 15.27 C 0 km/h
Sensor: Nr:Datum:Temp:Abs-Feuchte:Windchill:Wind:
Aussen-T/F 2226 16-06-2003 07:00:00 15.6 C 10.04 g/m*3 15.6 C 0 km/h
2227 16-06-2003 08:00:00 16.5 C 9.78 g/m*3 16.5 C 0 km/h
2228 16-06-2003 09:00:00 18.63333 C 9.99 g/m*3 18.63 C 0 km/h
2229 16-06-2003 10:00:00 21.25 C 9.11 g/m*3 21.25 C 0 km/h
2230 16-06-2003 11:00:00 23.46667 C 8.02 g/m*3 23.47 C 0 km/h
2231 16-06-2003 12:00:00 25.56667 C 6.73 g/m*3 25.57 C 0 km/h
2232 16-06-2003 13:00:00 27.53333 C 5.83 g/m*3 27.53 C 0 km/h
2233 16-06-2003 14:00:00 28 C 5.71 g/m*3 28 C 0 km/h
2234 16-06-2003 15:00:00 28.75 C 6.16 g/m*3 28.75 C 0 km/h
2235 16-06-2003 16:00:00 29.56667 C 6.12 g/m*3 29.57 C 0 km/h
2236 16-06-2003 17:00:00 30.36667 C 6.5 g/m*3 30.37 C 0 km/h
2237 16-06-2003 18:00:00 30.2 C 6.59 g/m*3 30.2 C 0 km/h
2238 16-06-2003 19:00:00 30.2 C 6.74 g/m*3 30.2 C 0 km/h
2239 16-06-2003 20:00:00 28.5 C 8.11 g/m*3 28.5 C 0 km/h
2240 16-06-2003 21:00:00 24.5 C 9.06 g/m*3 24.5 C 0 km/h
2241 16-06-2003 22:00:00 21.7 C 9.09 g/m*3 21.7 C 0 km/h
2242 16-06-2003 23:00:00 20.2 C 9.33 g/m*3 20.2 C 0 km/h
2243 17-06-2003 00:00:00 18.7 C 9.45 g/m*3 18.7 C 0 km/h
2244 17-06-2003 01:00:00 17.35 C 9.6 g/m*3 17.35 C 0 km/h
2245 17-06-2003 02:00:00 16.43333 C 9.74 g/m*3 16.43 C 0 km/h
2246 17-06-2003 03:00:00 15.56667 C 9.87 g/m*3 15.57 C 0 km/h
2247 17-06-2003 04:00:00 14.7 C 9.69 g/m*3 14.7 C 0 km/h
2248 17-06-2003 05:00:00 14.25 C 9.49 g/m*3 14.25 C 0 km/h
2249 17-06-2003 06:00:00 14.1 C 9.59 g/m*3 14.1 C 0 km/h
2250 17-06-2003 07:00:00 14.83333 C 9.86 g/m*3 14.83 C 0 km/h
Sensor: Nr:Datum:Temp:Abs-Feuchte:Windchill:Wind:
Aussen-T/F 2251 17-06-2003 08:00:00 16 C 10.01 g/m*3 16 C 0 km/h
2252 17-06-2003 09:00:00 18.26667 C 10.09 g/m*3 18.27 C 0 km/h
2253 17-06-2003 10:00:00 22.13333 C 9.58 g/m*3 22.13 C 0 km/h
2254 17-06-2003 11:00:00 25.46667 C 9.37 g/m*3 25.47 C 0 km/h
2255 17-06-2003 12:00:00 28.4 C 9.17 g/m*3 28.4 C 0 km/h
2256 17-06-2003 13:00:00 29.96667 C 8.68 g/m*3 29.97 C 0 km/h
2257 17-06-2003 14:00:00 30.63333 C 8.05 g/m*3 30.63 C 0 km/h
2258 17-06-2003 15:00:00 31.16667 C 7.75 g/m*3 31.17 C 0 km/h
2259 17-06-2003 16:00:00 31.85 C 7.7 g/m*3 31.85 C 0 km/h
2260 17-06-2003 17:00:00 32.53333 C 7.52 g/m*3 32.53 C 0 km/h
2261 17-06-2003 18:00:00 31.93333 C 8.97 g/m*3 31.93 C 0 km/h
2262 17-06-2003 19:00:00 29.5 C 11.07 g/m*3 29.5 C 0 km/h
2263 17-06-2003 20:00:00 26.9 C 10.75 g/m*3 26.9 C 0 km/h
2264 17-06-2003 21:00:00 24.26667 C 10.9 g/m*3 24.27 C 0 km/h
2265 17-06-2003 22:00:00 20.23333 C 13.14 g/m*3 20.23 C 0 km/h
2266 17-06-2003 23:00:00 20 C 12.7 g/m*3 20 C 0 km/h
2267 18-06-2003 00:00:00 19.8 C 12.58 g/m*3 19.8 C 0 km/h
2268 18-06-2003 01:00:00 19.23333 C 12.45 g/m*3 19.23 C 0 km/h
2269 18-06-2003 02:00:00 18.73333 C 12.78 g/m*3 18.73 C 0 km/h
2270 18-06-2003 03:00:00 18.45 C 12.78 g/m*3 18.45 C 0 km/h
2271 18-06-2003 04:00:00 18.5 C 12.92 g/m*3 18.5 C 0 km/h
2272 18-06-2003 05:00:00 18.26667 C 13 g/m*3 18.27 C 0 km/h
2273 18-06-2003 06:00:00 17.55 C 13.01 g/m*3 17.55 C 0 km/h
2274 18-06-2003 07:00:00 17.7 C 12.42 g/m*3 17.7 C 0 km/h
2275 18-06-2003 08:00:00 17.76667 C 12.12 g/m*3 17.77 C 0 km/h
Sensor: Nr:Datum:Temp:Abs-Feuchte:Windchill:Wind:
Aussen-T/F 2276 18-06-2003 09:00:00 18.3 C 11.88 g/m*3 18.3 C 0 km/h
2277 18-06-2003 10:00:00 19.15 C 11.84 g/m*3 19.15 C 0 km/h
2278 18-06-2003 11:00:00 19.93333 C 11.53 g/m*3 19.93 C 0 km/h
2279 18-06-2003 12:00:00 20.5 C 11.74 g/m*3 20.5 C 0 km/h
2280 18-06-2003 13:00:00 22.8 C 10.77 g/m*3 22.8 C 0 km/h
2281 18-06-2003 14:00:00 21.65 C 11.13 g/m*3 21.65 C 0 km/h
2282 18-06-2003 15:00:00 21.66667 C 12.06 g/m*3 21.67 C 0 km/h
2283 18-06-2003 16:00:00 20.46667 C 14.33 g/m*3 20.47 C 0 km/h
2284 18-06-2003 17:00:00 23.4 C 13.04 g/m*3 23.4 C 0 km/h
2285 18-06-2003 18:00:00 25.83333 C 10.77 g/m*3 25.83 C 0 km/h
2286 18-06-2003 19:00:00 24.7 C 10.64 g/m*3 24.7 C 0 km/h
2287 18-06-2003 20:00:00 23.06667 C 10.45 g/m*3 23.07 C 0 km/h
2288 18-06-2003 21:00:00 22.05 C 11 g/m*3 22.05 C 0 km/h
2289 18-06-2003 22:00:00 21.16667 C 10.91 g/m*3 21.17 C 0 km/h
2290 18-06-2003 23:00:00 20.16667 C 10.88 g/m*3 20.17 C 0 km/h
2291 19-06-2003 00:00:00 19.56667 C 10.95 g/m*3 19.57 C 0 km/h
2292 19-06-2003 01:00:00 19.15 C 11.02 g/m*3 19.15 C 0 km/h
2293 19-06-2003 02:00:00 18.63333 C 11.16 g/m*3 18.63 C 0 km/h
2294 19-06-2003 03:00:00 18.53333 C 10.36 g/m*3 18.53 C 0 km/h
2295 19-06-2003 04:00:00 18.15 C 9.76 g/m*3 18.15 C 0 km/h
2296 19-06-2003 05:00:00 17.9 C 10.23 g/m*3 17.9 C 0 km/h
2297 19-06-2003 06:00:00 18.23333 C 9.81 g/m*3 18.23 C 0 km/h
2298 19-06-2003 07:00:00 18.53333 C 10.15 g/m*3 18.53 C 0 km/h
2299 19-06-2003 08:00:00 18.95 C 10.4 g/m*3 18.95 C 0 km/h
2300 19-06-2003 09:00:00 19.66667 C 10.9 g/m*3 19.67 C 0 km/h
Sensor: Nr:Datum:Temp:Abs-Feuchte:Windchill:Wind:
Aussen-T/F 2301 19-06-2003 10:00:00 20.06667 C 11.51 g/m*3 20.07 C 0 km/h
2302 19-06-2003 11:00:00 20.96667 C 11.46 g/m*3 20.97 C 0 km/h
2303 19-06-2003 12:00:00 20.95 C 11.51 g/m*3 20.95 C 0 km/h
2304 19-06-2003 13:00:00 21.83333 C 11.47 g/m*3 21.83 C 0 km/h
2305 19-06-2003 14:00:00 22.5 C 11.65 g/m*3 22.5 C 0 km/h
2306 19-06-2003 15:00:00 23.8 C 10.33 g/m*3 23.8 C 0 km/h
2307 19-06-2003 16:00:00 24.46667 C 10.5 g/m*3 24.47 C 0 km/h
2308 19-06-2003 17:00:00 24 C 10.88 g/m*3 24 C 0 km/h
2309 19-06-2003 18:00:00 23.6 C 12.12 g/m*3 23.6 C 0 km/h
2310 19-06-2003 19:00:00 22.9 C 12.26 g/m*3 22.9 C 0 km/h
2311 19-06-2003 20:00:00 22.3 C 11.98 g/m*3 22.3 C 0 km/h
2312 19-06-2003 21:00:00 21.83333 C 11.85 g/m*3 21.83 C 0 km/h
2313 19-06-2003 22:00:00 20.73333 C 12.14 g/m*3 20.73 C 0 km/h
2314 19-06-2003 23:00:00 20.05 C 12.48 g/m*3 20.05 C 0 km/h
2315 20-06-2003 00:00:00 20 C 12.44 g/m*3 20 C 0 km/h
2316 20-06-2003 01:00:00 19.93333 C 12.57 g/m*3 19.93 C 0 km/h
2317 20-06-2003 02:00:00 19.8 C 12.64 g/m*3 19.8 C 0 km/h
2318 20-06-2003 03:00:00 19.06667 C 12.98 g/m*3 19.07 C 0 km/h
2319 20-06-2003 04:00:00 18.7 C 12.43 g/m*3 18.7 C 0 km/h
2320 20-06-2003 05:00:00 18.53333 C 11.26 g/m*3 18.53 C 0 km/h
2321 20-06-2003 06:00:00 18.4 C 11.17 g/m*3 18.4 C 0 km/h
2322 20-06-2003 07:00:00 18.13333 C 10.37 g/m*3 18.13 C 0 km/h
2323 20-06-2003 08:00:00 17.53333 C 8.56 g/m*3 17.53 C 0 km/h
2324 20-06-2003 09:00:00 18.3 C 8.39 g/m*3 18.3 C 0 km/h
2325 20-06-2003 10:00:00 19.85 C 8.74 g/m*3 19.85 C 0 km/h
Sensor: Nr:Datum:Temp:Abs-Feuchte:Windchill:Wind:
Aussen-T/F 2326 20-06-2003 11:00:00 21.3 C 8.39 g/m*3 21.3 C 0 km/h
2327 20-06-2003 12:00:00 22.8 C 7.38 g/m*3 22.8 C 0 km/h
2328 20-06-2003 13:00:00 23.25 C 6.57 g/m*3 23.25 C 0 km/h
2329 20-06-2003 14:00:00 24.33333 C 6.58 g/m*3 24.33 C 0 km/h
2330 20-06-2003 15:00:00 25.03333 C 6.38 g/m*3 25.03 C 0 km/h
2331 20-06-2003 16:00:00 25.46667 C 6.62 g/m*3 25.47 C 0 km/h
2332 20-06-2003 17:00:00 25.1 C 6.48 g/m*3 25.1 C 0 km/h
2333 20-06-2003 18:00:00 25.1 C 6.17 g/m*3 25.1 C 0 km/h
2334 20-06-2003 19:00:00 23.56667 C 6.23 g/m*3 23.57 C 0 km/h
2335 20-06-2003 20:00:00 21.6 C 6.57 g/m*3 21.6 C 0 km/h
2336 20-06-2003 21:00:00 19 C 6.68 g/m*3 19 C 0 km/h
2337 20-06-2003 22:00:00 17.36667 C 6.61 g/m*3 17.37 C 0 km/h
2338 20-06-2003 23:00:00 16.26667 C 6.65 g/m*3 16.27 C 0 km/h
2339 21-06-2003 00:00:00 15.3 C 6.66 g/m*3 15.3 C 0 km/h
2340 21-06-2003 01:00:00 14.43333 C 6.9 g/m*3 14.43 C 0 km/h
2341 21-06-2003 02:00:00 13.23333 C 7.44 g/m*3 13.23 C 0 km/h
2342 21-06-2003 03:00:00 11.83333 C 7.45 g/m*3 11.83 C 0 km/h
2343 21-06-2003 04:00:00 10.9 C 7.56 g/m*3 10.9 C 0 km/h
2344 21-06-2003 05:00:00 10.03333 C 7.47 g/m*3 10.03 C 0 km/h
2345 21-06-2003 06:00:00 9.83333 C 7.62 g/m*3 9.83 C 0 km/h
2346 21-06-2003 07:00:00 10.56667 C 7.69 g/m*3 10.57 C 0 km/h
2347 21-06-2003 08:00:00 12.05 C 7.64 g/m*3 12.05 C 0 km/h
2348 21-06-2003 09:00:00 14.03333 C 7.65 g/m*3 14.03 C 0 km/h
2349 21-06-2003 10:00:00 17.2 C 6.79 g/m*3 17.2 C 0 km/h
2350 21-06-2003 11:00:00 19.15 C 6.17 g/m*3 19.15 C 0 km/h
Sensor: Nr:Datum:Temp:Abs-Feuchte:Windchill:Wind:
Aussen-T/F 2351 21-06-2003 12:00:00 21.8 C 6.14 g/m*3 21.8 C 0 km/h
2352 21-06-2003 13:00:00 24.36667 C 5.78 g/m*3 24.37 C 0 km/h
2353 21-06-2003 14:00:00 25.13333 C 6.03 g/m*3 25.13 C 0 km/h
2354 21-06-2003 15:00:00 26.4 C 5.85 g/m*3 26.4 C 0 km/h
2355 21-06-2003 16:00:00 25.33333 C 5.86 g/m*3 25.33 C 0 km/h
2356 21-06-2003 17:00:00 26.93333 C 5.81 g/m*3 26.93 C 0 km/h
2357 21-06-2003 18:00:00 26.66667 C 5.9 g/m*3 26.67 C 0 km/h
2358 21-06-2003 19:00:00 27.1 C 6.47 g/m*3 27.1 C 0 km/h
2359 21-06-2003 20:00:00 25.53333 C 6.72 g/m*3 25.53 C 0 km/h
2360 21-06-2003 21:00:00 21.8 C 7.61 g/m*3 21.8 C 0 km/h
2361 21-06-2003 22:00:00 18.5 C 7.59 g/m*3 18.5 C 0 km/h
2362 21-06-2003 23:00:00 17.5 C 7.65 g/m*3 17.5 C 0 km/h
2363 22-06-2003 00:00:00 16.6 C 7.91 g/m*3 16.6 C 0 km/h
2364 22-06-2003 01:00:00 15.96667 C 7.98 g/m*3 15.97 C 0 km/h
2365 22-06-2003 02:00:00 14.95 C 8.12 g/m*3 14.95 C 0 km/h
2366 22-06-2003 03:00:00 14.03333 C 8.14 g/m*3 14.03 C 0 km/h
2367 22-06-2003 04:00:00 13.13333 C 8.04 g/m*3 13.13 C 0 km/h
2368 22-06-2003 05:00:00 12.43333 C 8.1 g/m*3 12.43 C 0 km/h
2369 22-06-2003 06:00:00 12.6 C 8.46 g/m*3 12.6 C 0 km/h
2370 22-06-2003 07:00:00 13.33333 C 8.61 g/m*3 13.33 C 0 km/h
2371 22-06-2003 08:00:00 14.83333 C 9.05 g/m*3 14.83 C 0 km/h
2372 22-06-2003 09:00:00 17.8 C 9.56 g/m*3 17.8 C 0 km/h
2373 22-06-2003 10:00:00 21.03333 C 9.12 g/m*3 21.03 C 0 km/h
2374 22-06-2003 11:00:00 24.13333 C 7.96 g/m*3 24.13 C 0 km/h
2375 22-06-2003 12:00:00 27.56667 C 7.61 g/m*3 27.57 C 0 km/h
Sensor: Nr:Datum:Temp:Abs-Feuchte:Windchill:Wind:
Aussen-T/F 2376 22-06-2003 13:00:00 30.05 C 7.6 g/m*3 30.05 C 0 km/h
2377 22-06-2003 14:00:00 30.16667 C 8.47 g/m*3 30.17 C 0 km/h
2378 22-06-2003 15:00:00 31.16667 C 8.18 g/m*3 31.17 C 0 km/h
2379 22-06-2003 16:00:00 32.2 C 7.73 g/m*3 32.2 C 0 km/h
2380 22-06-2003 17:00:00 31.95 C 8.92 g/m*3 31.95 C 0 km/h
2381 22-06-2003 18:00:00 32.93333 C 8.04 g/m*3 32.93 C 0 km/h
2382 22-06-2003 19:00:00 31.06667 C 10.6 g/m*3 31.07 C 0 km/h
2383 22-06-2003 20:00:00 28.85 C 9.97 g/m*3 28.85 C 0 km/h
2384 22-06-2003 21:00:00 27.03333 C 10.74 g/m*3 27.03 C 0 km/h
2385 22-06-2003 22:00:00 24.03333 C 10.39 g/m*3 24.03 C 0 km/h
2386 22-06-2003 23:00:00 22.56667 C 10.09 g/m*3 22.57 C 0 km/h
2387 23-06-2003 00:00:00 21.5 C 10.18 g/m*3 21.5 C 0 km/h
2388 23-06-2003 01:00:00 20.4 C 10.61 g/m*3 20.4 C 0 km/h
2389 23-06-2003 02:00:00 19 C 10.81 g/m*3 19 C 0 km/h
2390 23-06-2003 03:00:00 17.83333 C 11 g/m*3 17.83 C 0 km/h
2391 23-06-2003 04:00:00 17 C 10.92 g/m*3 17 C 0 km/h
2392 23-06-2003 05:00:00 16.63333 C 10.95 g/m*3 16.63 C 0 km/h
2393 23-06-2003 06:00:00 17.26667 C 11.03 g/m*3 17.27 C 0 km/h
2394 23-06-2003 07:00:00 20.3 C 10.64 g/m*3 20.3 C 0 km/h
2395 23-06-2003 08:00:00 20.2 C 11.37 g/m*3 20.2 C 0 km/h
2396 23-06-2003 09:00:00 23.3 C 10.59 g/m*3 23.3 C 0 km/h
2397 23-06-2003 10:00:00 25.06667 C 11.09 g/m*3 25.07 C 0 km/h
2398 23-06-2003 11:00:00 27.85 C 11.73 g/m*3 27.85 C 0 km/h
2399 23-06-2003 12:00:00 28.56667 C 12.34 g/m*3 28.57 C 0 km/h
2400 23-06-2003 13:00:00 30.03333 C 11.75 g/m*3 30.03 C 0 km/h
Sensor: Nr:Datum:Temp:Abs-Feuchte:Windchill:Wind:
Aussen-T/F 2401 23-06-2003 14:00:00 30.76667 C 11.17 g/m*3 30.77 C 0 km/h
2402 23-06-2003 15:00:00 29.9 C 9.95 g/m*3 29.9 C 0 km/h
2403 23-06-2003 16:00:00 28.33333 C 10.89 g/m*3 28.33 C 0 km/h
2404 23-06-2003 17:00:00 28.26667 C 11.41 g/m*3 28.27 C 0 km/h
2405 23-06-2003 18:00:00 28.25 C 11.99 g/m*3 28.25 C 0 km/h
2406 23-06-2003 19:00:00 27.7 C 11.68 g/m*3 27.7 C 0 km/h
2407 23-06-2003 20:00:00 26.63333 C 9.75 g/m*3 26.63 C 0 km/h
2408 23-06-2003 21:00:00 24.3 C 9 g/m*3 24.3 C 0 km/h
2409 23-06-2003 22:00:00 22.6 C 9.04 g/m*3 22.6 C 0 km/h
2410 23-06-2003 23:00:00 21.16667 C 9 g/m*3 21.17 C 0 km/h
2411 24-06-2003 00:00:00 19.76667 C 9.21 g/m*3 19.77 C 0 km/h
2412 24-06-2003 01:00:00 18.53333 C 9.56 g/m*3 18.53 C 0 km/h
2413 24-06-2003 02:00:00 17.4 C 9.78 g/m*3 17.4 C 0 km/h
2414 24-06-2003 03:00:00 16.23333 C 9.99 g/m*3 16.23 C 0 km/h
2415 24-06-2003 04:00:00 14.96667 C 9.9 g/m*3 14.97 C 0 km/h
2416 24-06-2003 05:00:00 14.1 C 9.95 g/m*3 14.1 C 0 km/h
2417 24-06-2003 06:00:00 14.13333 C 9.89 g/m*3 14.13 C 0 km/h
2418 24-06-2003 07:00:00 15 C 10.09 g/m*3 15 C 0 km/h
2419 24-06-2003 08:00:00 16.46667 C 10.32 g/m*3 16.47 C 0 km/h
2420 24-06-2003 09:00:00 18.5 C 10.36 g/m*3 18.5 C 0 km/h
2421 24-06-2003 10:00:00 21.4 C 9.94 g/m*3 21.4 C 0 km/h
2422 24-06-2003 11:00:00 24 C 9.5 g/m*3 24 C 0 km/h
2423 24-06-2003 12:00:00 26.83333 C 9.26 g/m*3 26.83 C 0 km/h
2424 24-06-2003 13:00:00 28 C 8.02 g/m*3 28 C 0 km/h
2425 24-06-2003 14:00:00 29.03333 C 8.63 g/m*3 29.03 C 0 km/h
Sensor: Nr:Datum:Temp:Abs-Feuchte:Windchill:Wind:
Aussen-T/F 2426 24-06-2003 15:00:00 30.16667 C 8.47 g/m*3 30.17 C 0 km/h
2427 24-06-2003 16:00:00 30.25 C 8.45 g/m*3 30.25 C 0 km/h
2428 24-06-2003 17:00:00 28.96667 C 8.89 g/m*3 28.97 C 0 km/h
2429 24-06-2003 18:00:00 28.63333 C 9.2 g/m*3 28.63 C 0 km/h
2430 24-06-2003 19:00:00 27.56667 C 8.76 g/m*3 27.57 C 0 km/h
2431 24-06-2003 20:00:00 25.15 C 8.82 g/m*3 25.15 C 0 km/h
2432 24-06-2003 21:00:00 23.26667 C 8.76 g/m*3 23.27 C 0 km/h
2433 24-06-2003 22:00:00 21.4 C 8.87 g/m*3 21.4 C 0 km/h
2434 24-06-2003 23:00:00 19.96667 C 8.97 g/m*3 19.97 C 0 km/h
2435 25-06-2003 00:00:00 18.9 C 8.91 g/m*3 18.9 C 0 km/h
2436 25-06-2003 01:00:00 18 C 9.11 g/m*3 18 C 0 km/h
2437 25-06-2003 02:00:00 16.66667 C 9.22 g/m*3 16.67 C 0 km/h
2438 25-06-2003 03:00:00 15.8 C 9.29 g/m*3 15.8 C 0 km/h
2439 25-06-2003 04:00:00 14.8 C 9.25 g/m*3 14.8 C 0 km/h
2440 25-06-2003 05:00:00 13.9 C 9.23 g/m*3 13.9 C 0 km/h
2441 25-06-2003 06:00:00 13.96667 C 9.39 g/m*3 13.97 C 0 km/h
2442 25-06-2003 07:00:00 14.6 C 9.51 g/m*3 14.6 C 0 km/h
2443 25-06-2003 08:00:00 15.46667 C 9.32 g/m*3 15.47 C 0 km/h
2444 25-06-2003 09:00:00 17.53333 C 9.21 g/m*3 17.53 C 0 km/h
2445 25-06-2003 10:00:00 20.66667 C 8.92 g/m*3 20.67 C 0 km/h
2446 25-06-2003 11:00:00 22.45 C 8.56 g/m*3 22.45 C 0 km/h
2447 25-06-2003 12:00:00 24.83333 C 7.53 g/m*3 24.83 C 0 km/h
2448 25-06-2003 13:00:00 26.63333 C 6.56 g/m*3 26.63 C 0 km/h
2449 25-06-2003 14:00:00 27.75 C 6.97 g/m*3 27.75 C 0 km/h
2450 25-06-2003 15:00:00 28.9 C 7.24 g/m*3 28.9 C 0 km/h
Sensor: Nr:Datum:Temp:Abs-Feuchte:Windchill:Wind:
Aussen-T/F 2451 25-06-2003 16:00:00 29.73333 C 6.68 g/m*3 29.73 C 0 km/h
2452 25-06-2003 17:00:00 30.23333 C 6.65 g/m*3 30.23 C 0 km/h
2453 25-06-2003 18:00:00 30.25 C 6.61 g/m*3 30.25 C 0 km/h
2454 25-06-2003 19:00:00 28.86667 C 6.37 g/m*3 28.87 C 0 km/h
2455 25-06-2003 20:00:00 26.26667 C 7.41 g/m*3 26.27 C 0 km/h
2456 25-06-2003 21:00:00 24.23333 C 8.52 g/m*3 24.23 C 0 km/h
2457 25-06-2003 22:00:00 22.05 C 8.66 g/m*3 22.05 C 0 km/h
2458 25-06-2003 23:00:00 20.43333 C 8.92 g/m*3 20.43 C 0 km/h
2459 26-06-2003 00:00:00 19.26667 C 9.1 g/m*3 19.27 C 0 km/h
2460 26-06-2003 01:00:00 17.85 C 9.21 g/m*3 17.85 C 0 km/h
2461 26-06-2003 02:00:00 16.9 C 9.4 g/m*3 16.9 C 0 km/h
2462 26-06-2003 03:00:00 16.06667 C 9.17 g/m*3 16.07 C 0 km/h
2463 26-06-2003 04:00:00 15.3 C 9.01 g/m*3 15.3 C 0 km/h
2464 26-06-2003 05:00:00 14.6 C 8.95 g/m*3 14.6 C 0 km/h
2465 26-06-2003 06:00:00 14.46667 C 9.23 g/m*3 14.47 C 0 km/h
2466 26-06-2003 07:00:00 15.33333 C 9.51 g/m*3 15.33 C 0 km/h
2467 26-06-2003 08:00:00 17.93333 C 9.23 g/m*3 17.93 C 0 km/h
2468 26-06-2003 09:00:00 20.15 C 8.98 g/m*3 20.15 C 0 km/h
2469 26-06-2003 10:00:00 22.5 C 9.25 g/m*3 22.5 C 0 km/h
2470 26-06-2003 11:00:00 25.43333 C 9.04 g/m*3 25.43 C 0 km/h
2471 26-06-2003 12:00:00 27.95 C 8.41 g/m*3 27.95 C 0 km/h
2472 26-06-2003 13:00:00 30.33333 C 7.72 g/m*3 30.33 C 0 km/h
2473 26-06-2003 14:00:00 30.66667 C 7.54 g/m*3 30.67 C 0 km/h
2474 26-06-2003 15:00:00 31.36667 C 6.96 g/m*3 31.37 C 0 km/h
2475 26-06-2003 16:00:00 32.45 C 6.92 g/m*3 32.45 C 0 km/h
Sensor: Nr:Datum:Temp:Abs-Feuchte:Windchill:Wind:
Aussen-T/F 2476 26-06-2003 17:00:00 32.46667 C 6.92 g/m*3 32.47 C 0 km/h
2477 26-06-2003 18:00:00 32.03333 C 7.21 g/m*3 32.03 C 0 km/h
2478 26-06-2003 19:00:00 30.63333 C 8.26 g/m*3 30.63 C 0 km/h
2479 26-06-2003 20:00:00 29.75 C 7.93 g/m*3 29.75 C 0 km/h
2480 26-06-2003 21:00:00 26.46667 C 7.75 g/m*3 26.47 C 0 km/h
2481 26-06-2003 22:00:00 23.73333 C 7.43 g/m*3 23.73 C 0 km/h
2482 26-06-2003 23:00:00 22.25 C 8.27 g/m*3 22.25 C 0 km/h
2483 27-06-2003 00:00:00 20.86667 C 8.3 g/m*3 20.87 C 0 km/h
2484 27-06-2003 01:00:00 19.56667 C 7.81 g/m*3 19.57 C 0 km/h
2485 27-06-2003 02:00:00 18.5 C 8.07 g/m*3 18.5 C 0 km/h
2486 27-06-2003 03:00:00 17.9 C 8.09 g/m*3 17.9 C 0 km/h
2487 27-06-2003 04:00:00 17.2 C 8.2 g/m*3 17.2 C 0 km/h
2488 27-06-2003 05:00:00 16.16667 C 8.35 g/m*3 16.17 C 0 km/h
2489 27-06-2003 06:00:00 16.06667 C 8.94 g/m*3 16.07 C 0 km/h
2490 27-06-2003 07:00:00 16.7 C 9.31 g/m*3 16.7 C 0 km/h
2491 27-06-2003 08:00:00 18.1 C 9.37 g/m*3 18.1 C 0 km/h
2492 27-06-2003 09:00:00 20.73333 C 9.2 g/m*3 20.73 C 0 km/h
2493 27-06-2003 10:00:00 23.9 C 9.09 g/m*3 23.9 C 0 km/h
2494 27-06-2003 11:00:00 26.2 C 8.86 g/m*3 26.2 C 0 km/h
2495 27-06-2003 12:00:00 28.63333 C 8.82 g/m*3 28.63 C 0 km/h
2496 27-06-2003 13:00:00 30.56667 C 8.86 g/m*3 30.57 C 0 km/h
2497 27-06-2003 14:00:00 30.6 C 8.61 g/m*3 30.6 C 0 km/h
2498 27-06-2003 15:00:00 31.53333 C 8.78 g/m*3 31.53 C 0 km/h
2499 27-06-2003 16:00:00 29.63333 C 9.91 g/m*3 29.63 C 0 km/h
2500 27-06-2003 17:00:00 25.73333 C 11.27 g/m*3 25.73 C 0 km/h
Sensor: Nr:Datum:Temp:Abs-Feuchte:Windchill:Wind:
Aussen-T/F 2501 27-06-2003 18:00:00 24.7 C 11.09 g/m*3 24.7 C 0 km/h
2502 27-06-2003 19:00:00 23.33333 C 12.22 g/m*3 23.33 C 0 km/h
2503 27-06-2003 20:00:00 22.6 C 12.56 g/m*3 22.6 C 0 km/h
2504 27-06-2003 21:00:00 22.13333 C 12 g/m*3 22.13 C 0 km/h
2505 27-06-2003 22:00:00 21.75 C 12.15 g/m*3 21.75 C 0 km/h
2506 27-06-2003 23:00:00 21.1 C 12.34 g/m*3 21.1 C 0 km/h
2507 28-06-2003 00:00:00 20.53333 C 12.54 g/m*3 20.53 C 0 km/h
2508 28-06-2003 01:00:00 20.2 C 12.76 g/m*3 20.2 C 0 km/h
2509 28-06-2003 02:00:00 19.76667 C 13.07 g/m*3 19.77 C 0 km/h
2510 28-06-2003 03:00:00 19.46667 C 13.06 g/m*3 19.47 C 0 km/h
2511 28-06-2003 04:00:00 18.86667 C 12.67 g/m*3 18.87 C 0 km/h
2512 28-06-2003 05:00:00 19.05 C 13.16 g/m*3 19.05 C 0 km/h
2513 28-06-2003 06:00:00 19.26667 C 13.08 g/m*3 19.27 C 0 km/h
2514 28-06-2003 07:00:00 19.36667 C 12.99 g/m*3 19.37 C 0 km/h
2515 28-06-2003 08:00:00 19.8 C 12.64 g/m*3 19.8 C 0 km/h
2516 28-06-2003 09:00:00 20.2 C 11.98 g/m*3 20.2 C 0 km/h
2517 28-06-2003 10:00:00 21.66667 C 11.87 g/m*3 21.67 C 0 km/h
2518 28-06-2003 11:00:00 23.66667 C 11.67 g/m*3 23.67 C 0 km/h
2519 28-06-2003 12:00:00 25.75 C 11.4 g/m*3 25.75 C 0 km/h
2520 28-06-2003 13:00:00 26.76667 C 10.42 g/m*3 26.77 C 0 km/h
2521 28-06-2003 14:00:00 25.46667 C 10.71 g/m*3 25.47 C 0 km/h
2522 28-06-2003 15:00:00 26.8 C 10.35 g/m*3 26.8 C 0 km/h
2523 28-06-2003 16:00:00 28.35 C 9.98 g/m*3 28.35 C 0 km/h
2524 28-06-2003 17:00:00 30.33333 C 9.78 g/m*3 30.33 C 0 km/h
2525 28-06-2003 18:00:00 28.5 C 9.88 g/m*3 28.5 C 0 km/h
Sensor: Nr:Datum:Temp:Abs-Feuchte:Windchill:Wind:
Aussen-T/F 2526 28-06-2003 19:00:00 26.36667 C 10.27 g/m*3 26.37 C 0 km/h
2527 28-06-2003 20:00:00 25.1 C 10.42 g/m*3 25.1 C 0 km/h
2528 28-06-2003 21:00:00 23.3 C 10.94 g/m*3 23.3 C 0 km/h
2529 28-06-2003 22:00:00 21.1 C 11.06 g/m*3 21.1 C 0 km/h
2530 28-06-2003 23:00:00 20.45 C 11.09 g/m*3 20.45 C 0 km/h
2531 29-06-2003 00:00:00 19.56667 C 11.29 g/m*3 19.57 C 0 km/h
2532 29-06-2003 01:00:00 19.16667 C 11.14 g/m*3 19.17 C 0 km/h
2533 29-06-2003 02:00:00 18.63333 C 10.9 g/m*3 18.63 C 0 km/h
2534 29-06-2003 03:00:00 18.2 C 10.26 g/m*3 18.2 C 0 km/h
2535 29-06-2003 04:00:00 17.43333 C 10.2 g/m*3 17.43 C 0 km/h
2536 29-06-2003 05:00:00 16.3 C 10.27 g/m*3 16.3 C 0 km/h
2537 29-06-2003 06:00:00 16 C 10.58 g/m*3 16 C 0 km/h
2538 29-06-2003 07:00:00 16.35 C 10.71 g/m*3 16.35 C 0 km/h
2539 29-06-2003 08:00:00 18.53333 C 10.46 g/m*3 18.53 C 0 km/h
2540 29-06-2003 09:00:00 21.03333 C 11.26 g/m*3 21.03 C 0 km/h
2541 29-06-2003 10:00:00 24 C 11.31 g/m*3 24 C 0 km/h
2542 29-06-2003 11:00:00 26.53333 C 10.53 g/m*3 26.53 C 0 km/h
2543 29-06-2003 12:00:00 29.53333 C 9.86 g/m*3 29.53 C 0 km/h
2544 29-06-2003 13:00:00 29.9 C 9.15 g/m*3 29.9 C 0 km/h
2545 29-06-2003 14:00:00 30.6 C 8.77 g/m*3 30.6 C 0 km/h
2546 29-06-2003 15:00:00 31.36667 C 8.05 g/m*3 31.37 C 0 km/h
2547 29-06-2003 16:00:00 31.7 C 8.2 g/m*3 31.7 C 0 km/h
2548 29-06-2003 17:00:00 32.98571 C 7.11 g/m*3 32.99 C 0 km/h
2549 29-06-2003 18:00:00 31.81111 C 8.54 g/m*3 31.81 C 0 km/h
2550 29-06-2003 19:00:00 31.03 C 8.14 g/m*3 31.03 C 0 km/h
Sensor: Nr:Datum:Temp:Abs-Feuchte:Windchill:Wind:
Aussen-T/F 2551 29-06-2003 20:00:00 29.85 C 9.9 g/m*3 29.85 C 0 km/h
2552 29-06-2003 21:00:00 26.02 C 10.41 g/m*3 26.02 C 0 km/h
2553 29-06-2003 22:00:00 23.77 C 10.18 g/m*3 23.77 C 0 km/h
2554 29-06-2003 23:00:00 22.35 C 9.31 g/m*3 22.35 C 0 km/h
2555 30-06-2003 00:00:00 21.16 C 8.93 g/m*3 21.16 C 0 km/h
2556 30-06-2003 01:00:00 19.93 C 9.38 g/m*3 19.93 C 0 km/h
2557 30-06-2003 02:00:00 18.75 C 9.63 g/m*3 18.75 C 0 km/h
2558 30-06-2003 03:00:00 17.82 C 9.85 g/m*3 17.82 C 0 km/h
2559 30-06-2003 04:00:00 17.46 C 10.04 g/m*3 17.46 C 0 km/h
2560 30-06-2003 05:00:00 17.3 C 10.25 g/m*3 17.3 C 0 km/h
2561 30-06-2003 06:00:00 17.28 C 10.45 g/m*3 17.28 C 0 km/h
2562 30-06-2003 07:00:00 17.76 C 10.75 g/m*3 17.76 C 0 km/h
2563 30-06-2003 08:00:00 20.07 C 11.07 g/m*3 20.07 C 0 km/h
2564 30-06-2003 09:00:00 23.17 C 10.73 g/m*3 23.17 C 0 km/h
2565 30-06-2003 10:00:00 24.36 C 10.68 g/m*3 24.36 C 0 km/h
2566 30-06-2003 11:00:00 24.97 C 11.47 g/m*3 24.97 C 0 km/h
2567 30-06-2003 12:00:00 25.01 C 12.74 g/m*3 25.01 C 0 km/h
2568 30-06-2003 13:00:00 27.33 C 12.19 g/m*3 27.33 C 0 km/h
2569 30-06-2003 14:00:00 27.52 C 11.79 g/m*3 27.52 C 0 km/h
2570 30-06-2003 15:00:00 23.56 C 13.81 g/m*3 23.56 C 0 km/h
2571 30-06-2003 16:00:00 22.44 C 15.92 g/m*3 22.44 C 0 km/h
2572 30-06-2003 17:00:00 23.79 C 15.97 g/m*3 23.79 C 0 km/h
2573 30-06-2003 18:00:00 25.97 C 15.41 g/m*3 25.97 C 0 km/h
2574 30-06-2003 19:00:00 25.78 C 15.13 g/m*3 25.78 C 0 km/h
2575 30-06-2003 20:00:00 23.32222 C 15.31 g/m*3 23.32 C 0 km/h
Sensor: Nr:Datum:Temp:Abs-Feuchte:Windchill:Wind:
Aussen-T/F 2576 30-06-2003 21:00:00 22.82 C 14.85 g/m*3 22.82 C 0 km/h
2577 30-06-2003 22:00:00 22.13 C 14.12 g/m*3 22.13 C 0 km/h
2578 30-06-2003 23:00:00 21.27 C 13.81 g/m*3 21.27 C 0 km/h
2579 01-07-2003 00:00:00 20.16 C 13.5 g/m*3 20.16 C 0 km/h
2580 01-07-2003 01:00:00 19.9 C 13.06 g/m*3 19.9 C 0 km/h
2581 01-07-2003 02:00:00 19.86 C 12.19 g/m*3 19.86 C 0 km/h
2582 01-07-2003 03:00:00 18.62 C 11.47 g/m*3 18.62 C 0 km/h
2583 01-07-2003 04:00:00 17.69 C 10.71 g/m*3 17.69 C 0 km/h
2584 01-07-2003 05:00:00 17.08 C 10.41 g/m*3 17.08 C 0 km/h
2585 01-07-2003 06:00:00 16.65 C 10.51 g/m*3 16.65 C 0 km/h
2586 01-07-2003 07:00:00 17.4 C 10.48 g/m*3 17.4 C 0 km/h
2587 01-07-2003 08:00:00 17.67 C 10.47 g/m*3 17.67 C 0 km/h
2588 01-07-2003 09:00:00 18.09 C 9.96 g/m*3 18.09 C 0 km/h
2589 01-07-2003 10:00:00 19.29 C 9.66 g/m*3 19.29 C 0 km/h
2590 01-07-2003 11:00:00 20.97 C 9.49 g/m*3 20.97 C 0 km/h
2591 01-07-2003 12:00:00 21.91 C 8.51 g/m*3 21.91 C 0 km/h
2592 01-07-2003 13:00:00 23.14 C 8.18 g/m*3 23.14 C 0 km/h
2593 01-07-2003 14:00:00 22.9 C 8.3 g/m*3 22.9 C 0 km/h
2594 01-07-2003 15:00:00 23.37 C 8.98 g/m*3 23.37 C 0 km/h
2595 01-07-2003 16:00:00 23.09 C 10.02 g/m*3 23.09 C 0 km/h
2596 01-07-2003 17:00:00 23.29 C 10.11 g/m*3 23.29 C 0 km/h
2597 01-07-2003 18:00:00 18.29 C 12.06 g/m*3 18.29 C 0 km/h
2598 01-07-2003 19:00:00 18.15 C 12.07 g/m*3 18.15 C 0 km/h
2599 01-07-2003 20:00:00 19.36 C 10.74 g/m*3 19.36 C 0 km/h
2600 01-07-2003 21:00:00 16.79 C 11.12 g/m*3 16.79 C 0 km/h
Sensor: Nr:Datum:Temp:Abs-Feuchte:Windchill:Wind:
Aussen-T/F 2601 01-07-2003 22:00:00 16.0625 C 10.14 g/m*3 16.06 C 0 km/h
2602 01-07-2003 23:00:00 15.49 C 10.04 g/m*3 15.49 C 0 km/h
2603 02-07-2003 00:00:00 15.19 C 10.05 g/m*3 15.19 C 0 km/h
2604 02-07-2003 01:00:00 15.52 C 9.99 g/m*3 15.52 C 0 km/h
2605 02-07-2003 02:00:00 15.3 C 9.74 g/m*3 15.3 C 0 km/h
2606 02-07-2003 03:00:00 15.13 C 9.8 g/m*3 15.13 C 0 km/h
2607 02-07-2003 04:00:00 15.07 C 9.66 g/m*3 15.07 C 0 km/h
2608 02-07-2003 05:00:00 15.03 C 9.56 g/m*3 15.03 C 0 km/h
2609 02-07-2003 06:00:00 15.42 C 9.72 g/m*3 15.42 C 0 km/h
2610 02-07-2003 07:00:00 15.76 C 9.74 g/m*3 15.76 C 0 km/h
2611 02-07-2003 08:00:00 16.35 C 9.71 g/m*3 16.35 C 0 km/h
2612 02-07-2003 09:00:00 17.3 C 9.55 g/m*3 17.3 C 0 km/h
2613 02-07-2003 10:00:00 18.59 C 9.46 g/m*3 18.59 C 0 km/h
2614 02-07-2003 11:00:00 20.48 C 9.3 g/m*3 20.48 C 0 km/h
2615 02-07-2003 12:00:00 21.84 C 8.73 g/m*3 21.84 C 0 km/h
2616 02-07-2003 13:00:00 23.54 C 8.05 g/m*3 23.54 C 0 km/h
2617 02-07-2003 14:00:00 22.86 C 7.91 g/m*3 22.86 C 0 km/h
2618 02-07-2003 15:00:00 23.22 C 7.6 g/m*3 23.22 C 0 km/h
2619 02-07-2003 16:00:00 24.63 C 7.73 g/m*3 24.63 C 0 km/h
2620 02-07-2003 17:00:00 20.63 C 8.35 g/m*3 20.63 C 0 km/h
2621 02-07-2003 18:00:00 16.99 C 10.72 g/m*3 16.99 C 0 km/h
2622 02-07-2003 19:00:00 17.56 C 10.07 g/m*3 17.56 C 0 km/h
2623 02-07-2003 20:00:00 18.04 C 10.01 g/m*3 18.04 C 0 km/h
2624 02-07-2003 21:00:00 16.48 C 10.34 g/m*3 16.48 C 0 km/h
2625 02-07-2003 22:00:00 15.48 C 10.63 g/m*3 15.48 C 0 km/h
Sensor: Nr:Datum:Temp:Abs-Feuchte:Windchill:Wind:
Aussen-T/F 2626 02-07-2003 23:00:00 15.26667 C 10.67 g/m*3 15.27 C 0 km/h
2627 03-07-2003 00:00:00 15.21 C 10.65 g/m*3 15.21 C 0 km/h
2628 03-07-2003 01:00:00 15.12 C 10.59 g/m*3 15.12 C 0 km/h
2629 03-07-2003 02:00:00 15.14 C 10.5 g/m*3 15.14 C 0 km/h
2630 03-07-2003 03:00:00 15.12 C 10.23 g/m*3 15.12 C 0 km/h
2631 03-07-2003 04:00:00 14.85 C 10.38 g/m*3 14.85 C 0 km/h
2632 03-07-2003 05:00:00 14.26 C 10.63 g/m*3 14.26 C 0 km/h
2633 03-07-2003 06:00:00 14.59 C 10.44 g/m*3 14.59 C 0 km/h
2634 03-07-2003 07:00:00 14.48 C 10.61 g/m*3 14.48 C 0 km/h
2635 03-07-2003 08:00:00 15.7 C 10.6 g/m*3 15.7 C 0 km/h
2636 03-07-2003 09:00:00 16.12 C 10.16 g/m*3 16.12 C 0 km/h
2637 03-07-2003 10:00:00 16.1 C 10.54 g/m*3 16.1 C 0 km/h
2638 03-07-2003 11:00:00 17.57 C 10.14 g/m*3 17.57 C 0 km/h
2639 03-07-2003 12:00:00 20.08 C 9.69 g/m*3 20.08 C 0 km/h
2640 03-07-2003 13:00:00 21.04 C 9.27 g/m*3 21.04 C 0 km/h
2641 03-07-2003 14:00:00 21.38 C 8.97 g/m*3 21.38 C 0 km/h
2642 03-07-2003 15:00:00 19.21 C 11.02 g/m*3 19.21 C 0 km/h
2643 03-07-2003 16:00:00 20.37 C 9.5 g/m*3 20.37 C 0 km/h
2644 03-07-2003 17:00:00 20.9 C 8.83 g/m*3 20.9 C 0 km/h
2645 03-07-2003 18:00:00 20.76 C 8.08 g/m*3 20.76 C 0 km/h
2646 03-07-2003 19:00:00 18.79 C 8.88 g/m*3 18.79 C 0 km/h
2647 03-07-2003 20:00:00 15.35 C 11.21 g/m*3 15.35 C 0 km/h
2648 03-07-2003 21:00:00 15.79 C 10.99 g/m*3 15.79 C 0 km/h
2649 03-07-2003 22:00:00 15.6 C 10.71 g/m*3 15.6 C 0 km/h
2650 03-07-2003 23:00:00 15.11 C 10.75 g/m*3 15.11 C 0 km/h
Sensor: Nr:Datum:Temp:Abs-Feuchte:Windchill:Wind:
Aussen-T/F 2651 04-07-2003 00:00:00 15.12 C 10.64 g/m*3 15.12 C 0 km/h
2652 04-07-2003 01:00:00 15.35556 C 10.15 g/m*3 15.36 C 0 km/h
2653 04-07-2003 02:00:00 15.54 C 9.77 g/m*3 15.54 C 0 km/h
2654 04-07-2003 03:00:00 15.37 C 9.77 g/m*3 15.37 C 0 km/h
2655 04-07-2003 04:00:00 15.25 C 9.88 g/m*3 15.25 C 0 km/h
2656 04-07-2003 05:00:00 15.03 C 10.05 g/m*3 15.03 C 0 km/h
2657 04-07-2003 06:00:00 15.22 C 9.85 g/m*3 15.22 C 0 km/h
2658 04-07-2003 07:00:00 15.65 C 9.71 g/m*3 15.65 C 0 km/h
2659 04-07-2003 08:00:00 15.86 C 9.63 g/m*3 15.86 C 0 km/h
2660 04-07-2003 09:00:00 15.94 C 10.7 g/m*3 15.94 C 0 km/h
2661 04-07-2003 10:00:00 17.53 C 10.19 g/m*3 17.53 C 0 km/h
2662 04-07-2003 11:00:00 17.78 C 9.43 g/m*3 17.78 C 0 km/h
2663 04-07-2003 12:00:00 19.54 C 8.85 g/m*3 19.54 C 0 km/h
2664 04-07-2003 13:00:00 20.67 C 8.57 g/m*3 20.67 C 0 km/h
2665 04-07-2003 14:00:00 20.8 C 8.62 g/m*3 20.8 C 0 km/h
2666 04-07-2003 15:00:00 20.83 C 9.03 g/m*3 20.83 C 0 km/h
2667 04-07-2003 16:00:00 18.92 C 11.45 g/m*3 18.92 C 0 km/h
2668 04-07-2003 17:00:00 18.07 C 10.84 g/m*3 18.07 C 0 km/h
2669 04-07-2003 18:00:00 18.22 C 10.58 g/m*3 18.22 C 0 km/h
2670 04-07-2003 19:00:00 17.9 C 10.67 g/m*3 17.9 C 0 km/h
2671 04-07-2003 20:00:00 17.48 C 10.69 g/m*3 17.48 C 0 km/h
2672 04-07-2003 21:00:00 16.1 C 11.68 g/m*3 16.1 C 0 km/h
2673 04-07-2003 22:00:00 15.61 C 11.75 g/m*3 15.61 C 0 km/h
2674 04-07-2003 23:00:00 15.39 C 11.48 g/m*3 15.39 C 0 km/h
2675 05-07-2003 00:00:00 14.59 C 11.26 g/m*3 14.59 C 0 km/h
Sensor: Nr:Datum:Temp:Abs-Feuchte:Windchill:Wind:
Aussen-T/F 2676 05-07-2003 01:00:00 14.58 C 11.36 g/m*3 14.58 C 0 km/h
2677 05-07-2003 02:00:00 14.8 C 11.38 g/m*3 14.8 C 0 km/h
2678 05-07-2003 03:00:00 14.88889 C 11.12 g/m*3 14.89 C 0 km/h
2679 05-07-2003 04:00:00 14.95 C 10.88 g/m*3 14.95 C 0 km/h
2680 05-07-2003 05:00:00 15.05 C 10.66 g/m*3 15.05 C 0 km/h
2681 05-07-2003 06:00:00 15.33 C 10.48 g/m*3 15.33 C 0 km/h
2682 05-07-2003 07:00:00 15.38 C 10.5 g/m*3 15.38 C 0 km/h
2683 05-07-2003 08:00:00 15.15 C 10.81 g/m*3 15.15 C 0 km/h
2684 05-07-2003 09:00:00 16.57 C 11 g/m*3 16.57 C 0 km/h
2685 05-07-2003 10:00:00 16.96 C 11.17 g/m*3 16.96 C 0 km/h
2686 05-07-2003 11:00:00 17.66 C 11.23 g/m*3 17.66 C 0 km/h
2687 05-07-2003 12:00:00 19.64 C 10.12 g/m*3 19.64 C 0 km/h
2688 05-07-2003 13:00:00 19.78 C 10.15 g/m*3 19.78 C 0 km/h
2689 05-07-2003 14:00:00 20.52 C 10.69 g/m*3 20.52 C 0 km/h
2690 05-07-2003 15:00:00 19.15 C 10.57 g/m*3 19.15 C 0 km/h
2691 05-07-2003 16:00:00 18.35 C 10.41 g/m*3 18.35 C 0 km/h
2692 05-07-2003 17:00:00 17.69 C 10.33 g/m*3 17.69 C 0 km/h
2693 05-07-2003 18:00:00 17.43 C 10.3 g/m*3 17.43 C 0 km/h
2694 05-07-2003 19:00:00 17.61 C 10.08 g/m*3 17.61 C 0 km/h
2695 05-07-2003 20:00:00 17.48 C 9.74 g/m*3 17.48 C 0 km/h
2696 05-07-2003 21:00:00 17.17 C 9.74 g/m*3 17.17 C 0 km/h
2697 05-07-2003 22:00:00 16.7 C 9.68 g/m*3 16.7 C 0 km/h
2698 05-07-2003 23:00:00 16.55 C 9.65 g/m*3 16.55 C 0 km/h
2699 06-07-2003 00:00:00 16.64 C 9.8 g/m*3 16.64 C 0 km/h
2700 06-07-2003 01:00:00 16.41 C 10.11 g/m*3 16.41 C 0 km/h
Sensor: Nr:Datum:Temp:Abs-Feuchte:Windchill:Wind:
Aussen-T/F 2701 06-07-2003 02:00:00 16.11 C 10.12 g/m*3 16.11 C 0 km/h
2702 06-07-2003 03:00:00 15.72 C 10.17 g/m*3 15.72 C 0 km/h
2703 06-07-2003 04:00:00 15.32222 C 9.94 g/m*3 15.32 C 0 km/h
2704 06-07-2003 05:00:00 15.12 C 9.62 g/m*3 15.12 C 0 km/h
2705 06-07-2003 06:00:00 15.15 C 9.41 g/m*3 15.15 C 0 km/h
2706 06-07-2003 07:00:00 15.31 C 9.21 g/m*3 15.31 C 0 km/h
2707 06-07-2003 08:00:00 15.96 C 9.12 g/m*3 15.96 C 0 km/h
2708 06-07-2003 09:00:00 16.86 C 8.62 g/m*3 16.86 C 0 km/h
2709 06-07-2003 10:00:00 17.46 C 8.39 g/m*3 17.46 C 0 km/h
2710 06-07-2003 11:00:00 18.86 C 8.31 g/m*3 18.86 C 0 km/h
2711 06-07-2003 12:00:00 21.64 C 8.23 g/m*3 21.64 C 0 km/h
2712 06-07-2003 13:00:00 24.66 C 7.9 g/m*3 24.66 C 0 km/h
2713 06-07-2003 14:00:00 25.42 C 8.2 g/m*3 25.42 C 0 km/h
2714 06-07-2003 15:00:00 26.49 C 8.23 g/m*3 26.49 C 0 km/h
2715 06-07-2003 16:00:00 27.31 C 8.22 g/m*3 27.31 C 0 km/h
2716 06-07-2003 17:00:00 27.89 C 8.33 g/m*3 27.89 C 0 km/h
2717 06-07-2003 18:00:00 29.58 C 8.45 g/m*3 29.58 C 0 km/h
2718 06-07-2003 19:00:00 28.46667 C 8.6 g/m*3 28.47 C 0 km/h
2719 06-07-2003 20:00:00 25.71667 C 8.83 g/m*3 25.72 C 0 km/h
2720 06-07-2003 21:00:00 22.3 C 9.84 g/m*3 22.3 C 0 km/h
2721 06-07-2003 22:00:00 19.54 C 9.82 g/m*3 19.54 C 0 km/h
2722 06-07-2003 23:00:00 18.13333 C 9.83 g/m*3 18.13 C 0 km/h
2723 07-07-2003 00:00:00 17.25 C 9.96 g/m*3 17.25 C 0 km/h
2724 07-07-2003 01:00:00 16.76667 C 10.25 g/m*3 16.77 C 0 km/h
2725 07-07-2003 02:00:00 16.03333 C 10.03 g/m*3 16.03 C 0 km/h
Sensor: Nr:Datum:Temp:Abs-Feuchte:Windchill:Wind:
Aussen-T/F 2726 07-07-2003 03:00:00 15.81667 C 9.99 g/m*3 15.82 C 0 km/h
2727 07-07-2003 04:00:00 15.91667 C 10.05 g/m*3 15.92 C 0 km/h
2728 07-07-2003 05:00:00 15.85 C 10.19 g/m*3 15.85 C 0 km/h
2729 07-07-2003 06:00:00 15.75 C 10.22 g/m*3 15.75 C 0 km/h
2730 07-07-2003 07:00:00 16.6 C 10.29 g/m*3 16.6 C 0 km/h
2731 07-07-2003 08:00:00 17.46667 C 10.34 g/m*3 17.47 C 0 km/h
2732 07-07-2003 09:00:00 18.71667 C 10.26 g/m*3 18.72 C 0 km/h
2733 07-07-2003 10:00:00 21.56667 C 9.94 g/m*3 21.57 C 0 km/h
2734 07-07-2003 11:00:00 24.46667 C 9.42 g/m*3 24.47 C 0 km/h
2735 07-07-2003 12:00:00 25.71667 C 8.59 g/m*3 25.72 C 0 km/h
2736 07-07-2003 13:00:00 25.01667 C 7.68 g/m*3 25.02 C 0 km/h
2737 07-07-2003 14:00:00 25.86667 C 7.81 g/m*3 25.87 C 0 km/h
2738 07-07-2003 15:00:00 26.88333 C 7.8 g/m*3 26.88 C 0 km/h
2739 07-07-2003 16:00:00 28.36667 C 7.26 g/m*3 28.37 C 0 km/h
2740 07-07-2003 17:00:00 28.91667 C 6.91 g/m*3 28.92 C 0 km/h
2741 07-07-2003 18:00:00 28.15 C 6.9 g/m*3 28.15 C 0 km/h
2742 07-07-2003 19:00:00 28.23333 C 7.9 g/m*3 28.23 C 0 km/h
2743 07-07-2003 20:00:00 26.83333 C 7.31 g/m*3 26.83 C 0 km/h
2744 07-07-2003 21:00:00 22.41667 C 8.42 g/m*3 22.42 C 0 km/h
2745 07-07-2003 22:00:00 19.85 C 8.51 g/m*3 19.85 C 0 km/h
2746 07-07-2003 23:00:00 18.71667 C 8.68 g/m*3 18.72 C 0 km/h
2747 08-07-2003 00:00:00 17.51667 C 8.66 g/m*3 17.52 C 0 km/h
2748 08-07-2003 01:00:00 16.33333 C 8.87 g/m*3 16.33 C 0 km/h
2749 08-07-2003 02:00:00 15.33333 C 8.96 g/m*3 15.33 C 0 km/h
2750 08-07-2003 03:00:00 14.41667 C 9.05 g/m*3 14.42 C 0 km/h
Sensor: Nr:Datum:Temp:Abs-Feuchte:Windchill:Wind:
Aussen-T/F 2751 08-07-2003 04:00:00 13.76667 C 9.1 g/m*3 13.77 C 0 km/h
2752 08-07-2003 05:00:00 13.21667 C 9.1 g/m*3 13.22 C 0 km/h
2753 08-07-2003 06:00:00 13.33333 C 9.18 g/m*3 13.33 C 0 km/h
2754 08-07-2003 07:00:00 14.23333 C 9.34 g/m*3 14.23 C 0 km/h
2755 08-07-2003 08:00:00 15.26667 C 9.25 g/m*3 15.27 C 0 km/h
2756 08-07-2003 09:00:00 17.8 C 9.38 g/m*3 17.8 C 0 km/h
2757 08-07-2003 10:00:00 21.7 C 9.76 g/m*3 21.7 C 0 km/h
2758 08-07-2003 11:00:00 24.76667 C 9.16 g/m*3 24.77 C 0 km/h
2759 08-07-2003 12:00:00 26.43333 C 7.86 g/m*3 26.43 C 0 km/h
2760 08-07-2003 13:00:00 26.16667 C 7.86 g/m*3 26.17 C 0 km/h
2761 08-07-2003 14:00:00 27.96667 C 8.1 g/m*3 27.97 C 0 km/h
2762 08-07-2003 15:00:00 27.83333 C 8.31 g/m*3 27.83 C 0 km/h
2763 08-07-2003 16:00:00 29.08333 C 8.27 g/m*3 29.08 C 0 km/h
2764 08-07-2003 17:00:00 31.22 C 7.38 g/m*3 31.22 C 0 km/h
2765 08-07-2003 18:00:00 30.38333 C 7.53 g/m*3 30.38 C 0 km/h
2766 08-07-2003 19:00:00 28.51667 C 7.83 g/m*3 28.52 C 0 km/h
2767 08-07-2003 20:00:00 25.8 C 9.11 g/m*3 25.8 C 0 km/h
2768 08-07-2003 21:00:00 23.73333 C 9.25 g/m*3 23.73 C 0 km/h
2769 08-07-2003 22:00:00 22.35 C 9.54 g/m*3 22.35 C 0 km/h
2770 08-07-2003 23:00:00 21.6 C 9.45 g/m*3 21.6 C 0 km/h
2771 09-07-2003 00:00:00 20.65 C 9.48 g/m*3 20.65 C 0 km/h
2772 09-07-2003 01:00:00 19.46667 C 9.77 g/m*3 19.47 C 0 km/h
2773 09-07-2003 02:00:00 18.78333 C 10.06 g/m*3 18.78 C 0 km/h
2774 09-07-2003 03:00:00 17.86667 C 10.29 g/m*3 17.87 C 0 km/h
2775 09-07-2003 04:00:00 17.26667 C 10.49 g/m*3 17.27 C 0 km/h
Sensor: Nr:Datum:Temp:Abs-Feuchte:Windchill:Wind:
Aussen-T/F 2776 09-07-2003 05:00:00 16.8 C 10.53 g/m*3 16.8 C 0 km/h
2777 09-07-2003 06:00:00 16.91667 C 10.7 g/m*3 16.92 C 0 km/h
2778 09-07-2003 07:00:00 17.51667 C 10.87 g/m*3 17.52 C 0 km/h
2779 09-07-2003 08:00:00 18.55 C 10.95 g/m*3 18.55 C 0 km/h
2780 09-07-2003 09:00:00 19.9 C 10.48 g/m*3 19.9 C 0 km/h
2781 09-07-2003 10:00:00 21.55 C 10.37 g/m*3 21.55 C 0 km/h
2782 09-07-2003 11:00:00 23.46667 C 10.24 g/m*3 23.47 C 0 km/h
2783 09-07-2003 12:00:00 25.2 C 9.89 g/m*3 25.2 C 0 km/h
2784 09-07-2003 13:00:00 24.8 C 10.02 g/m*3 24.8 C 0 km/h
2785 09-07-2003 14:00:00 24.45 C 10.08 g/m*3 24.45 C 0 km/h
2786 09-07-2003 15:00:00 23.81667 C 10.34 g/m*3 23.82 C 0 km/h
2787 09-07-2003 16:00:00 23.36667 C 10.21 g/m*3 23.37 C 0 km/h
2788 09-07-2003 17:00:00 23.03333 C 10.09 g/m*3 23.03 C 0 km/h
2789 09-07-2003 18:00:00 22.96667 C 10.26 g/m*3 22.97 C 0 km/h
2790 09-07-2003 19:00:00 23.38 C 10.12 g/m*3 23.38 C 0 km/h
2791 09-07-2003 20:00:00 22.76667 C 10.21 g/m*3 22.77 C 0 km/h
2792 09-07-2003 21:00:00 20.75 C 10.47 g/m*3 20.75 C 0 km/h
2793 09-07-2003 22:00:00 19.03333 C 10.67 g/m*3 19.03 C 0 km/h
2794 09-07-2003 23:00:00 18.06667 C 10.9 g/m*3 18.07 C 0 km/h
2795 10-07-2003 00:00:00 16.83333 C 10.98 g/m*3 16.83 C 0 km/h
2796 10-07-2003 01:00:00 15.93333 C 10.83 g/m*3 15.93 C 0 km/h
2797 10-07-2003 02:00:00 15.26667 C 10.62 g/m*3 15.27 C 0 km/h
2798 10-07-2003 03:00:00 14.68333 C 10.52 g/m*3 14.68 C 0 km/h
2799 10-07-2003 04:00:00 14.16667 C 10.4 g/m*3 14.17 C 0 km/h
2800 10-07-2003 05:00:00 13.46667 C 10.17 g/m*3 13.47 C 0 km/h
Sensor: Nr:Datum:Temp:Abs-Feuchte:Windchill:Wind:
Aussen-T/F 2801 10-07-2003 06:00:00 13.26667 C 10.15 g/m*3 13.27 C 0 km/h
2802 10-07-2003 07:00:00 13.45 C 10.24 g/m*3 13.45 C 0 km/h
2803 10-07-2003 08:00:00 14.73333 C 10.45 g/m*3 14.73 C 0 km/h
2804 10-07-2003 09:00:00 17.13333 C 10.19 g/m*3 17.13 C 0 km/h
2805 10-07-2003 10:00:00 20.75 C 9.93 g/m*3 20.75 C 0 km/h
2806 10-07-2003 11:00:00 22.96 C 8.82 g/m*3 22.96 C 0 km/h
2807 10-07-2003 12:00:00 25.13333 C 7.07 g/m*3 25.13 C 0 km/h
2808 10-07-2003 13:00:00 27.88333 C 6.21 g/m*3 27.88 C 0 km/h
2809 10-07-2003 14:00:00 28.21667 C 6.88 g/m*3 28.22 C 0 km/h
2810 10-07-2003 15:00:00 29.51667 C 6.25 g/m*3 29.52 C 0 km/h
2811 10-07-2003 16:00:00 30.68333 C 6.35 g/m*3 30.68 C 0 km/h
2812 10-07-2003 17:00:00 31 C 6.51 g/m*3 31 C 0 km/h
2813 10-07-2003 18:00:00 30.73333 C 6.68 g/m*3 30.73 C 0 km/h
2814 10-07-2003 19:00:00 30.3 C 6.99 g/m*3 30.3 C 0 km/h
2815 10-07-2003 20:00:00 28.83333 C 7.59 g/m*3 28.83 C 0 km/h
2816 10-07-2003 21:00:00 25.93333 C 8.29 g/m*3 25.93 C 0 km/h
2817 10-07-2003 22:00:00 23 C 8.63 g/m*3 23 C 0 km/h
2818 10-07-2003 23:00:00 21.41667 C 9.07 g/m*3 21.42 C 0 km/h
2819 11-07-2003 00:00:00 19.8 C 9.17 g/m*3 19.8 C 0 km/h
2820 11-07-2003 01:00:00 18.5 C 9.36 g/m*3 18.5 C 0 km/h
2821 11-07-2003 02:00:00 17.38333 C 9.33 g/m*3 17.38 C 0 km/h
2822 11-07-2003 03:00:00 16.55 C 9.27 g/m*3 16.55 C 0 km/h
2823 11-07-2003 04:00:00 15.7 C 9.1 g/m*3 15.7 C 0 km/h
2824 11-07-2003 05:00:00 14.78333 C 9.17 g/m*3 14.78 C 0 km/h
2825 11-07-2003 06:00:00 14.46667 C 9.31 g/m*3 14.47 C 0 km/h
Sensor: Nr:Datum:Temp:Abs-Feuchte:Windchill:Wind:
Aussen-T/F 2826 11-07-2003 07:00:00 15.06667 C 9.51 g/m*3 15.07 C 0 km/h
2827 11-07-2003 08:00:00 16.56667 C 9.66 g/m*3 16.57 C 0 km/h
2828 11-07-2003 09:00:00 19.53333 C 10.12 g/m*3 19.53 C 0 km/h
2829 11-07-2003 10:00:00 23.75 C 9.87 g/m*3 23.75 C 0 km/h
2830 11-07-2003 11:00:00 26.63333 C 9.88 g/m*3 26.63 C 0 km/h
2831 11-07-2003 12:00:00 29.13333 C 9.5 g/m*3 29.13 C 0 km/h
2832 11-07-2003 13:00:00 29.3 C 9.88 g/m*3 29.3 C 0 km/h
2833 11-07-2003 14:00:00 30.05 C 9.53 g/m*3 30.05 C 0 km/h
2834 11-07-2003 15:00:00 29.26667 C 10.25 g/m*3 29.27 C 0 km/h
2835 11-07-2003 16:00:00 28.75 C 11.76 g/m*3 28.75 C 0 km/h
2836 11-07-2003 17:00:00 27.66667 C 12.77 g/m*3 27.67 C 0 km/h
2837 11-07-2003 18:00:00 28.63333 C 11.03 g/m*3 28.63 C 0 km/h
2838 11-07-2003 19:00:00 29.2 C 9.97 g/m*3 29.2 C 0 km/h
2839 11-07-2003 20:00:00 27.85 C 10.56 g/m*3 27.85 C 0 km/h
2840 11-07-2003 21:00:00 25.81667 C 11.25 g/m*3 25.82 C 0 km/h
2841 11-07-2003 22:00:00 24.03333 C 12.5 g/m*3 24.03 C 0 km/h
2842 11-07-2003 23:00:00 22.81667 C 11.59 g/m*3 22.82 C 0 km/h
2843 12-07-2003 00:00:00 21.51667 C 10.82 g/m*3 21.52 C 0 km/h
2844 12-07-2003 01:00:00 20.05 C 10.23 g/m*3 20.05 C 0 km/h
2845 12-07-2003 02:00:00 18.45 C 9.68 g/m*3 18.45 C 0 km/h
2846 12-07-2003 03:00:00 17.38333 C 9.23 g/m*3 17.38 C 0 km/h
2847 12-07-2003 04:00:00 16.46667 C 9.13 g/m*3 16.47 C 0 km/h
2848 12-07-2003 05:00:00 15.96667 C 9.16 g/m*3 15.97 C 0 km/h
2849 12-07-2003 06:00:00 15.78 C 9.14 g/m*3 15.78 C 0 km/h
2850 12-07-2003 07:00:00 16.51667 C 8.95 g/m*3 16.52 C 0 km/h
Sensor: Nr:Datum:Temp:Abs-Feuchte:Windchill:Wind:
Aussen-T/F 2851 12-07-2003 08:00:00 17.51667 C 8.53 g/m*3 17.52 C 0 km/h
2852 12-07-2003 09:00:00 17.91667 C 8.13 g/m*3 17.92 C 0 km/h
2853 12-07-2003 10:00:00 20.18333 C 7.89 g/m*3 20.18 C 0 km/h
2854 12-07-2003 11:00:00 21.53333 C 7.49 g/m*3 21.53 C 0 km/h
2855 12-07-2003 12:00:00 23.98333 C 6.81 g/m*3 23.98 C 0 km/h
2856 12-07-2003 13:00:00 26.26667 C 6.3 g/m*3 26.27 C 0 km/h
2857 12-07-2003 14:00:00 27.08333 C 6.59 g/m*3 27.08 C 0 km/h
2858 12-07-2003 15:00:00 27.6 C 6.7 g/m*3 27.6 C 0 km/h
2859 12-07-2003 16:00:00 28.38333 C 6.57 g/m*3 28.38 C 0 km/h
2860 12-07-2003 17:00:00 27.53333 C 6.58 g/m*3 27.53 C 0 km/h
2861 12-07-2003 18:00:00 27.96667 C 6.61 g/m*3 27.97 C 0 km/h
2862 12-07-2003 19:00:00 26.53333 C 6.69 g/m*3 26.53 C 0 km/h
2863 12-07-2003 20:00:00 25.28333 C 6.98 g/m*3 25.28 C 0 km/h
2864 12-07-2003 21:00:00 22.48333 C 7.62 g/m*3 22.48 C 0 km/h
2865 12-07-2003 22:00:00 20.56667 C 7.98 g/m*3 20.57 C 0 km/h
2866 12-07-2003 23:00:00 19.11667 C 8.07 g/m*3 19.12 C 0 km/h
2867 13-07-2003 00:00:00 17.96667 C 8.18 g/m*3 17.97 C 0 km/h
2868 13-07-2003 01:00:00 16.85 C 8.39 g/m*3 16.85 C 0 km/h
2869 13-07-2003 02:00:00 15.65 C 8.58 g/m*3 15.65 C 0 km/h
2870 13-07-2003 03:00:00 14.71667 C 8.55 g/m*3 14.72 C 0 km/h
2871 13-07-2003 04:00:00 13.75 C 8.63 g/m*3 13.75 C 0 km/h
2872 13-07-2003 05:00:00 13.26667 C 8.59 g/m*3 13.27 C 0 km/h
2873 13-07-2003 06:00:00 12.83333 C 8.77 g/m*3 12.83 C 0 km/h
2874 13-07-2003 07:00:00 13.53333 C 8.89 g/m*3 13.53 C 0 km/h
2875 13-07-2003 08:00:00 15.13333 C 9.16 g/m*3 15.13 C 0 km/h
Sensor: Nr:Datum:Temp:Abs-Feuchte:Windchill:Wind:
Aussen-T/F 2876 13-07-2003 09:00:00 17.9 C 9.44 g/m*3 17.9 C 0 km/h
2877 13-07-2003 10:00:00 21.4 C 9.19 g/m*3 21.4 C 0 km/h
2878 13-07-2003 11:00:00 23.2 C 8.56 g/m*3 23.2 C 0 km/h
2879 13-07-2003 12:00:00 26.3 C 7.34 g/m*3 26.3 C 0 km/h
2880 13-07-2003 13:00:00 29.23333 C 6.11 g/m*3 29.23 C 0 km/h
2881 13-07-2003 14:00:00 29.91667 C 6.09 g/m*3 29.92 C 0 km/h
2882 13-07-2003 15:00:00 30.7 C 6.61 g/m*3 30.7 C 0 km/h
2883 13-07-2003 16:00:00 31.45 C 6.78 g/m*3 31.45 C 0 km/h
2884 13-07-2003 17:00:00 31.68333 C 6.64 g/m*3 31.68 C 0 km/h
2885 13-07-2003 18:00:00 32.21667 C 6.83 g/m*3 32.22 C 0 km/h
2886 13-07-2003 19:00:00 32.23333 C 6.89 g/m*3 32.23 C 0 km/h
2887 13-07-2003 20:00:00 30.6 C 7.52 g/m*3 30.6 C 0 km/h
2888 13-07-2003 21:00:00 26.38333 C 8.46 g/m*3 26.38 C 0 km/h
2889 13-07-2003 22:00:00 23.58333 C 8.15 g/m*3 23.58 C 0 km/h
2890 13-07-2003 23:00:00 22.55 C 7.88 g/m*3 22.55 C 0 km/h
2891 14-07-2003 00:00:00 21.53333 C 7.81 g/m*3 21.53 C 0 km/h
2892 14-07-2003 01:00:00 20.32 C 7.99 g/m*3 20.32 C 0 km/h
2893 14-07-2003 02:00:00 19.35 C 8.01 g/m*3 19.35 C 0 km/h
2894 14-07-2003 03:00:00 17.91667 C 8.15 g/m*3 17.92 C 0 km/h
2895 14-07-2003 04:00:00 16.61667 C 8.08 g/m*3 16.62 C 0 km/h
2896 14-07-2003 05:00:00 15.78333 C 8.25 g/m*3 15.78 C 0 km/h
2897 14-07-2003 06:00:00 15.91667 C 8.27 g/m*3 15.92 C 0 km/h
2898 14-07-2003 07:00:00 16.6 C 8.55 g/m*3 16.6 C 0 km/h
2899 14-07-2003 08:00:00 18.1 C 8.29 g/m*3 18.1 C 0 km/h
2900 14-07-2003 09:00:00 20.45 C 8.1 g/m*3 20.45 C 0 km/h
Sensor: Nr:Datum:Temp:Abs-Feuchte:Windchill:Wind:
Aussen-T/F 2901 14-07-2003 10:00:00 23.21667 C 8.05 g/m*3 23.22 C 0 km/h
2902 14-07-2003 11:00:00 25.58333 C 7.65 g/m*3 25.58 C 0 km/h
2903 14-07-2003 12:00:00 28.06667 C 6.64 g/m*3 28.07 C 0 km/h
2904 14-07-2003 13:00:00 30.26667 C 6.31 g/m*3 30.27 C 0 km/h
2905 14-07-2003 14:00:00 30.71667 C 6.36 g/m*3 30.72 C 0 km/h
2906 14-07-2003 15:00:00 31.55 C 6.59 g/m*3 31.55 C 0 km/h
2907 14-07-2003 16:00:00 31.91667 C 6.72 g/m*3 31.92 C 0 km/h
2908 14-07-2003 17:00:00 33.05 C 7.14 g/m*3 33.05 C 0 km/h
2909 14-07-2003 18:00:00 33 C 7.12 g/m*3 33 C 0 km/h
2910 14-07-2003 19:00:00 32.41667 C 6.9 g/m*3 32.42 C 0 km/h
2911 14-07-2003 20:00:00 31.26667 C 6.65 g/m*3 31.27 C 0 km/h
2912 14-07-2003 21:00:00 26.7 C 6.96 g/m*3 26.7 C 0 km/h
2913 14-07-2003 22:00:00 24.16 C 6.89 g/m*3 24.16 C 0 km/h
2914 14-07-2003 23:00:00 22.66667 C 7.53 g/m*3 22.67 C 0 km/h
2915 15-07-2003 00:00:00 21.18333 C 8.15 g/m*3 21.18 C 0 km/h
2916 15-07-2003 01:00:00 20.56667 C 8.4 g/m*3 20.57 C 0 km/h
2917 15-07-2003 02:00:00 20.03333 C 8.25 g/m*3 20.03 C 0 km/h
2918 15-07-2003 03:00:00 18.86667 C 8.17 g/m*3 18.87 C 0 km/h
2919 15-07-2003 04:00:00 18.28333 C 8.15 g/m*3 18.28 C 0 km/h
2920 15-07-2003 05:00:00 17.33333 C 8.36 g/m*3 17.33 C 0 km/h
2921 15-07-2003 06:00:00 16.4 C 8.86 g/m*3 16.4 C 0 km/h
2922 15-07-2003 07:00:00 16.75 C 9.29 g/m*3 16.75 C 0 km/h
2923 15-07-2003 08:00:00 18.41667 C 9.39 g/m*3 18.42 C 0 km/h
2924 15-07-2003 09:00:00 21.48333 C 8.7 g/m*3 21.48 C 0 km/h
2925 15-07-2003 10:00:00 25.05 C 8.43 g/m*3 25.05 C 0 km/h
Sensor: Nr:Datum:Temp:Abs-Feuchte:Windchill:Wind:
Aussen-T/F 2926 15-07-2003 11:00:00 27.93333 C 7.13 g/m*3 27.93 C 0 km/h
2927 15-07-2003 12:00:00 30.1 C 6.45 g/m*3 30.1 C 0 km/h
2928 15-07-2003 13:00:00 31.85 C 6.7 g/m*3 31.85 C 0 km/h
2929 15-07-2003 14:00:00 32.2 C 6.82 g/m*3 32.2 C 0 km/h
2930 15-07-2003 15:00:00 32.85 C 7.06 g/m*3 32.85 C 0 km/h
2931 15-07-2003 16:00:00 33.63333 C 7.36 g/m*3 33.63 C 0 km/h
2932 15-07-2003 17:00:00 34.4 C 7.66 g/m*3 34.4 C 0 km/h
2933 15-07-2003 18:00:00 34.48333 C 7.7 g/m*3 34.48 C 0 km/h
2934 15-07-2003 19:00:00 34.33333 C 7.64 g/m*3 34.33 C 0 km/h
2935 15-07-2003 20:00:00 32.9 C 7.08 g/m*3 32.9 C 0 km/h
2936 15-07-2003 21:00:00 29.53333 C 7.29 g/m*3 29.53 C 0 km/h
2937 15-07-2003 22:00:00 26.96667 C 7.49 g/m*3 26.97 C 0 km/h
2938 15-07-2003 23:00:00 25.35 C 7.94 g/m*3 25.35 C 0 km/h
2939 16-07-2003 00:00:00 24.01667 C 8.28 g/m*3 24.02 C 0 km/h
2940 16-07-2003 01:00:00 22.68333 C 8.61 g/m*3 22.68 C 0 km/h
2941 16-07-2003 02:00:00 21.63333 C 8.77 g/m*3 21.63 C 0 km/h
2942 16-07-2003 03:00:00 20.46667 C 9.03 g/m*3 20.47 C 0 km/h
2943 16-07-2003 04:00:00 19.53333 C 9.25 g/m*3 19.53 C 0 km/h
2944 16-07-2003 05:00:00 18.88333 C 9.41 g/m*3 18.88 C 0 km/h
2945 16-07-2003 06:00:00 18.95 C 9.78 g/m*3 18.95 C 0 km/h
2946 16-07-2003 07:00:00 20.5 C 10.08 g/m*3 20.5 C 0 km/h
2947 16-07-2003 08:00:00 21.88333 C 10.15 g/m*3 21.88 C 0 km/h
2948 16-07-2003 09:00:00 23.85 C 9.35 g/m*3 23.85 C 0 km/h
2949 16-07-2003 10:00:00 27.01667 C 9.32 g/m*3 27.02 C 0 km/h
2950 16-07-2003 11:00:00 29.9 C 9.05 g/m*3 29.9 C 0 km/h
Sensor: Nr:Datum:Temp:Abs-Feuchte:Windchill:Wind:
Aussen-T/F 2951 16-07-2003 12:00:00 31.71667 C 7.76 g/m*3 31.72 C 0 km/h
2952 16-07-2003 13:00:00 33.23333 C 7.27 g/m*3 33.23 C 0 km/h
2953 16-07-2003 14:00:00 33.75 C 7.41 g/m*3 33.75 C 0 km/h
2954 16-07-2003 15:00:00 33.96667 C 7.49 g/m*3 33.97 C 0 km/h
2955 16-07-2003 16:00:00 33.86667 C 7.45 g/m*3 33.87 C 0 km/h
2956 16-07-2003 17:00:00 33.71667 C 7.39 g/m*3 33.72 C 0 km/h
2957 16-07-2003 18:00:00 32.68333 C 7.7 g/m*3 32.68 C 0 km/h
2958 16-07-2003 19:00:00 31.85 C 8.54 g/m*3 31.85 C 0 km/h
2959 16-07-2003 20:00:00 30.9 C 8.97 g/m*3 30.9 C 0 km/h
2960 16-07-2003 21:00:00 29.23333 C 9.7 g/m*3 29.23 C 0 km/h
2961 16-07-2003 22:00:00 26.2 C 10.5 g/m*3 26.2 C 0 km/h
2962 16-07-2003 23:00:00 25.46667 C 11.15 g/m*3 25.47 C 0 km/h
2963 17-07-2003 00:00:00 24.86667 C 11.27 g/m*3 24.87 C 0 km/h
2964 17-07-2003 01:00:00 23.3 C 11.99 g/m*3 23.3 C 0 km/h
2965 17-07-2003 02:00:00 22 C 12.45 g/m*3 22 C 0 km/h
2966 17-07-2003 03:00:00 20.96667 C 12.52 g/m*3 20.97 C 0 km/h
2967 17-07-2003 04:00:00 20.18333 C 12.29 g/m*3 20.18 C 0 km/h
2968 17-07-2003 05:00:00 20.18333 C 11.41 g/m*3 20.18 C 0 km/h
2969 17-07-2003 06:00:00 20 C 11.12 g/m*3 20 C 0 km/h
2970 17-07-2003 07:00:00 20.08333 C 11 g/m*3 20.08 C 0 km/h
2971 17-07-2003 08:00:00 20.68333 C 10.79 g/m*3 20.68 C 0 km/h
2972 17-07-2003 09:00:00 21.43333 C 10.33 g/m*3 21.43 C 0 km/h
2973 17-07-2003 10:00:00 22.76667 C 9.84 g/m*3 22.77 C 0 km/h
2974 17-07-2003 11:00:00 23.13333 C 9.18 g/m*3 23.13 C 0 km/h
2975 17-07-2003 12:00:00 22.51667 C 9.4 g/m*3 22.52 C 0 km/h
Sensor: Nr:Datum:Temp:Abs-Feuchte:Windchill:Wind:
Aussen-T/F 2976 17-07-2003 13:00:00 23.55 C 9.15 g/m*3 23.55 C 0 km/h
2977 17-07-2003 14:00:00 23.24 C 9 g/m*3 23.24 C 0 km/h
2978 17-07-2003 15:00:00 22.45 C 8.56 g/m*3 22.45 C 0 km/h
2979 17-07-2003 16:00:00 22.56667 C 8.25 g/m*3 22.57 C 0 km/h
2980 17-07-2003 17:00:00 24.1 C 8.24 g/m*3 24.1 C 0 km/h
2981 17-07-2003 18:00:00 22.81667 C 8.64 g/m*3 22.82 C 0 km/h
2982 17-07-2003 19:00:00 21.58333 C 8.59 g/m*3 21.58 C 0 km/h
2983 17-07-2003 20:00:00 21.06667 C 8.18 g/m*3 21.07 C 0 km/h
2984 17-07-2003 21:00:00 20.23333 C 8.29 g/m*3 20.23 C 0 km/h
2985 17-07-2003 22:00:00 19.43333 C 8.53 g/m*3 19.43 C 0 km/h
2986 17-07-2003 23:00:00 18.65 C 8.59 g/m*3 18.65 C 0 km/h
2987 18-07-2003 00:00:00 17.7 C 8.83 g/m*3 17.7 C 0 km/h
2988 18-07-2003 01:00:00 17.8 C 9.11 g/m*3 17.8 C 0 km/h
2989 18-07-2003 02:00:00 17.5 C 9.09 g/m*3 17.5 C 0 km/h
2990 18-07-2003 03:00:00 17.13333 C 8.99 g/m*3 17.13 C 0 km/h
2991 18-07-2003 04:00:00 16.81667 C 9.25 g/m*3 16.82 C 0 km/h
2992 18-07-2003 05:00:00 16.75 C 9.19 g/m*3 16.75 C 0 km/h
2993 18-07-2003 06:00:00 16.71667 C 9.18 g/m*3 16.72 C 0 km/h
2994 18-07-2003 07:00:00 16.75 C 9.48 g/m*3 16.75 C 0 km/h
2995 18-07-2003 08:00:00 17.51667 C 9.48 g/m*3 17.52 C 0 km/h
2996 18-07-2003 09:00:00 20.11667 C 9.37 g/m*3 20.12 C 0 km/h
2997 18-07-2003 10:00:00 22.48333 C 9.41 g/m*3 22.48 C 0 km/h
2998 18-07-2003 11:00:00 24.56667 C 8.8 g/m*3 24.57 C 0 km/h
2999 18-07-2003 12:00:00 26.15 C 8.39 g/m*3 26.15 C 0 km/h
3000 18-07-2003 13:00:00 28.4 C 6.81 g/m*3 28.4 C 0 km/h
Sensor: Nr:Datum:Temp:Abs-Feuchte:Windchill:Wind:
Aussen-T/F 3001 18-07-2003 14:00:00 28.21667 C 7.06 g/m*3 28.22 C 0 km/h
3002 18-07-2003 15:00:00 29.43333 C 7.16 g/m*3 29.43 C 0 km/h
3003 18-07-2003 16:00:00 30.15 C 7.29 g/m*3 30.15 C 0 km/h
3004 18-07-2003 17:00:00 31 C 6.88 g/m*3 31 C 0 km/h
3005 18-07-2003 18:00:00 30.26667 C 8.72 g/m*3 30.27 C 0 km/h
3006 18-07-2003 19:00:00 30.51667 C 8.26 g/m*3 30.52 C 0 km/h
3007 18-07-2003 20:00:00 29.23333 C 8.87 g/m*3 29.23 C 0 km/h
3008 18-07-2003 21:00:00 25.45 C 8.54 g/m*3 25.45 C 0 km/h
3009 18-07-2003 22:00:00 23.56667 C 8.7 g/m*3 23.57 C 0 km/h
3010 18-07-2003 23:00:00 21.93333 C 9.15 g/m*3 21.93 C 0 km/h
3011 19-07-2003 00:00:00 20.53333 C 9.54 g/m*3 20.53 C 0 km/h
3012 19-07-2003 01:00:00 19.36667 C 9.05 g/m*3 19.37 C 0 km/h
3013 19-07-2003 02:00:00 18.5 C 8.99 g/m*3 18.5 C 0 km/h
3014 19-07-2003 03:00:00 17.61667 C 9.03 g/m*3 17.62 C 0 km/h
3015 19-07-2003 04:00:00 16.7 C 9.26 g/m*3 16.7 C 0 km/h
3016 19-07-2003 05:00:00 15.83333 C 9.28 g/m*3 15.83 C 0 km/h
3017 19-07-2003 06:00:00 15.63333 C 9.44 g/m*3 15.63 C 0 km/h
3018 19-07-2003 07:00:00 16.11667 C 9.74 g/m*3 16.12 C 0 km/h
3019 19-07-2003 08:00:00 17.33333 C 9.91 g/m*3 17.33 C 0 km/h
3020 19-07-2003 09:00:00 20.6 C 10.63 g/m*3 20.6 C 0 km/h
3021 19-07-2003 10:00:00 24.73333 C 9.56 g/m*3 24.73 C 0 km/h
3022 19-07-2003 11:00:00 27.66667 C 8.32 g/m*3 27.67 C 0 km/h
3023 19-07-2003 12:00:00 29.86667 C 7.58 g/m*3 29.87 C 0 km/h
3024 19-07-2003 13:00:00 31.4 C 6.87 g/m*3 31.4 C 0 km/h
3025 19-07-2003 14:00:00 31.56667 C 6.71 g/m*3 31.57 C 0 km/h
Sensor: Nr:Datum:Temp:Abs-Feuchte:Windchill:Wind:
Aussen-T/F 3026 19-07-2003 15:00:00 32.4 C 6.9 g/m*3 32.4 C 0 km/h
3027 19-07-2003 16:00:00 33.26667 C 7.22 g/m*3 33.27 C 0 km/h
3028 19-07-2003 17:00:00 33.8 C 7.43 g/m*3 33.8 C 0 km/h
3029 19-07-2003 18:00:00 33.95 C 7.48 g/m*3 33.95 C 0 km/h
3030 19-07-2003 19:00:00 33.56667 C 7.34 g/m*3 33.57 C 0 km/h
3031 19-07-2003 20:00:00 32.7 C 7.18 g/m*3 32.7 C 0 km/h
3032 19-07-2003 21:00:00 28.71667 C 7.78 g/m*3 28.72 C 0 km/h
3033 19-07-2003 22:00:00 26.36667 C 7.87 g/m*3 26.37 C 0 km/h
3034 19-07-2003 23:00:00 25.03333 C 8.34 g/m*3 25.03 C 0 km/h
3035 20-07-2003 00:00:00 23.6 C 8.72 g/m*3 23.6 C 0 km/h
3036 20-07-2003 01:00:00 22.06667 C 9.29 g/m*3 22.07 C 0 km/h
3037 20-07-2003 02:00:00 20.86667 C 9.36 g/m*3 20.87 C 0 km/h
3038 20-07-2003 03:00:00 19.48333 C 9.42 g/m*3 19.48 C 0 km/h
3039 20-07-2003 04:00:00 18.55 C 9.42 g/m*3 18.55 C 0 km/h
3040 20-07-2003 05:00:00 17.73333 C 9.32 g/m*3 17.73 C 0 km/h
3041 20-07-2003 06:00:00 17.53333 C 9.54 g/m*3 17.53 C 0 km/h
3042 20-07-2003 07:00:00 17.91667 C 9.63 g/m*3 17.92 C 0 km/h
3043 20-07-2003 08:00:00 19.38333 C 10.03 g/m*3 19.38 C 0 km/h
3044 20-07-2003 09:00:00 22.85 C 10.6 g/m*3 22.85 C 0 km/h
3045 20-07-2003 10:00:00 27.01667 C 9.92 g/m*3 27.02 C 0 km/h
3046 20-07-2003 11:00:00 29.91667 C 8.86 g/m*3 29.92 C 0 km/h
3047 20-07-2003 12:00:00 32.13333 C 7.25 g/m*3 32.13 C 0 km/h
3048 20-07-2003 13:00:00 33.63333 C 7.36 g/m*3 33.63 C 0 km/h
3049 20-07-2003 14:00:00 33.66667 C 7.37 g/m*3 33.67 C 0 km/h
3050 20-07-2003 15:00:00 34.41667 C 7.67 g/m*3 34.42 C 0 km/h
Sensor: Nr:Datum:Temp:Abs-Feuchte:Windchill:Wind:
Aussen-T/F 3051 20-07-2003 16:00:00 28.4 C 7.51 g/m*3 28.4 C 0 km/h
3052 20-07-2003 17:00:00 26.76667 C 11.64 g/m*3 26.77 C 0 km/h
3053 20-07-2003 18:00:00 29.25 C 13.39 g/m*3 29.25 C 0 km/h
3054 20-07-2003 19:00:00 28.08333 C 12.43 g/m*3 28.08 C 0 km/h
3055 20-07-2003 20:00:00 27.5 C 11.99 g/m*3 27.5 C 0 km/h
3056 20-07-2003 21:00:00 25.53333 C 12.53 g/m*3 25.53 C 0 km/h
3057 20-07-2003 22:00:00 24.15 C 12.32 g/m*3 24.15 C 0 km/h
3058 20-07-2003 23:00:00 23.7 C 12.66 g/m*3 23.7 C 0 km/h
3059 21-07-2003 00:00:00 21.91667 C 14.23 g/m*3 21.92 C 0 km/h
3060 21-07-2003 01:00:00 21.88333 C 13.66 g/m*3 21.88 C 0 km/h
3061 21-07-2003 02:00:00 20.01667 C 14.36 g/m*3 20.02 C 0 km/h
3062 21-07-2003 03:00:00 19.21667 C 13.95 g/m*3 19.22 C 0 km/h
3063 21-07-2003 04:00:00 19.06 C 13.87 g/m*3 19.06 C 0 km/h
3064 21-07-2003 05:00:00 18.61667 C 13.28 g/m*3 18.62 C 0 km/h
3065 21-07-2003 06:00:00 18.43333 C 13.24 g/m*3 18.43 C 0 km/h
3066 21-07-2003 07:00:00 19.31667 C 13.5 g/m*3 19.32 C 0 km/h
3067 21-07-2003 08:00:00 21.16667 C 13.59 g/m*3 21.17 C 0 km/h
3068 21-07-2003 09:00:00 23.33333 C 13.62 g/m*3 23.33 C 0 km/h
3069 21-07-2003 10:00:00 24.58333 C 13.75 g/m*3 24.58 C 0 km/h
3070 21-07-2003 11:00:00 25.03333 C 13.38 g/m*3 25.03 C 0 km/h
3071 21-07-2003 12:00:00 26.31667 C 13.42 g/m*3 26.32 C 0 km/h
3072 21-07-2003 13:00:00 29.1 C 12.23 g/m*3 29.1 C 0 km/h
3073 21-07-2003 14:00:00 30.46667 C 11.25 g/m*3 30.47 C 0 km/h
3074 21-07-2003 15:00:00 31.13333 C 10.96 g/m*3 31.13 C 0 km/h
3075 21-07-2003 16:00:00 31.3 C 9.86 g/m*3 31.3 C 0 km/h
Sensor: Nr:Datum:Temp:Abs-Feuchte:Windchill:Wind:
Aussen-T/F 3076 21-07-2003 17:00:00 31.56667 C 9.73 g/m*3 31.57 C 0 km/h
3077 21-07-2003 18:00:00 31.93333 C 9.92 g/m*3 31.93 C 0 km/h
3078 21-07-2003 19:00:00 29.51667 C 10.44 g/m*3 29.52 C 0 km/h
3079 21-07-2003 20:00:00 28.05 C 11.45 g/m*3 28.05 C 0 km/h
3080 21-07-2003 21:00:00 26.55 C 12.51 g/m*3 26.55 C 0 km/h
3081 21-07-2003 22:00:00 23.81667 C 14.28 g/m*3 23.82 C 0 km/h
3082 21-07-2003 23:00:00 23.3 C 13.38 g/m*3 23.3 C 0 km/h
3083 22-07-2003 00:00:00 22.88333 C 12.76 g/m*3 22.88 C 0 km/h
3084 22-07-2003 01:00:00 21.73333 C 13.95 g/m*3 21.73 C 0 km/h
3085 22-07-2003 02:00:00 19.76667 C 15.63 g/m*3 19.77 C 0 km/h
3086 22-07-2003 03:00:00 19 C 14.91 g/m*3 19 C 0 km/h
3087 22-07-2003 04:00:00 18.85 C 14.56 g/m*3 18.85 C 0 km/h
3088 22-07-2003 05:00:00 18.4 C 14.08 g/m*3 18.4 C 0 km/h
3089 22-07-2003 06:00:00 18.5 C 14.16 g/m*3 18.5 C 0 km/h
3090 22-07-2003 07:00:00 19.38333 C 14.42 g/m*3 19.38 C 0 km/h
3091 22-07-2003 08:00:00 20.36667 C 14.39 g/m*3 20.37 C 0 km/h
3092 22-07-2003 09:00:00 21.6 C 14.03 g/m*3 21.6 C 0 km/h
3093 22-07-2003 10:00:00 21.88333 C 14.01 g/m*3 21.88 C 0 km/h
3094 22-07-2003 11:00:00 23.83333 C 13.76 g/m*3 23.83 C 0 km/h
3095 22-07-2003 12:00:00 26.68333 C 13.02 g/m*3 26.68 C 0 km/h
3096 22-07-2003 13:00:00 26.56667 C 12.9 g/m*3 26.57 C 0 km/h
3097 22-07-2003 14:00:00 28.46667 C 11.86 g/m*3 28.47 C 0 km/h
3098 22-07-2003 15:00:00 29.98333 C 10.35 g/m*3 29.98 C 0 km/h
3099 22-07-2003 16:00:00 30.65 C 10.05 g/m*3 30.65 C 0 km/h
3100 22-07-2003 17:00:00 30.8 C 9.6 g/m*3 30.8 C 0 km/h
Sensor: Nr:Datum:Temp:Abs-Feuchte:Windchill:Wind:
Aussen-T/F 3101 22-07-2003 18:00:00 29.16667 C 10.77 g/m*3 29.17 C 0 km/h
3102 22-07-2003 19:00:00 30.23333 C 9.47 g/m*3 30.23 C 0 km/h
3103 22-07-2003 20:00:00 27.38333 C 10.73 g/m*3 27.38 C 0 km/h
3104 22-07-2003 21:00:00 24.03333 C 10.86 g/m*3 24.03 C 0 km/h
3105 22-07-2003 22:00:00 22.44 C 11.19 g/m*3 22.44 C 0 km/h
3106 22-07-2003 23:00:00 21.5 C 11.5 g/m*3 21.5 C 0 km/h
3107 23-07-2003 00:00:00 20.95 C 11.51 g/m*3 20.95 C 0 km/h
3108 23-07-2003 01:00:00 20.26667 C 11.18 g/m*3 20.27 C 0 km/h
3109 23-07-2003 02:00:00 19.46667 C 11.11 g/m*3 19.47 C 0 km/h
3110 23-07-2003 03:00:00 18.71667 C 11.27 g/m*3 18.72 C 0 km/h
3111 23-07-2003 04:00:00 17.66667 C 11.44 g/m*3 17.67 C 0 km/h
3112 23-07-2003 05:00:00 16.81667 C 11.23 g/m*3 16.82 C 0 km/h
3113 23-07-2003 06:00:00 16.45 C 11.29 g/m*3 16.45 C 0 km/h
3114 23-07-2003 07:00:00 16.85 C 11.38 g/m*3 16.85 C 0 km/h
3115 23-07-2003 08:00:00 17.78333 C 11.5 g/m*3 17.78 C 0 km/h
3116 23-07-2003 09:00:00 20.36667 C 11.36 g/m*3 20.37 C 0 km/h
3117 23-07-2003 10:00:00 23.78333 C 10.75 g/m*3 23.78 C 0 km/h
3118 23-07-2003 11:00:00 25.81667 C 10.04 g/m*3 25.82 C 0 km/h
3119 23-07-2003 12:00:00 24.31667 C 10.08 g/m*3 24.32 C 0 km/h
3120 23-07-2003 13:00:00 28.45 C 9.48 g/m*3 28.45 C 0 km/h
3121 23-07-2003 14:00:00 30.48333 C 9.18 g/m*3 30.48 C 0 km/h
3122 23-07-2003 15:00:00 31 C 8.69 g/m*3 31 C 0 km/h
3123 23-07-2003 16:00:00 30.43333 C 8.64 g/m*3 30.43 C 0 km/h
3124 23-07-2003 17:00:00 30.43333 C 8.85 g/m*3 30.43 C 0 km/h
3125 23-07-2003 18:00:00 29.81667 C 9.11 g/m*3 29.82 C 0 km/h
Sensor: Nr:Datum:Temp:Abs-Feuchte:Windchill:Wind:
Aussen-T/F 3126 23-07-2003 19:00:00 27.91667 C 9.43 g/m*3 27.92 C 0 km/h
3127 23-07-2003 20:00:00 26 C 10.55 g/m*3 26 C 0 km/h
3128 23-07-2003 21:00:00 23.46667 C 10.1 g/m*3 23.47 C 0 km/h
3129 23-07-2003 22:00:00 22.18333 C 10.33 g/m*3 22.18 C 0 km/h
3130 23-07-2003 23:00:00 21.01667 C 10.67 g/m*3 21.02 C 0 km/h
3131 24-07-2003 00:00:00 19.9 C 10.68 g/m*3 19.9 C 0 km/h
3132 24-07-2003 01:00:00 19.05 C 10.84 g/m*3 19.05 C 0 km/h
3133 24-07-2003 02:00:00 18.08333 C 10.96 g/m*3 18.08 C 0 km/h
3134 24-07-2003 03:00:00 17.63333 C 11.02 g/m*3 17.63 C 0 km/h
3135 24-07-2003 04:00:00 17.7 C 11.22 g/m*3 17.7 C 0 km/h
3136 24-07-2003 05:00:00 17.56667 C 11.28 g/m*3 17.57 C 0 km/h
3137 24-07-2003 06:00:00 17.6 C 11.37 g/m*3 17.6 C 0 km/h
3138 24-07-2003 07:00:00 18.33333 C 11.41 g/m*3 18.33 C 0 km/h
3139 24-07-2003 08:00:00 19.3 C 11.61 g/m*3 19.3 C 0 km/h
3140 24-07-2003 09:00:00 20.83333 C 11.55 g/m*3 20.83 C 0 km/h
3141 24-07-2003 10:00:00 23.13333 C 11.49 g/m*3 23.13 C 0 km/h
3142 24-07-2003 11:00:00 24.46667 C 10.76 g/m*3 24.47 C 0 km/h
3143 24-07-2003 12:00:00 26.71667 C 10.89 g/m*3 26.72 C 0 km/h
3144 24-07-2003 13:00:00 28.91667 C 10.44 g/m*3 28.92 C 0 km/h
3145 24-07-2003 14:00:00 29.03333 C 10.26 g/m*3 29.03 C 0 km/h
3146 24-07-2003 15:00:00 27.81667 C 8.44 g/m*3 27.82 C 0 km/h
3147 24-07-2003 16:00:00 26.7 C 9.28 g/m*3 26.7 C 0 km/h
3148 24-07-2003 17:00:00 24.1 C 10.63 g/m*3 24.1 C 0 km/h
3149 24-07-2003 18:00:00 20.88333 C 12.43 g/m*3 20.88 C 0 km/h
3150 24-07-2003 19:00:00 21.63333 C 12.26 g/m*3 21.63 C 0 km/h
Sensor: Nr:Datum:Temp:Abs-Feuchte:Windchill:Wind:
Aussen-T/F 3151 24-07-2003 20:00:00 19.65 C 13.4 g/m*3 19.65 C 0 km/h
3152 24-07-2003 21:00:00 17.9 C 13.54 g/m*3 17.9 C 0 km/h
3153 24-07-2003 22:00:00 17.52 C 12.93 g/m*3 17.52 C 0 km/h
3154 24-07-2003 23:00:00 16.93333 C 12.51 g/m*3 16.93 C 0 km/h
3155 25-07-2003 00:00:00 16.53333 C 12.29 g/m*3 16.53 C 0 km/h
3156 25-07-2003 01:00:00 15.83333 C 11.98 g/m*3 15.83 C 0 km/h
3157 25-07-2003 02:00:00 15.31667 C 11.72 g/m*3 15.32 C 0 km/h
3158 25-07-2003 03:00:00 15.1 C 11.59 g/m*3 15.1 C 0 km/h
3159 25-07-2003 04:00:00 15 C 11.54 g/m*3 15 C 0 km/h
3160 25-07-2003 05:00:00 15.3 C 11.67 g/m*3 15.3 C 0 km/h
3161 25-07-2003 06:00:00 15.3 C 11.47 g/m*3 15.3 C 0 km/h
3162 25-07-2003 07:00:00 15.85 C 11.54 g/m*3 15.85 C 0 km/h
3163 25-07-2003 08:00:00 16.11667 C 11.66 g/m*3 16.12 C 0 km/h
3164 25-07-2003 09:00:00 17.93333 C 11.93 g/m*3 17.93 C 0 km/h
3165 25-07-2003 10:00:00 19.9 C 12.31 g/m*3 19.9 C 0 km/h
3166 25-07-2003 11:00:00 22 C 12.71 g/m*3 22 C 0 km/h
3167 25-07-2003 12:00:00 23.86667 C 12.02 g/m*3 23.87 C 0 km/h
3168 25-07-2003 13:00:00 25.95 C 10.88 g/m*3 25.95 C 0 km/h
3169 25-07-2003 14:00:00 27.75 C 9.16 g/m*3 27.75 C 0 km/h
3170 25-07-2003 15:00:00 28.05 C 9.59 g/m*3 28.05 C 0 km/h
3171 25-07-2003 16:00:00 29.84 C 8.54 g/m*3 29.84 C 0 km/h
3172 25-07-2003 17:00:00 29.68571 C 7.88 g/m*3 29.69 C 0 km/h
3173 25-07-2003 18:00:00 27.58333 C 7.88 g/m*3 27.58 C 0 km/h
3174 25-07-2003 19:00:00 27.825 C 7.81 g/m*3 27.83 C 0 km/h
3175 25-07-2003 20:00:00 24.76 C 8.68 g/m*3 24.76 C 0 km/h
Sensor: Nr:Datum:Temp:Abs-Feuchte:Windchill:Wind:
Aussen-T/F 3176 25-07-2003 21:00:00 22.15 C 10.51 g/m*3 22.15 C 0 km/h
3177 25-07-2003 22:00:00 21.1 C 10.66 g/m*3 21.1 C 0 km/h
3178 25-07-2003 23:00:00 20.78333 C 10.67 g/m*3 20.78 C 0 km/h
3179 26-07-2003 00:00:00 19.05 C 12.26 g/m*3 19.05 C 0 km/h
3180 26-07-2003 01:00:00 18.55 C 12.3 g/m*3 18.55 C 0 km/h
3181 26-07-2003 02:00:00 18.91667 C 11.95 g/m*3 18.92 C 0 km/h
3182 26-07-2003 03:00:00 19.43333 C 11.34 g/m*3 19.43 C 0 km/h
3183 26-07-2003 04:00:00 19.65 C 11.43 g/m*3 19.65 C 0 km/h
3184 26-07-2003 05:00:00 19.71667 C 11.81 g/m*3 19.72 C 0 km/h
3185 26-07-2003 06:00:00 19.75 C 12.01 g/m*3 19.75 C 0 km/h
3186 26-07-2003 07:00:00 19.58333 C 12.28 g/m*3 19.58 C 0 km/h
3187 26-07-2003 08:00:00 18.7 C 13.69 g/m*3 18.7 C 0 km/h
3188 26-07-2003 09:00:00 20.23333 C 13.26 g/m*3 20.23 C 0 km/h
3189 26-07-2003 10:00:00 19.78333 C 13.4 g/m*3 19.78 C 0 km/h
3190 26-07-2003 11:00:00 21.18333 C 13.02 g/m*3 21.18 C 0 km/h
3191 26-07-2003 12:00:00 23.35 C 11.88 g/m*3 23.35 C 0 km/h
3192 26-07-2003 13:00:00 25.01667 C 10.68 g/m*3 25.02 C 0 km/h
3193 26-07-2003 14:00:00 25.83333 C 10.29 g/m*3 25.83 C 0 km/h
3194 26-07-2003 15:00:00 25.48333 C 10.41 g/m*3 25.48 C 0 km/h
3195 26-07-2003 16:00:00 25.01667 C 10.48 g/m*3 25.02 C 0 km/h
3196 26-07-2003 17:00:00 25.28333 C 10.84 g/m*3 25.28 C 0 km/h